<?xml version="1.0" encoding="UTF-8" standalone="no" ?>
<gpx xmlns="http://www.topografix.com/GPX/1/1" xmlns:xsi="http://www.w3.org/2001/XMLSchema-instance" xsi:schemaLocation="http://www.topografix.com/GPX/1/1 http://www.topografix.com/GPX/1/1/gpx.xsd" version="1.1" creator="VisuGPX - https://www.visugpx.com">
  <metadata>
    <name>Lannion Ploumillau Lanvellec Lannion</name>
    <desc><![CDATA[Parcours de vélo au départ de Lannion, vers Lanvellec]]></desc>
  </metadata>
  <trk>
    <name><![CDATA[26 oct. 2015 14:08:38]]></name>
    <cmt><![CDATA[26 oct. 2015 14:08:38]]></cmt>
    <trkseg>
      <trkpt lat="48.73592" lon="-3.46384">
        <ele>45.6</ele>
        <time>2015-10-26T13:09:23Z</time>
      </trkpt>
      <trkpt lat="48.73611" lon="-3.46441">
        <ele>-6</ele>
        <time>2015-10-26T13:09:51Z</time>
      </trkpt>
      <trkpt lat="48.73594" lon="-3.46447">
        <ele>-5</ele>
        <time>2015-10-26T13:09:55Z</time>
      </trkpt>
      <trkpt lat="48.73575" lon="-3.46454">
        <ele>-4</ele>
        <time>2015-10-26T13:09:59Z</time>
      </trkpt>
      <trkpt lat="48.7356" lon="-3.4646">
        <ele>-4</ele>
        <time>2015-10-26T13:10:02Z</time>
      </trkpt>
      <trkpt lat="48.73544" lon="-3.46465">
        <ele>-4</ele>
        <time>2015-10-26T13:10:05Z</time>
      </trkpt>
      <trkpt lat="48.73525" lon="-3.46473">
        <ele>-4</ele>
        <time>2015-10-26T13:10:08Z</time>
      </trkpt>
      <trkpt lat="48.73504" lon="-3.4648">
        <ele>-4</ele>
        <time>2015-10-26T13:10:11Z</time>
      </trkpt>
      <trkpt lat="48.73487" lon="-3.46483">
        <ele>-4</ele>
        <time>2015-10-26T13:10:13Z</time>
      </trkpt>
      <trkpt lat="48.7347" lon="-3.46487">
        <ele>-4</ele>
        <time>2015-10-26T13:10:15Z</time>
      </trkpt>
      <trkpt lat="48.7346" lon="-3.46488">
        <ele>-4</ele>
        <time>2015-10-26T13:10:16Z</time>
      </trkpt>
      <trkpt lat="48.73451" lon="-3.46489">
        <ele>-4</ele>
        <time>2015-10-26T13:10:17Z</time>
      </trkpt>
      <trkpt lat="48.73432" lon="-3.46488">
        <ele>-4</ele>
        <time>2015-10-26T13:10:19Z</time>
      </trkpt>
      <trkpt lat="48.73412" lon="-3.4649">
        <ele>-5</ele>
        <time>2015-10-26T13:10:22Z</time>
      </trkpt>
      <trkpt lat="48.73404" lon="-3.4651">
        <ele>-5</ele>
        <time>2015-10-26T13:10:25Z</time>
      </trkpt>
      <trkpt lat="48.73413" lon="-3.46536">
        <ele>-6</ele>
        <time>2015-10-26T13:10:29Z</time>
      </trkpt>
      <trkpt lat="48.73424" lon="-3.46553">
        <ele>-6</ele>
        <time>2015-10-26T13:10:32Z</time>
      </trkpt>
      <trkpt lat="48.73437" lon="-3.46576">
        <ele>-7</ele>
        <time>2015-10-26T13:10:36Z</time>
      </trkpt>
      <trkpt lat="48.73436" lon="-3.466">
        <ele>-9</ele>
        <time>2015-10-26T13:10:45Z</time>
      </trkpt>
      <trkpt lat="48.73419" lon="-3.46601">
        <ele>-10</ele>
        <time>2015-10-26T13:10:49Z</time>
      </trkpt>
      <trkpt lat="48.73403" lon="-3.46603">
        <ele>-10</ele>
        <time>2015-10-26T13:10:52Z</time>
      </trkpt>
      <trkpt lat="48.73386" lon="-3.46605">
        <ele>-11</ele>
        <time>2015-10-26T13:10:55Z</time>
      </trkpt>
      <trkpt lat="48.73368" lon="-3.46606">
        <ele>-11</ele>
        <time>2015-10-26T13:10:58Z</time>
      </trkpt>
      <trkpt lat="48.73349" lon="-3.46602">
        <ele>-12</ele>
        <time>2015-10-26T13:11:01Z</time>
      </trkpt>
      <trkpt lat="48.73329" lon="-3.46587">
        <ele>-13</ele>
        <time>2015-10-26T13:11:04Z</time>
      </trkpt>
      <trkpt lat="48.73319" lon="-3.46569">
        <ele>-13</ele>
        <time>2015-10-26T13:11:06Z</time>
      </trkpt>
      <trkpt lat="48.7331" lon="-3.46549">
        <ele>-14</ele>
        <time>2015-10-26T13:11:08Z</time>
      </trkpt>
      <trkpt lat="48.733" lon="-3.4652">
        <ele>-14</ele>
        <time>2015-10-26T13:11:11Z</time>
      </trkpt>
      <trkpt lat="48.73292" lon="-3.46491">
        <ele>-15</ele>
        <time>2015-10-26T13:11:14Z</time>
      </trkpt>
      <trkpt lat="48.73289" lon="-3.4646">
        <ele>-16</ele>
        <time>2015-10-26T13:11:17Z</time>
      </trkpt>
      <trkpt lat="48.73288" lon="-3.46428">
        <ele>-16</ele>
        <time>2015-10-26T13:11:20Z</time>
      </trkpt>
      <trkpt lat="48.73285" lon="-3.46396">
        <ele>-17</ele>
        <time>2015-10-26T13:11:23Z</time>
      </trkpt>
      <trkpt lat="48.73281" lon="-3.46363">
        <ele>-18</ele>
        <time>2015-10-26T13:11:26Z</time>
      </trkpt>
      <trkpt lat="48.73282" lon="-3.46338">
        <ele>-18</ele>
        <time>2015-10-26T13:11:28Z</time>
      </trkpt>
      <trkpt lat="48.73284" lon="-3.46313">
        <ele>-18</ele>
        <time>2015-10-26T13:11:30Z</time>
      </trkpt>
      <trkpt lat="48.73283" lon="-3.46267">
        <ele>-19</ele>
        <time>2015-10-26T13:11:34Z</time>
      </trkpt>
      <trkpt lat="48.73281" lon="-3.4624">
        <ele>-19</ele>
        <time>2015-10-26T13:11:37Z</time>
      </trkpt>
      <trkpt lat="48.73265" lon="-3.46251">
        <ele>-20</ele>
        <time>2015-10-26T13:11:42Z</time>
      </trkpt>
      <trkpt lat="48.73255" lon="-3.46279">
        <ele>-20</ele>
        <time>2015-10-26T13:11:46Z</time>
      </trkpt>
      <trkpt lat="48.73247" lon="-3.46305">
        <ele>-21</ele>
        <time>2015-10-26T13:11:49Z</time>
      </trkpt>
      <trkpt lat="48.73238" lon="-3.4633">
        <ele>-21</ele>
        <time>2015-10-26T13:11:52Z</time>
      </trkpt>
      <trkpt lat="48.73227" lon="-3.46353">
        <ele>-21</ele>
        <time>2015-10-26T13:11:55Z</time>
      </trkpt>
      <trkpt lat="48.73216" lon="-3.46377">
        <ele>-22</ele>
        <time>2015-10-26T13:11:58Z</time>
      </trkpt>
      <trkpt lat="48.73206" lon="-3.46401">
        <ele>-22</ele>
        <time>2015-10-26T13:12:01Z</time>
      </trkpt>
      <trkpt lat="48.73198" lon="-3.46426">
        <ele>-23</ele>
        <time>2015-10-26T13:12:04Z</time>
      </trkpt>
      <trkpt lat="48.73192" lon="-3.46453">
        <ele>-23</ele>
        <time>2015-10-26T13:12:07Z</time>
      </trkpt>
      <trkpt lat="48.73188" lon="-3.46479">
        <ele>-24</ele>
        <time>2015-10-26T13:12:10Z</time>
      </trkpt>
      <trkpt lat="48.73175" lon="-3.46493">
        <ele>-24</ele>
        <time>2015-10-26T13:12:13Z</time>
      </trkpt>
      <trkpt lat="48.73158" lon="-3.46496">
        <ele>-25</ele>
        <time>2015-10-26T13:12:16Z</time>
      </trkpt>
      <trkpt lat="48.73144" lon="-3.46506">
        <ele>-25</ele>
        <time>2015-10-26T13:12:19Z</time>
      </trkpt>
      <trkpt lat="48.73138" lon="-3.46528">
        <ele>-25</ele>
        <time>2015-10-26T13:12:22Z</time>
      </trkpt>
      <trkpt lat="48.73143" lon="-3.46556">
        <ele>-25</ele>
        <time>2015-10-26T13:12:26Z</time>
      </trkpt>
      <trkpt lat="48.73152" lon="-3.4658">
        <ele>-26</ele>
        <time>2015-10-26T13:12:30Z</time>
      </trkpt>
      <trkpt lat="48.73202" lon="-3.46675">
        <ele>-27</ele>
        <time>2015-10-26T13:12:45Z</time>
      </trkpt>
      <trkpt lat="48.73213" lon="-3.46694">
        <ele>-28</ele>
        <time>2015-10-26T13:12:48Z</time>
      </trkpt>
      <trkpt lat="48.73224" lon="-3.46711">
        <ele>-28</ele>
        <time>2015-10-26T13:12:51Z</time>
      </trkpt>
      <trkpt lat="48.73264" lon="-3.46748">
        <ele>-28</ele>
        <time>2015-10-26T13:13:01Z</time>
      </trkpt>
      <trkpt lat="48.7328" lon="-3.46765">
        <ele>-30</ele>
        <time>2015-10-26T13:13:05Z</time>
      </trkpt>
      <trkpt lat="48.73294" lon="-3.46781">
        <ele>-30</ele>
        <time>2015-10-26T13:13:08Z</time>
      </trkpt>
      <trkpt lat="48.73311" lon="-3.46801">
        <ele>-31</ele>
        <time>2015-10-26T13:13:12Z</time>
      </trkpt>
      <trkpt lat="48.73324" lon="-3.46816">
        <ele>-32</ele>
        <time>2015-10-26T13:13:15Z</time>
      </trkpt>
      <trkpt lat="48.73337" lon="-3.46831">
        <ele>-33</ele>
        <time>2015-10-26T13:13:18Z</time>
      </trkpt>
      <trkpt lat="48.73363" lon="-3.46856">
        <ele>-33</ele>
        <time>2015-10-26T13:13:24Z</time>
      </trkpt>
      <trkpt lat="48.73393" lon="-3.46885">
        <ele>-34</ele>
        <time>2015-10-26T13:13:31Z</time>
      </trkpt>
      <trkpt lat="48.73406" lon="-3.46899">
        <ele>-35</ele>
        <time>2015-10-26T13:13:34Z</time>
      </trkpt>
      <trkpt lat="48.7342" lon="-3.46914">
        <ele>-36</ele>
        <time>2015-10-26T13:13:37Z</time>
      </trkpt>
      <trkpt lat="48.73437" lon="-3.4693">
        <ele>-37</ele>
        <time>2015-10-26T13:13:40Z</time>
      </trkpt>
      <trkpt lat="48.73454" lon="-3.46945">
        <ele>-38</ele>
        <time>2015-10-26T13:13:43Z</time>
      </trkpt>
      <trkpt lat="48.73474" lon="-3.46957">
        <ele>-38</ele>
        <time>2015-10-26T13:13:46Z</time>
      </trkpt>
      <trkpt lat="48.73495" lon="-3.46967">
        <ele>-39</ele>
        <time>2015-10-26T13:13:49Z</time>
      </trkpt>
      <trkpt lat="48.73515" lon="-3.46975">
        <ele>-40</ele>
        <time>2015-10-26T13:13:52Z</time>
      </trkpt>
      <trkpt lat="48.73535" lon="-3.46982">
        <ele>-40</ele>
        <time>2015-10-26T13:13:55Z</time>
      </trkpt>
      <trkpt lat="48.73554" lon="-3.46988">
        <ele>-41</ele>
        <time>2015-10-26T13:13:58Z</time>
      </trkpt>
      <trkpt lat="48.73572" lon="-3.46995">
        <ele>-41</ele>
        <time>2015-10-26T13:14:01Z</time>
      </trkpt>
      <trkpt lat="48.73589" lon="-3.47001">
        <ele>-41</ele>
        <time>2015-10-26T13:14:04Z</time>
      </trkpt>
      <trkpt lat="48.73606" lon="-3.47008">
        <ele>-42</ele>
        <time>2015-10-26T13:14:07Z</time>
      </trkpt>
      <trkpt lat="48.73622" lon="-3.47017">
        <ele>-42</ele>
        <time>2015-10-26T13:14:10Z</time>
      </trkpt>
      <trkpt lat="48.73636" lon="-3.47024">
        <ele>-42</ele>
        <time>2015-10-26T13:14:13Z</time>
      </trkpt>
      <trkpt lat="48.73656" lon="-3.47032">
        <ele>-43</ele>
        <time>2015-10-26T13:14:17Z</time>
      </trkpt>
      <trkpt lat="48.7367" lon="-3.47039">
        <ele>-44</ele>
        <time>2015-10-26T13:14:20Z</time>
      </trkpt>
      <trkpt lat="48.73685" lon="-3.47048">
        <ele>-44</ele>
        <time>2015-10-26T13:14:23Z</time>
      </trkpt>
      <trkpt lat="48.73701" lon="-3.47057">
        <ele>-44</ele>
        <time>2015-10-26T13:14:26Z</time>
      </trkpt>
      <trkpt lat="48.73718" lon="-3.47067">
        <ele>-45</ele>
        <time>2015-10-26T13:14:29Z</time>
      </trkpt>
      <trkpt lat="48.73733" lon="-3.47079">
        <ele>-45</ele>
        <time>2015-10-26T13:14:32Z</time>
      </trkpt>
      <trkpt lat="48.73747" lon="-3.47092">
        <ele>-45</ele>
        <time>2015-10-26T13:14:35Z</time>
      </trkpt>
      <trkpt lat="48.73763" lon="-3.47109">
        <ele>-45</ele>
        <time>2015-10-26T13:14:39Z</time>
      </trkpt>
      <trkpt lat="48.73778" lon="-3.47128">
        <ele>-46</ele>
        <time>2015-10-26T13:14:43Z</time>
      </trkpt>
      <trkpt lat="48.73793" lon="-3.47151">
        <ele>-46</ele>
        <time>2015-10-26T13:14:47Z</time>
      </trkpt>
      <trkpt lat="48.73806" lon="-3.47175">
        <ele>-46</ele>
        <time>2015-10-26T13:14:50Z</time>
      </trkpt>
      <trkpt lat="48.73818" lon="-3.47201">
        <ele>-46</ele>
        <time>2015-10-26T13:14:53Z</time>
      </trkpt>
      <trkpt lat="48.73831" lon="-3.47226">
        <ele>-46</ele>
        <time>2015-10-26T13:14:56Z</time>
      </trkpt>
      <trkpt lat="48.73842" lon="-3.4725">
        <ele>-45</ele>
        <time>2015-10-26T13:14:59Z</time>
      </trkpt>
      <trkpt lat="48.73853" lon="-3.47274">
        <ele>-45</ele>
        <time>2015-10-26T13:15:02Z</time>
      </trkpt>
      <trkpt lat="48.73863" lon="-3.47298">
        <ele>-45</ele>
        <time>2015-10-26T13:15:05Z</time>
      </trkpt>
      <trkpt lat="48.73872" lon="-3.47322">
        <ele>-45</ele>
        <time>2015-10-26T13:15:08Z</time>
      </trkpt>
      <trkpt lat="48.73881" lon="-3.47347">
        <ele>-45</ele>
        <time>2015-10-26T13:15:11Z</time>
      </trkpt>
      <trkpt lat="48.73888" lon="-3.47372">
        <ele>-45</ele>
        <time>2015-10-26T13:15:14Z</time>
      </trkpt>
      <trkpt lat="48.73895" lon="-3.47396">
        <ele>-45</ele>
        <time>2015-10-26T13:15:17Z</time>
      </trkpt>
      <trkpt lat="48.739" lon="-3.47422">
        <ele>-44</ele>
        <time>2015-10-26T13:15:20Z</time>
      </trkpt>
      <trkpt lat="48.73903" lon="-3.47447">
        <ele>-44</ele>
        <time>2015-10-26T13:15:23Z</time>
      </trkpt>
      <trkpt lat="48.73906" lon="-3.47473">
        <ele>-44</ele>
        <time>2015-10-26T13:15:26Z</time>
      </trkpt>
      <trkpt lat="48.73909" lon="-3.47499">
        <ele>-44</ele>
        <time>2015-10-26T13:15:29Z</time>
      </trkpt>
      <trkpt lat="48.73912" lon="-3.47524">
        <ele>-44</ele>
        <time>2015-10-26T13:15:32Z</time>
      </trkpt>
      <trkpt lat="48.73914" lon="-3.47549">
        <ele>-43</ele>
        <time>2015-10-26T13:15:35Z</time>
      </trkpt>
      <trkpt lat="48.73915" lon="-3.47574">
        <ele>-43</ele>
        <time>2015-10-26T13:15:38Z</time>
      </trkpt>
      <trkpt lat="48.73914" lon="-3.476">
        <ele>-43</ele>
        <time>2015-10-26T13:15:41Z</time>
      </trkpt>
      <trkpt lat="48.73912" lon="-3.47625">
        <ele>-43</ele>
        <time>2015-10-26T13:15:44Z</time>
      </trkpt>
      <trkpt lat="48.73909" lon="-3.4765">
        <ele>-43</ele>
        <time>2015-10-26T13:15:47Z</time>
      </trkpt>
      <trkpt lat="48.73906" lon="-3.47667">
        <ele>-43</ele>
        <time>2015-10-26T13:15:49Z</time>
      </trkpt>
      <trkpt lat="48.73903" lon="-3.47684">
        <ele>-43</ele>
        <time>2015-10-26T13:15:51Z</time>
      </trkpt>
      <trkpt lat="48.73899" lon="-3.47708">
        <ele>-43</ele>
        <time>2015-10-26T13:15:54Z</time>
      </trkpt>
      <trkpt lat="48.73895" lon="-3.47725">
        <ele>-43</ele>
        <time>2015-10-26T13:15:56Z</time>
      </trkpt>
      <trkpt lat="48.7389" lon="-3.47748">
        <ele>-43</ele>
        <time>2015-10-26T13:15:59Z</time>
      </trkpt>
      <trkpt lat="48.73885" lon="-3.47764">
        <ele>-43</ele>
        <time>2015-10-26T13:16:01Z</time>
      </trkpt>
      <trkpt lat="48.73881" lon="-3.47779">
        <ele>-43</ele>
        <time>2015-10-26T13:16:03Z</time>
      </trkpt>
      <trkpt lat="48.73877" lon="-3.47794">
        <ele>-43</ele>
        <time>2015-10-26T13:16:05Z</time>
      </trkpt>
      <trkpt lat="48.73872" lon="-3.4781">
        <ele>-43</ele>
        <time>2015-10-26T13:16:07Z</time>
      </trkpt>
      <trkpt lat="48.73867" lon="-3.47824">
        <ele>-43</ele>
        <time>2015-10-26T13:16:09Z</time>
      </trkpt>
      <trkpt lat="48.73862" lon="-3.47839">
        <ele>-43</ele>
        <time>2015-10-26T13:16:11Z</time>
      </trkpt>
      <trkpt lat="48.73857" lon="-3.47854">
        <ele>-43</ele>
        <time>2015-10-26T13:16:13Z</time>
      </trkpt>
      <trkpt lat="48.73851" lon="-3.47869">
        <ele>-43</ele>
        <time>2015-10-26T13:16:15Z</time>
      </trkpt>
      <trkpt lat="48.73846" lon="-3.47884">
        <ele>-43</ele>
        <time>2015-10-26T13:16:17Z</time>
      </trkpt>
      <trkpt lat="48.7384" lon="-3.47898">
        <ele>-43</ele>
        <time>2015-10-26T13:16:19Z</time>
      </trkpt>
      <trkpt lat="48.73834" lon="-3.47912">
        <ele>-43</ele>
        <time>2015-10-26T13:16:21Z</time>
      </trkpt>
      <trkpt lat="48.73828" lon="-3.47926">
        <ele>-43</ele>
        <time>2015-10-26T13:16:23Z</time>
      </trkpt>
      <trkpt lat="48.73821" lon="-3.47939">
        <ele>-43</ele>
        <time>2015-10-26T13:16:25Z</time>
      </trkpt>
      <trkpt lat="48.73815" lon="-3.47953">
        <ele>-43</ele>
        <time>2015-10-26T13:16:27Z</time>
      </trkpt>
      <trkpt lat="48.73808" lon="-3.47966">
        <ele>-42</ele>
        <time>2015-10-26T13:16:29Z</time>
      </trkpt>
      <trkpt lat="48.73802" lon="-3.47979">
        <ele>-42</ele>
        <time>2015-10-26T13:16:31Z</time>
      </trkpt>
      <trkpt lat="48.73795" lon="-3.47993">
        <ele>-42</ele>
        <time>2015-10-26T13:16:33Z</time>
      </trkpt>
      <trkpt lat="48.73789" lon="-3.48006">
        <ele>-42</ele>
        <time>2015-10-26T13:16:35Z</time>
      </trkpt>
      <trkpt lat="48.73783" lon="-3.48019">
        <ele>-42</ele>
        <time>2015-10-26T13:16:37Z</time>
      </trkpt>
      <trkpt lat="48.73776" lon="-3.48032">
        <ele>-42</ele>
        <time>2015-10-26T13:16:39Z</time>
      </trkpt>
      <trkpt lat="48.7377" lon="-3.48044">
        <ele>-41</ele>
        <time>2015-10-26T13:16:41Z</time>
      </trkpt>
      <trkpt lat="48.73764" lon="-3.48057">
        <ele>-41</ele>
        <time>2015-10-26T13:16:43Z</time>
      </trkpt>
      <trkpt lat="48.73758" lon="-3.4807">
        <ele>-41</ele>
        <time>2015-10-26T13:16:45Z</time>
      </trkpt>
      <trkpt lat="48.73751" lon="-3.48083">
        <ele>-41</ele>
        <time>2015-10-26T13:16:47Z</time>
      </trkpt>
      <trkpt lat="48.73745" lon="-3.48096">
        <ele>-41</ele>
        <time>2015-10-26T13:16:49Z</time>
      </trkpt>
      <trkpt lat="48.73739" lon="-3.48109">
        <ele>-41</ele>
        <time>2015-10-26T13:16:51Z</time>
      </trkpt>
      <trkpt lat="48.73733" lon="-3.48123">
        <ele>-41</ele>
        <time>2015-10-26T13:16:53Z</time>
      </trkpt>
      <trkpt lat="48.73727" lon="-3.48136">
        <ele>-41</ele>
        <time>2015-10-26T13:16:55Z</time>
      </trkpt>
      <trkpt lat="48.7372" lon="-3.48149">
        <ele>-41</ele>
        <time>2015-10-26T13:16:57Z</time>
      </trkpt>
      <trkpt lat="48.73714" lon="-3.48162">
        <ele>-41</ele>
        <time>2015-10-26T13:16:59Z</time>
      </trkpt>
      <trkpt lat="48.73708" lon="-3.48174">
        <ele>-41</ele>
        <time>2015-10-26T13:17:01Z</time>
      </trkpt>
      <trkpt lat="48.73702" lon="-3.48187">
        <ele>-40</ele>
        <time>2015-10-26T13:17:03Z</time>
      </trkpt>
      <trkpt lat="48.73696" lon="-3.482">
        <ele>-40</ele>
        <time>2015-10-26T13:17:05Z</time>
      </trkpt>
      <trkpt lat="48.7369" lon="-3.48213">
        <ele>-40</ele>
        <time>2015-10-26T13:17:07Z</time>
      </trkpt>
      <trkpt lat="48.73684" lon="-3.48226">
        <ele>-40</ele>
        <time>2015-10-26T13:17:09Z</time>
      </trkpt>
      <trkpt lat="48.73678" lon="-3.48239">
        <ele>-40</ele>
        <time>2015-10-26T13:17:11Z</time>
      </trkpt>
      <trkpt lat="48.73671" lon="-3.48251">
        <ele>-40</ele>
        <time>2015-10-26T13:17:13Z</time>
      </trkpt>
      <trkpt lat="48.73663" lon="-3.4826">
        <ele>-40</ele>
        <time>2015-10-26T13:17:15Z</time>
      </trkpt>
      <trkpt lat="48.73655" lon="-3.48267">
        <ele>-40</ele>
        <time>2015-10-26T13:17:17Z</time>
      </trkpt>
      <trkpt lat="48.73641" lon="-3.48273">
        <ele>-39</ele>
        <time>2015-10-26T13:17:22Z</time>
      </trkpt>
      <trkpt lat="48.73625" lon="-3.48269">
        <ele>-39</ele>
        <time>2015-10-26T13:17:31Z</time>
      </trkpt>
      <trkpt lat="48.73616" lon="-3.48263">
        <ele>-39</ele>
        <time>2015-10-26T13:17:37Z</time>
      </trkpt>
      <trkpt lat="48.73605" lon="-3.48257">
        <ele>-39</ele>
        <time>2015-10-26T13:17:45Z</time>
      </trkpt>
      <trkpt lat="48.7359" lon="-3.48249">
        <ele>-39</ele>
        <time>2015-10-26T13:17:57Z</time>
      </trkpt>
      <trkpt lat="48.73581" lon="-3.48248">
        <ele>-38</ele>
        <time>2015-10-26T13:18:05Z</time>
      </trkpt>
      <trkpt lat="48.73567" lon="-3.48245">
        <ele>-38</ele>
        <time>2015-10-26T13:18:16Z</time>
      </trkpt>
      <trkpt lat="48.73556" lon="-3.48241">
        <ele>-37</ele>
        <time>2015-10-26T13:18:25Z</time>
      </trkpt>
      <trkpt lat="48.73547" lon="-3.48239">
        <ele>-36</ele>
        <time>2015-10-26T13:18:32Z</time>
      </trkpt>
      <trkpt lat="48.73538" lon="-3.48239">
        <ele>-34</ele>
        <time>2015-10-26T13:18:40Z</time>
      </trkpt>
      <trkpt lat="48.73533" lon="-3.48252">
        <ele>-33</ele>
        <time>2015-10-26T13:18:48Z</time>
      </trkpt>
      <trkpt lat="48.73531" lon="-3.48264">
        <ele>-32</ele>
        <time>2015-10-26T13:18:55Z</time>
      </trkpt>
      <trkpt lat="48.7353" lon="-3.48277">
        <ele>-31</ele>
        <time>2015-10-26T13:19:01Z</time>
      </trkpt>
      <trkpt lat="48.73527" lon="-3.48292">
        <ele>-30</ele>
        <time>2015-10-26T13:19:07Z</time>
      </trkpt>
      <trkpt lat="48.73525" lon="-3.48305">
        <ele>-29</ele>
        <time>2015-10-26T13:19:12Z</time>
      </trkpt>
      <trkpt lat="48.73524" lon="-3.48318">
        <ele>-28</ele>
        <time>2015-10-26T13:19:17Z</time>
      </trkpt>
      <trkpt lat="48.7352" lon="-3.48339">
        <ele>-27</ele>
        <time>2015-10-26T13:19:25Z</time>
      </trkpt>
      <trkpt lat="48.73517" lon="-3.48353">
        <ele>-27</ele>
        <time>2015-10-26T13:19:31Z</time>
      </trkpt>
      <trkpt lat="48.73513" lon="-3.48365">
        <ele>-26</ele>
        <time>2015-10-26T13:19:37Z</time>
      </trkpt>
      <trkpt lat="48.7351" lon="-3.48379">
        <ele>-25</ele>
        <time>2015-10-26T13:19:44Z</time>
      </trkpt>
      <trkpt lat="48.73506" lon="-3.48403">
        <ele>-25</ele>
        <time>2015-10-26T13:19:57Z</time>
      </trkpt>
      <trkpt lat="48.73503" lon="-3.48426">
        <ele>-25</ele>
        <time>2015-10-26T13:20:08Z</time>
      </trkpt>
      <trkpt lat="48.73499" lon="-3.4845">
        <ele>-24</ele>
        <time>2015-10-26T13:20:18Z</time>
      </trkpt>
      <trkpt lat="48.73494" lon="-3.48474">
        <ele>-24</ele>
        <time>2015-10-26T13:20:28Z</time>
      </trkpt>
      <trkpt lat="48.7349" lon="-3.48498">
        <ele>-23</ele>
        <time>2015-10-26T13:20:38Z</time>
      </trkpt>
      <trkpt lat="48.73488" lon="-3.48522">
        <ele>-22</ele>
        <time>2015-10-26T13:20:50Z</time>
      </trkpt>
      <trkpt lat="48.73486" lon="-3.48546">
        <ele>-21</ele>
        <time>2015-10-26T13:21:03Z</time>
      </trkpt>
      <trkpt lat="48.73488" lon="-3.4857">
        <ele>-18</ele>
        <time>2015-10-26T13:21:18Z</time>
      </trkpt>
      <trkpt lat="48.7349" lon="-3.48594">
        <ele>-17</ele>
        <time>2015-10-26T13:21:32Z</time>
      </trkpt>
      <trkpt lat="48.73492" lon="-3.48618">
        <ele>-14</ele>
        <time>2015-10-26T13:21:46Z</time>
      </trkpt>
      <trkpt lat="48.73496" lon="-3.48642">
        <ele>-12</ele>
        <time>2015-10-26T13:21:59Z</time>
      </trkpt>
      <trkpt lat="48.73495" lon="-3.48666">
        <ele>-10</ele>
        <time>2015-10-26T13:22:13Z</time>
      </trkpt>
      <trkpt lat="48.73493" lon="-3.48683">
        <ele>-8</ele>
        <time>2015-10-26T13:22:23Z</time>
      </trkpt>
      <trkpt lat="48.73491" lon="-3.48696">
        <ele>-6</ele>
        <time>2015-10-26T13:22:31Z</time>
      </trkpt>
      <trkpt lat="48.73485" lon="-3.48718">
        <ele>-4</ele>
        <time>2015-10-26T13:22:45Z</time>
      </trkpt>
      <trkpt lat="48.73482" lon="-3.48732">
        <ele>-3</ele>
        <time>2015-10-26T13:22:54Z</time>
      </trkpt>
      <trkpt lat="48.7348" lon="-3.48745">
        <ele>-1</ele>
        <time>2015-10-26T13:23:01Z</time>
      </trkpt>
      <trkpt lat="48.73476" lon="-3.48757">
        <ele>62.1</ele>
        <time>2015-10-26T13:23:08Z</time>
      </trkpt>
      <trkpt lat="48.73472" lon="-3.48768">
        <ele>1</ele>
        <time>2015-10-26T13:23:15Z</time>
      </trkpt>
      <trkpt lat="48.7346" lon="-3.48781">
        <ele>4</ele>
        <time>2015-10-26T13:23:29Z</time>
      </trkpt>
      <trkpt lat="48.73452" lon="-3.48782">
        <ele>6</ele>
        <time>2015-10-26T13:23:37Z</time>
      </trkpt>
      <trkpt lat="48.73443" lon="-3.48782">
        <ele>8</ele>
        <time>2015-10-26T13:23:44Z</time>
      </trkpt>
      <trkpt lat="48.73434" lon="-3.48781">
        <ele>9</ele>
        <time>2015-10-26T13:23:51Z</time>
      </trkpt>
      <trkpt lat="48.73425" lon="-3.48781">
        <ele>10</ele>
        <time>2015-10-26T13:23:57Z</time>
      </trkpt>
      <trkpt lat="48.73416" lon="-3.48783">
        <ele>10</ele>
        <time>2015-10-26T13:24:02Z</time>
      </trkpt>
      <trkpt lat="48.73406" lon="-3.48784">
        <ele>11</ele>
        <time>2015-10-26T13:24:07Z</time>
      </trkpt>
      <trkpt lat="48.73396" lon="-3.48785">
        <ele>12</ele>
        <time>2015-10-26T13:24:12Z</time>
      </trkpt>
      <trkpt lat="48.73386" lon="-3.48786">
        <ele>12</ele>
        <time>2015-10-26T13:24:17Z</time>
      </trkpt>
      <trkpt lat="48.73375" lon="-3.48786">
        <ele>13</ele>
        <time>2015-10-26T13:24:22Z</time>
      </trkpt>
      <trkpt lat="48.73365" lon="-3.48787">
        <ele>13</ele>
        <time>2015-10-26T13:24:27Z</time>
      </trkpt>
      <trkpt lat="48.73357" lon="-3.4879">
        <ele>14</ele>
        <time>2015-10-26T13:24:31Z</time>
      </trkpt>
      <trkpt lat="48.73349" lon="-3.48795">
        <ele>14</ele>
        <time>2015-10-26T13:24:35Z</time>
      </trkpt>
      <trkpt lat="48.7334" lon="-3.48803">
        <ele>15</ele>
        <time>2015-10-26T13:24:39Z</time>
      </trkpt>
      <trkpt lat="48.73333" lon="-3.48813">
        <ele>15</ele>
        <time>2015-10-26T13:24:43Z</time>
      </trkpt>
      <trkpt lat="48.73325" lon="-3.48825">
        <ele>16</ele>
        <time>2015-10-26T13:24:47Z</time>
      </trkpt>
      <trkpt lat="48.73321" lon="-3.48835">
        <ele>16</ele>
        <time>2015-10-26T13:24:50Z</time>
      </trkpt>
      <trkpt lat="48.73318" lon="-3.48848">
        <ele>16</ele>
        <time>2015-10-26T13:24:53Z</time>
      </trkpt>
      <trkpt lat="48.73315" lon="-3.48865">
        <ele>17</ele>
        <time>2015-10-26T13:24:56Z</time>
      </trkpt>
      <trkpt lat="48.73314" lon="-3.48879">
        <ele>17</ele>
        <time>2015-10-26T13:24:58Z</time>
      </trkpt>
      <trkpt lat="48.73311" lon="-3.48895">
        <ele>17</ele>
        <time>2015-10-26T13:25:00Z</time>
      </trkpt>
      <trkpt lat="48.73309" lon="-3.48911">
        <ele>17</ele>
        <time>2015-10-26T13:25:02Z</time>
      </trkpt>
      <trkpt lat="48.73307" lon="-3.48928">
        <ele>18</ele>
        <time>2015-10-26T13:25:04Z</time>
      </trkpt>
      <trkpt lat="48.73304" lon="-3.48944">
        <ele>18</ele>
        <time>2015-10-26T13:25:06Z</time>
      </trkpt>
      <trkpt lat="48.73301" lon="-3.48959">
        <ele>18</ele>
        <time>2015-10-26T13:25:08Z</time>
      </trkpt>
      <trkpt lat="48.73298" lon="-3.48975">
        <ele>18</ele>
        <time>2015-10-26T13:25:10Z</time>
      </trkpt>
      <trkpt lat="48.73295" lon="-3.48991">
        <ele>18</ele>
        <time>2015-10-26T13:25:12Z</time>
      </trkpt>
      <trkpt lat="48.73292" lon="-3.49006">
        <ele>19</ele>
        <time>2015-10-26T13:25:14Z</time>
      </trkpt>
      <trkpt lat="48.73289" lon="-3.49022">
        <ele>19</ele>
        <time>2015-10-26T13:25:16Z</time>
      </trkpt>
      <trkpt lat="48.73286" lon="-3.49038">
        <ele>19</ele>
        <time>2015-10-26T13:25:18Z</time>
      </trkpt>
      <trkpt lat="48.73283" lon="-3.49055">
        <ele>19</ele>
        <time>2015-10-26T13:25:20Z</time>
      </trkpt>
      <trkpt lat="48.73279" lon="-3.49071">
        <ele>19</ele>
        <time>2015-10-26T13:25:22Z</time>
      </trkpt>
      <trkpt lat="48.73274" lon="-3.49086">
        <ele>20</ele>
        <time>2015-10-26T13:25:24Z</time>
      </trkpt>
      <trkpt lat="48.73269" lon="-3.49104">
        <ele>20</ele>
        <time>2015-10-26T13:25:26Z</time>
      </trkpt>
      <trkpt lat="48.73264" lon="-3.49124">
        <ele>20</ele>
        <time>2015-10-26T13:25:28Z</time>
      </trkpt>
      <trkpt lat="48.73258" lon="-3.49156">
        <ele>20</ele>
        <time>2015-10-26T13:25:31Z</time>
      </trkpt>
      <trkpt lat="48.73253" lon="-3.49176">
        <ele>20</ele>
        <time>2015-10-26T13:25:33Z</time>
      </trkpt>
      <trkpt lat="48.73247" lon="-3.49204">
        <ele>20</ele>
        <time>2015-10-26T13:25:36Z</time>
      </trkpt>
      <trkpt lat="48.73242" lon="-3.49221">
        <ele>20</ele>
        <time>2015-10-26T13:25:38Z</time>
      </trkpt>
      <trkpt lat="48.73233" lon="-3.49246">
        <ele>20</ele>
        <time>2015-10-26T13:25:41Z</time>
      </trkpt>
      <trkpt lat="48.73225" lon="-3.49271">
        <ele>20</ele>
        <time>2015-10-26T13:25:44Z</time>
      </trkpt>
      <trkpt lat="48.7322" lon="-3.49287">
        <ele>20</ele>
        <time>2015-10-26T13:25:46Z</time>
      </trkpt>
      <trkpt lat="48.73214" lon="-3.49302">
        <ele>20</ele>
        <time>2015-10-26T13:25:48Z</time>
      </trkpt>
      <trkpt lat="48.73207" lon="-3.49317">
        <ele>20</ele>
        <time>2015-10-26T13:25:50Z</time>
      </trkpt>
      <trkpt lat="48.73197" lon="-3.49337">
        <ele>21</ele>
        <time>2015-10-26T13:25:53Z</time>
      </trkpt>
      <trkpt lat="48.7319" lon="-3.49349">
        <ele>21</ele>
        <time>2015-10-26T13:25:55Z</time>
      </trkpt>
      <trkpt lat="48.73184" lon="-3.49362">
        <ele>21</ele>
        <time>2015-10-26T13:25:57Z</time>
      </trkpt>
      <trkpt lat="48.73175" lon="-3.49383">
        <ele>21</ele>
        <time>2015-10-26T13:26:00Z</time>
      </trkpt>
      <trkpt lat="48.73169" lon="-3.49398">
        <ele>20</ele>
        <time>2015-10-26T13:26:02Z</time>
      </trkpt>
      <trkpt lat="48.7316" lon="-3.49416">
        <ele>20</ele>
        <time>2015-10-26T13:26:04Z</time>
      </trkpt>
      <trkpt lat="48.73152" lon="-3.49436">
        <ele>20</ele>
        <time>2015-10-26T13:26:06Z</time>
      </trkpt>
      <trkpt lat="48.73143" lon="-3.49462">
        <ele>20</ele>
        <time>2015-10-26T13:26:09Z</time>
      </trkpt>
      <trkpt lat="48.73133" lon="-3.49486">
        <ele>20</ele>
        <time>2015-10-26T13:26:12Z</time>
      </trkpt>
      <trkpt lat="48.73117" lon="-3.495">
        <ele>20</ele>
        <time>2015-10-26T13:26:15Z</time>
      </trkpt>
      <trkpt lat="48.73103" lon="-3.49513">
        <ele>20</ele>
        <time>2015-10-26T13:26:18Z</time>
      </trkpt>
      <trkpt lat="48.73094" lon="-3.49535">
        <ele>20</ele>
        <time>2015-10-26T13:26:21Z</time>
      </trkpt>
      <trkpt lat="48.7309" lon="-3.49552">
        <ele>19</ele>
        <time>2015-10-26T13:26:23Z</time>
      </trkpt>
      <trkpt lat="48.73087" lon="-3.4957">
        <ele>19</ele>
        <time>2015-10-26T13:26:25Z</time>
      </trkpt>
      <trkpt lat="48.73084" lon="-3.49586">
        <ele>19</ele>
        <time>2015-10-26T13:26:27Z</time>
      </trkpt>
      <trkpt lat="48.7308" lon="-3.4961">
        <ele>19</ele>
        <time>2015-10-26T13:26:31Z</time>
      </trkpt>
      <trkpt lat="48.73073" lon="-3.49632">
        <ele>19</ele>
        <time>2015-10-26T13:26:37Z</time>
      </trkpt>
      <trkpt lat="48.73069" lon="-3.49644">
        <ele>18</ele>
        <time>2015-10-26T13:26:41Z</time>
      </trkpt>
      <trkpt lat="48.73064" lon="-3.49658">
        <ele>18</ele>
        <time>2015-10-26T13:26:46Z</time>
      </trkpt>
      <trkpt lat="48.73059" lon="-3.4967">
        <ele>18</ele>
        <time>2015-10-26T13:26:51Z</time>
      </trkpt>
      <trkpt lat="48.73054" lon="-3.49681">
        <ele>17</ele>
        <time>2015-10-26T13:26:56Z</time>
      </trkpt>
      <trkpt lat="48.73048" lon="-3.49692">
        <ele>18</ele>
        <time>2015-10-26T13:27:01Z</time>
      </trkpt>
      <trkpt lat="48.73038" lon="-3.49714">
        <ele>18</ele>
        <time>2015-10-26T13:27:10Z</time>
      </trkpt>
      <trkpt lat="48.73033" lon="-3.49725">
        <ele>18</ele>
        <time>2015-10-26T13:27:15Z</time>
      </trkpt>
      <trkpt lat="48.73026" lon="-3.49739">
        <ele>18</ele>
        <time>2015-10-26T13:27:21Z</time>
      </trkpt>
      <trkpt lat="48.7302" lon="-3.49751">
        <ele>18</ele>
        <time>2015-10-26T13:27:26Z</time>
      </trkpt>
      <trkpt lat="48.73014" lon="-3.49763">
        <ele>18</ele>
        <time>2015-10-26T13:27:31Z</time>
      </trkpt>
      <trkpt lat="48.73009" lon="-3.49775">
        <ele>19</ele>
        <time>2015-10-26T13:27:36Z</time>
      </trkpt>
      <trkpt lat="48.73005" lon="-3.49787">
        <ele>19</ele>
        <time>2015-10-26T13:27:40Z</time>
      </trkpt>
      <trkpt lat="48.73002" lon="-3.49801">
        <ele>19</ele>
        <time>2015-10-26T13:27:44Z</time>
      </trkpt>
      <trkpt lat="48.72999" lon="-3.49814">
        <ele>20</ele>
        <time>2015-10-26T13:27:48Z</time>
      </trkpt>
      <trkpt lat="48.72995" lon="-3.49833">
        <ele>20</ele>
        <time>2015-10-26T13:27:53Z</time>
      </trkpt>
      <trkpt lat="48.72991" lon="-3.49848">
        <ele>20</ele>
        <time>2015-10-26T13:27:57Z</time>
      </trkpt>
      <trkpt lat="48.72987" lon="-3.49863">
        <ele>20</ele>
        <time>2015-10-26T13:28:01Z</time>
      </trkpt>
      <trkpt lat="48.72984" lon="-3.49874">
        <ele>21</ele>
        <time>2015-10-26T13:28:04Z</time>
      </trkpt>
      <trkpt lat="48.72978" lon="-3.49883">
        <ele>21</ele>
        <time>2015-10-26T13:28:07Z</time>
      </trkpt>
      <trkpt lat="48.72961" lon="-3.49885">
        <ele>21</ele>
        <time>2015-10-26T13:28:13Z</time>
      </trkpt>
      <trkpt lat="48.72953" lon="-3.49881">
        <ele>21</ele>
        <time>2015-10-26T13:28:16Z</time>
      </trkpt>
      <trkpt lat="48.72945" lon="-3.49877">
        <ele>21</ele>
        <time>2015-10-26T13:28:19Z</time>
      </trkpt>
      <trkpt lat="48.72935" lon="-3.4987">
        <ele>22</ele>
        <time>2015-10-26T13:28:23Z</time>
      </trkpt>
      <trkpt lat="48.72927" lon="-3.49864">
        <ele>22</ele>
        <time>2015-10-26T13:28:27Z</time>
      </trkpt>
      <trkpt lat="48.7291" lon="-3.49855">
        <ele>22</ele>
        <time>2015-10-26T13:28:34Z</time>
      </trkpt>
      <trkpt lat="48.72901" lon="-3.49849">
        <ele>22</ele>
        <time>2015-10-26T13:28:38Z</time>
      </trkpt>
      <trkpt lat="48.72892" lon="-3.49843">
        <ele>22</ele>
        <time>2015-10-26T13:28:42Z</time>
      </trkpt>
      <trkpt lat="48.72883" lon="-3.49837">
        <ele>23</ele>
        <time>2015-10-26T13:28:46Z</time>
      </trkpt>
      <trkpt lat="48.72867" lon="-3.49826">
        <ele>23</ele>
        <time>2015-10-26T13:28:53Z</time>
      </trkpt>
      <trkpt lat="48.72851" lon="-3.49816">
        <ele>23</ele>
        <time>2015-10-26T13:29:00Z</time>
      </trkpt>
      <trkpt lat="48.72836" lon="-3.49809">
        <ele>24</ele>
        <time>2015-10-26T13:29:06Z</time>
      </trkpt>
      <trkpt lat="48.72826" lon="-3.49804">
        <ele>24</ele>
        <time>2015-10-26T13:29:10Z</time>
      </trkpt>
      <trkpt lat="48.72812" lon="-3.49799">
        <ele>24</ele>
        <time>2015-10-26T13:29:16Z</time>
      </trkpt>
      <trkpt lat="48.72803" lon="-3.49795">
        <ele>24</ele>
        <time>2015-10-26T13:29:20Z</time>
      </trkpt>
      <trkpt lat="48.72794" lon="-3.49792">
        <ele>24</ele>
        <time>2015-10-26T13:29:24Z</time>
      </trkpt>
      <trkpt lat="48.72782" lon="-3.49788">
        <ele>25</ele>
        <time>2015-10-26T13:29:30Z</time>
      </trkpt>
      <trkpt lat="48.72772" lon="-3.49785">
        <ele>25</ele>
        <time>2015-10-26T13:29:35Z</time>
      </trkpt>
      <trkpt lat="48.72764" lon="-3.49784">
        <ele>26</ele>
        <time>2015-10-26T13:29:39Z</time>
      </trkpt>
      <trkpt lat="48.72754" lon="-3.49784">
        <ele>27</ele>
        <time>2015-10-26T13:29:44Z</time>
      </trkpt>
      <trkpt lat="48.72746" lon="-3.49786">
        <ele>27</ele>
        <time>2015-10-26T13:29:48Z</time>
      </trkpt>
      <trkpt lat="48.72737" lon="-3.49788">
        <ele>28</ele>
        <time>2015-10-26T13:29:52Z</time>
      </trkpt>
      <trkpt lat="48.72727" lon="-3.4979">
        <ele>29</ele>
        <time>2015-10-26T13:29:56Z</time>
      </trkpt>
      <trkpt lat="48.72718" lon="-3.49792">
        <ele>29</ele>
        <time>2015-10-26T13:30:00Z</time>
      </trkpt>
      <trkpt lat="48.72708" lon="-3.49792">
        <ele>30</ele>
        <time>2015-10-26T13:30:04Z</time>
      </trkpt>
      <trkpt lat="48.72699" lon="-3.49789">
        <ele>30</ele>
        <time>2015-10-26T13:30:08Z</time>
      </trkpt>
      <trkpt lat="48.72689" lon="-3.49786">
        <ele>30</ele>
        <time>2015-10-26T13:30:12Z</time>
      </trkpt>
      <trkpt lat="48.72681" lon="-3.49783">
        <ele>31</ele>
        <time>2015-10-26T13:30:16Z</time>
      </trkpt>
      <trkpt lat="48.72673" lon="-3.49779">
        <ele>31</ele>
        <time>2015-10-26T13:30:20Z</time>
      </trkpt>
      <trkpt lat="48.72665" lon="-3.49777">
        <ele>32</ele>
        <time>2015-10-26T13:30:24Z</time>
      </trkpt>
      <trkpt lat="48.72656" lon="-3.49775">
        <ele>32</ele>
        <time>2015-10-26T13:30:28Z</time>
      </trkpt>
      <trkpt lat="48.72647" lon="-3.49774">
        <ele>32</ele>
        <time>2015-10-26T13:30:32Z</time>
      </trkpt>
      <trkpt lat="48.72638" lon="-3.49773">
        <ele>33</ele>
        <time>2015-10-26T13:30:36Z</time>
      </trkpt>
      <trkpt lat="48.72625" lon="-3.49773">
        <ele>33</ele>
        <time>2015-10-26T13:30:42Z</time>
      </trkpt>
      <trkpt lat="48.72616" lon="-3.49774">
        <ele>34</ele>
        <time>2015-10-26T13:30:46Z</time>
      </trkpt>
      <trkpt lat="48.72607" lon="-3.49777">
        <ele>34</ele>
        <time>2015-10-26T13:30:50Z</time>
      </trkpt>
      <trkpt lat="48.72598" lon="-3.49779">
        <ele>35</ele>
        <time>2015-10-26T13:30:54Z</time>
      </trkpt>
      <trkpt lat="48.72589" lon="-3.49781">
        <ele>35</ele>
        <time>2015-10-26T13:30:58Z</time>
      </trkpt>
      <trkpt lat="48.7258" lon="-3.49781">
        <ele>36</ele>
        <time>2015-10-26T13:31:02Z</time>
      </trkpt>
      <trkpt lat="48.72571" lon="-3.49781">
        <ele>36</ele>
        <time>2015-10-26T13:31:06Z</time>
      </trkpt>
      <trkpt lat="48.72562" lon="-3.4978">
        <ele>37</ele>
        <time>2015-10-26T13:31:10Z</time>
      </trkpt>
      <trkpt lat="48.72546" lon="-3.49778">
        <ele>37</ele>
        <time>2015-10-26T13:31:17Z</time>
      </trkpt>
      <trkpt lat="48.72537" lon="-3.49776">
        <ele>38</ele>
        <time>2015-10-26T13:31:21Z</time>
      </trkpt>
      <trkpt lat="48.72528" lon="-3.49776">
        <ele>38</ele>
        <time>2015-10-26T13:31:25Z</time>
      </trkpt>
      <trkpt lat="48.72519" lon="-3.49775">
        <ele>38</ele>
        <time>2015-10-26T13:31:29Z</time>
      </trkpt>
      <trkpt lat="48.72511" lon="-3.49774">
        <ele>38</ele>
        <time>2015-10-26T13:31:33Z</time>
      </trkpt>
      <trkpt lat="48.72498" lon="-3.49772">
        <ele>39</ele>
        <time>2015-10-26T13:31:39Z</time>
      </trkpt>
      <trkpt lat="48.72487" lon="-3.4977">
        <ele>39</ele>
        <time>2015-10-26T13:31:44Z</time>
      </trkpt>
      <trkpt lat="48.72477" lon="-3.49768">
        <ele>39</ele>
        <time>2015-10-26T13:31:48Z</time>
      </trkpt>
      <trkpt lat="48.72467" lon="-3.49766">
        <ele>40</ele>
        <time>2015-10-26T13:31:52Z</time>
      </trkpt>
      <trkpt lat="48.72457" lon="-3.49764">
        <ele>40</ele>
        <time>2015-10-26T13:31:56Z</time>
      </trkpt>
      <trkpt lat="48.7244" lon="-3.49762">
        <ele>40</ele>
        <time>2015-10-26T13:32:03Z</time>
      </trkpt>
      <trkpt lat="48.7243" lon="-3.49761">
        <ele>40</ele>
        <time>2015-10-26T13:32:07Z</time>
      </trkpt>
      <trkpt lat="48.72418" lon="-3.4976">
        <ele>41</ele>
        <time>2015-10-26T13:32:11Z</time>
      </trkpt>
      <trkpt lat="48.7241" lon="-3.4976">
        <ele>41</ele>
        <time>2015-10-26T13:32:14Z</time>
      </trkpt>
      <trkpt lat="48.72399" lon="-3.49762">
        <ele>41</ele>
        <time>2015-10-26T13:32:18Z</time>
      </trkpt>
      <trkpt lat="48.72389" lon="-3.49766">
        <ele>41</ele>
        <time>2015-10-26T13:32:22Z</time>
      </trkpt>
      <trkpt lat="48.72373" lon="-3.49776">
        <ele>42</ele>
        <time>2015-10-26T13:32:28Z</time>
      </trkpt>
      <trkpt lat="48.72364" lon="-3.49787">
        <ele>42</ele>
        <time>2015-10-26T13:32:32Z</time>
      </trkpt>
      <trkpt lat="48.72358" lon="-3.49797">
        <ele>42</ele>
        <time>2015-10-26T13:32:35Z</time>
      </trkpt>
      <trkpt lat="48.72351" lon="-3.49808">
        <ele>42</ele>
        <time>2015-10-26T13:32:38Z</time>
      </trkpt>
      <trkpt lat="48.72345" lon="-3.49819">
        <ele>42</ele>
        <time>2015-10-26T13:32:41Z</time>
      </trkpt>
      <trkpt lat="48.72337" lon="-3.49833">
        <ele>43</ele>
        <time>2015-10-26T13:32:45Z</time>
      </trkpt>
      <trkpt lat="48.7233" lon="-3.49843">
        <ele>43</ele>
        <time>2015-10-26T13:32:48Z</time>
      </trkpt>
      <trkpt lat="48.72323" lon="-3.49854">
        <ele>43</ele>
        <time>2015-10-26T13:32:51Z</time>
      </trkpt>
      <trkpt lat="48.72312" lon="-3.49867">
        <ele>43</ele>
        <time>2015-10-26T13:32:55Z</time>
      </trkpt>
      <trkpt lat="48.72303" lon="-3.49873">
        <ele>43</ele>
        <time>2015-10-26T13:32:58Z</time>
      </trkpt>
      <trkpt lat="48.72292" lon="-3.49874">
        <ele>43</ele>
        <time>2015-10-26T13:33:01Z</time>
      </trkpt>
      <trkpt lat="48.72281" lon="-3.49873">
        <ele>44</ele>
        <time>2015-10-26T13:33:04Z</time>
      </trkpt>
      <trkpt lat="48.72271" lon="-3.49871">
        <ele>44</ele>
        <time>2015-10-26T13:33:07Z</time>
      </trkpt>
      <trkpt lat="48.7226" lon="-3.49869">
        <ele>44</ele>
        <time>2015-10-26T13:33:10Z</time>
      </trkpt>
      <trkpt lat="48.72249" lon="-3.49867">
        <ele>44</ele>
        <time>2015-10-26T13:33:13Z</time>
      </trkpt>
      <trkpt lat="48.72238" lon="-3.49866">
        <ele>44</ele>
        <time>2015-10-26T13:33:16Z</time>
      </trkpt>
      <trkpt lat="48.72228" lon="-3.49865">
        <ele>44</ele>
        <time>2015-10-26T13:33:19Z</time>
      </trkpt>
      <trkpt lat="48.7221" lon="-3.49866">
        <ele>44</ele>
        <time>2015-10-26T13:33:24Z</time>
      </trkpt>
      <trkpt lat="48.722" lon="-3.49866">
        <ele>45</ele>
        <time>2015-10-26T13:33:27Z</time>
      </trkpt>
      <trkpt lat="48.7219" lon="-3.49867">
        <ele>45</ele>
        <time>2015-10-26T13:33:30Z</time>
      </trkpt>
      <trkpt lat="48.72181" lon="-3.49869">
        <ele>45</ele>
        <time>2015-10-26T13:33:33Z</time>
      </trkpt>
      <trkpt lat="48.72168" lon="-3.49878">
        <ele>45</ele>
        <time>2015-10-26T13:33:37Z</time>
      </trkpt>
      <trkpt lat="48.72159" lon="-3.49887">
        <ele>45</ele>
        <time>2015-10-26T13:33:40Z</time>
      </trkpt>
      <trkpt lat="48.72151" lon="-3.49898">
        <ele>46</ele>
        <time>2015-10-26T13:33:43Z</time>
      </trkpt>
      <trkpt lat="48.72142" lon="-3.49911">
        <ele>46</ele>
        <time>2015-10-26T13:33:46Z</time>
      </trkpt>
      <trkpt lat="48.72136" lon="-3.4992">
        <ele>46</ele>
        <time>2015-10-26T13:33:48Z</time>
      </trkpt>
      <trkpt lat="48.7213" lon="-3.49929">
        <ele>46</ele>
        <time>2015-10-26T13:33:50Z</time>
      </trkpt>
      <trkpt lat="48.72125" lon="-3.4994">
        <ele>47</ele>
        <time>2015-10-26T13:33:52Z</time>
      </trkpt>
      <trkpt lat="48.72119" lon="-3.4995">
        <ele>47</ele>
        <time>2015-10-26T13:33:54Z</time>
      </trkpt>
      <trkpt lat="48.72114" lon="-3.49961">
        <ele>47</ele>
        <time>2015-10-26T13:33:56Z</time>
      </trkpt>
      <trkpt lat="48.72108" lon="-3.49971">
        <ele>47</ele>
        <time>2015-10-26T13:33:58Z</time>
      </trkpt>
      <trkpt lat="48.72103" lon="-3.49982">
        <ele>47</ele>
        <time>2015-10-26T13:34:00Z</time>
      </trkpt>
      <trkpt lat="48.72098" lon="-3.49993">
        <ele>48</ele>
        <time>2015-10-26T13:34:02Z</time>
      </trkpt>
      <trkpt lat="48.72092" lon="-3.50003">
        <ele>48</ele>
        <time>2015-10-26T13:34:04Z</time>
      </trkpt>
      <trkpt lat="48.72086" lon="-3.50013">
        <ele>48</ele>
        <time>2015-10-26T13:34:06Z</time>
      </trkpt>
      <trkpt lat="48.72081" lon="-3.50024">
        <ele>48</ele>
        <time>2015-10-26T13:34:08Z</time>
      </trkpt>
      <trkpt lat="48.72074" lon="-3.50034">
        <ele>48</ele>
        <time>2015-10-26T13:34:10Z</time>
      </trkpt>
      <trkpt lat="48.72068" lon="-3.50044">
        <ele>49</ele>
        <time>2015-10-26T13:34:12Z</time>
      </trkpt>
      <trkpt lat="48.72061" lon="-3.50054">
        <ele>49</ele>
        <time>2015-10-26T13:34:14Z</time>
      </trkpt>
      <trkpt lat="48.72054" lon="-3.50064">
        <ele>49</ele>
        <time>2015-10-26T13:34:16Z</time>
      </trkpt>
      <trkpt lat="48.72046" lon="-3.50074">
        <ele>49</ele>
        <time>2015-10-26T13:34:18Z</time>
      </trkpt>
      <trkpt lat="48.72038" lon="-3.50085">
        <ele>49</ele>
        <time>2015-10-26T13:34:20Z</time>
      </trkpt>
      <trkpt lat="48.72031" lon="-3.50095">
        <ele>50</ele>
        <time>2015-10-26T13:34:22Z</time>
      </trkpt>
      <trkpt lat="48.72023" lon="-3.50105">
        <ele>50</ele>
        <time>2015-10-26T13:34:24Z</time>
      </trkpt>
      <trkpt lat="48.72016" lon="-3.50115">
        <ele>50</ele>
        <time>2015-10-26T13:34:26Z</time>
      </trkpt>
      <trkpt lat="48.72008" lon="-3.50126">
        <ele>50</ele>
        <time>2015-10-26T13:34:28Z</time>
      </trkpt>
      <trkpt lat="48.72" lon="-3.50135">
        <ele>50</ele>
        <time>2015-10-26T13:34:30Z</time>
      </trkpt>
      <trkpt lat="48.71992" lon="-3.50144">
        <ele>50</ele>
        <time>2015-10-26T13:34:32Z</time>
      </trkpt>
      <trkpt lat="48.71983" lon="-3.50152">
        <ele>51</ele>
        <time>2015-10-26T13:34:34Z</time>
      </trkpt>
      <trkpt lat="48.7197" lon="-3.50164">
        <ele>51</ele>
        <time>2015-10-26T13:34:37Z</time>
      </trkpt>
      <trkpt lat="48.7196" lon="-3.5017">
        <ele>51</ele>
        <time>2015-10-26T13:34:39Z</time>
      </trkpt>
      <trkpt lat="48.71952" lon="-3.50178">
        <ele>51</ele>
        <time>2015-10-26T13:34:41Z</time>
      </trkpt>
      <trkpt lat="48.71943" lon="-3.50187">
        <ele>51</ele>
        <time>2015-10-26T13:34:43Z</time>
      </trkpt>
      <trkpt lat="48.71935" lon="-3.50195">
        <ele>51</ele>
        <time>2015-10-26T13:34:45Z</time>
      </trkpt>
      <trkpt lat="48.71927" lon="-3.50204">
        <ele>51</ele>
        <time>2015-10-26T13:34:47Z</time>
      </trkpt>
      <trkpt lat="48.71918" lon="-3.50212">
        <ele>51</ele>
        <time>2015-10-26T13:34:49Z</time>
      </trkpt>
      <trkpt lat="48.7191" lon="-3.5022">
        <ele>52</ele>
        <time>2015-10-26T13:34:51Z</time>
      </trkpt>
      <trkpt lat="48.71902" lon="-3.50228">
        <ele>52</ele>
        <time>2015-10-26T13:34:53Z</time>
      </trkpt>
      <trkpt lat="48.71895" lon="-3.50238">
        <ele>52</ele>
        <time>2015-10-26T13:34:55Z</time>
      </trkpt>
      <trkpt lat="48.71893" lon="-3.50252">
        <ele>52</ele>
        <time>2015-10-26T13:34:57Z</time>
      </trkpt>
      <trkpt lat="48.71893" lon="-3.50267">
        <ele>52</ele>
        <time>2015-10-26T13:34:59Z</time>
      </trkpt>
      <trkpt lat="48.7189" lon="-3.50297">
        <ele>52</ele>
        <time>2015-10-26T13:35:03Z</time>
      </trkpt>
      <trkpt lat="48.71888" lon="-3.50314">
        <ele>52</ele>
        <time>2015-10-26T13:35:05Z</time>
      </trkpt>
      <trkpt lat="48.71884" lon="-3.50338">
        <ele>52</ele>
        <time>2015-10-26T13:35:08Z</time>
      </trkpt>
      <trkpt lat="48.71882" lon="-3.50362">
        <ele>51</ele>
        <time>2015-10-26T13:35:11Z</time>
      </trkpt>
      <trkpt lat="48.71879" lon="-3.50386">
        <ele>51</ele>
        <time>2015-10-26T13:35:14Z</time>
      </trkpt>
      <trkpt lat="48.71878" lon="-3.50402">
        <ele>51</ele>
        <time>2015-10-26T13:35:16Z</time>
      </trkpt>
      <trkpt lat="48.71875" lon="-3.50428">
        <ele>51</ele>
        <time>2015-10-26T13:35:20Z</time>
      </trkpt>
      <trkpt lat="48.71875" lon="-3.50441">
        <ele>51</ele>
        <time>2015-10-26T13:35:24Z</time>
      </trkpt>
      <trkpt lat="48.7187" lon="-3.50456">
        <ele>51</ele>
        <time>2015-10-26T13:35:27Z</time>
      </trkpt>
      <trkpt lat="48.71866" lon="-3.50466">
        <ele>51</ele>
        <time>2015-10-26T13:35:29Z</time>
      </trkpt>
      <trkpt lat="48.7186" lon="-3.50477">
        <ele>51</ele>
        <time>2015-10-26T13:35:31Z</time>
      </trkpt>
      <trkpt lat="48.71853" lon="-3.50488">
        <ele>51</ele>
        <time>2015-10-26T13:35:33Z</time>
      </trkpt>
      <trkpt lat="48.71846" lon="-3.50499">
        <ele>51</ele>
        <time>2015-10-26T13:35:35Z</time>
      </trkpt>
      <trkpt lat="48.71838" lon="-3.5051">
        <ele>51</ele>
        <time>2015-10-26T13:35:37Z</time>
      </trkpt>
      <trkpt lat="48.71826" lon="-3.50531">
        <ele>51</ele>
        <time>2015-10-26T13:35:40Z</time>
      </trkpt>
      <trkpt lat="48.71818" lon="-3.50546">
        <ele>51</ele>
        <time>2015-10-26T13:35:42Z</time>
      </trkpt>
      <trkpt lat="48.71813" lon="-3.50563">
        <ele>51</ele>
        <time>2015-10-26T13:35:44Z</time>
      </trkpt>
      <trkpt lat="48.71806" lon="-3.5059">
        <ele>51</ele>
        <time>2015-10-26T13:35:47Z</time>
      </trkpt>
      <trkpt lat="48.71802" lon="-3.50608">
        <ele>51</ele>
        <time>2015-10-26T13:35:49Z</time>
      </trkpt>
      <trkpt lat="48.71797" lon="-3.50626">
        <ele>51</ele>
        <time>2015-10-26T13:35:51Z</time>
      </trkpt>
      <trkpt lat="48.71792" lon="-3.50655">
        <ele>51</ele>
        <time>2015-10-26T13:35:54Z</time>
      </trkpt>
      <trkpt lat="48.71789" lon="-3.50674">
        <ele>51</ele>
        <time>2015-10-26T13:35:56Z</time>
      </trkpt>
      <trkpt lat="48.71784" lon="-3.50694">
        <ele>51</ele>
        <time>2015-10-26T13:35:58Z</time>
      </trkpt>
      <trkpt lat="48.71779" lon="-3.50712">
        <ele>51</ele>
        <time>2015-10-26T13:36:00Z</time>
      </trkpt>
      <trkpt lat="48.71774" lon="-3.50731">
        <ele>51</ele>
        <time>2015-10-26T13:36:02Z</time>
      </trkpt>
      <trkpt lat="48.71767" lon="-3.50761">
        <ele>51</ele>
        <time>2015-10-26T13:36:05Z</time>
      </trkpt>
      <trkpt lat="48.71762" lon="-3.50792">
        <ele>51</ele>
        <time>2015-10-26T13:36:08Z</time>
      </trkpt>
      <trkpt lat="48.7176" lon="-3.50822">
        <ele>51</ele>
        <time>2015-10-26T13:36:11Z</time>
      </trkpt>
      <trkpt lat="48.71758" lon="-3.5084">
        <ele>51</ele>
        <time>2015-10-26T13:36:13Z</time>
      </trkpt>
      <trkpt lat="48.71756" lon="-3.50867">
        <ele>50</ele>
        <time>2015-10-26T13:36:16Z</time>
      </trkpt>
      <trkpt lat="48.71756" lon="-3.50892">
        <ele>50</ele>
        <time>2015-10-26T13:36:19Z</time>
      </trkpt>
      <trkpt lat="48.71756" lon="-3.50909">
        <ele>50</ele>
        <time>2015-10-26T13:36:21Z</time>
      </trkpt>
      <trkpt lat="48.7176" lon="-3.50939">
        <ele>50</ele>
        <time>2015-10-26T13:36:24Z</time>
      </trkpt>
      <trkpt lat="48.71764" lon="-3.50971">
        <ele>49</ele>
        <time>2015-10-26T13:36:27Z</time>
      </trkpt>
      <trkpt lat="48.71764" lon="-3.51002">
        <ele>49</ele>
        <time>2015-10-26T13:36:30Z</time>
      </trkpt>
      <trkpt lat="48.71764" lon="-3.51033">
        <ele>49</ele>
        <time>2015-10-26T13:36:33Z</time>
      </trkpt>
      <trkpt lat="48.71761" lon="-3.51064">
        <ele>48</ele>
        <time>2015-10-26T13:36:36Z</time>
      </trkpt>
      <trkpt lat="48.71756" lon="-3.51097">
        <ele>48</ele>
        <time>2015-10-26T13:36:39Z</time>
      </trkpt>
      <trkpt lat="48.71748" lon="-3.51129">
        <ele>47</ele>
        <time>2015-10-26T13:36:42Z</time>
      </trkpt>
      <trkpt lat="48.71739" lon="-3.51171">
        <ele>47</ele>
        <time>2015-10-26T13:36:46Z</time>
      </trkpt>
      <trkpt lat="48.71733" lon="-3.51201">
        <ele>47</ele>
        <time>2015-10-26T13:36:49Z</time>
      </trkpt>
      <trkpt lat="48.7173" lon="-3.5123">
        <ele>46</ele>
        <time>2015-10-26T13:36:52Z</time>
      </trkpt>
      <trkpt lat="48.71728" lon="-3.5126">
        <ele>45</ele>
        <time>2015-10-26T13:36:55Z</time>
      </trkpt>
      <trkpt lat="48.71728" lon="-3.5128">
        <ele>45</ele>
        <time>2015-10-26T13:36:57Z</time>
      </trkpt>
      <trkpt lat="48.71727" lon="-3.513">
        <ele>45</ele>
        <time>2015-10-26T13:36:59Z</time>
      </trkpt>
      <trkpt lat="48.71726" lon="-3.51319">
        <ele>44</ele>
        <time>2015-10-26T13:37:01Z</time>
      </trkpt>
      <trkpt lat="48.71724" lon="-3.51337">
        <ele>44</ele>
        <time>2015-10-26T13:37:03Z</time>
      </trkpt>
      <trkpt lat="48.71722" lon="-3.51356">
        <ele>43</ele>
        <time>2015-10-26T13:37:05Z</time>
      </trkpt>
      <trkpt lat="48.7172" lon="-3.51374">
        <ele>43</ele>
        <time>2015-10-26T13:37:07Z</time>
      </trkpt>
      <trkpt lat="48.71719" lon="-3.5139">
        <ele>43</ele>
        <time>2015-10-26T13:37:09Z</time>
      </trkpt>
      <trkpt lat="48.7172" lon="-3.51419">
        <ele>42</ele>
        <time>2015-10-26T13:37:13Z</time>
      </trkpt>
      <trkpt lat="48.7172" lon="-3.51443">
        <ele>42</ele>
        <time>2015-10-26T13:37:16Z</time>
      </trkpt>
      <trkpt lat="48.71719" lon="-3.51463">
        <ele>41</ele>
        <time>2015-10-26T13:37:18Z</time>
      </trkpt>
      <trkpt lat="48.71715" lon="-3.51495">
        <ele>41</ele>
        <time>2015-10-26T13:37:21Z</time>
      </trkpt>
      <trkpt lat="48.7171" lon="-3.51529">
        <ele>41</ele>
        <time>2015-10-26T13:37:24Z</time>
      </trkpt>
      <trkpt lat="48.71707" lon="-3.51551">
        <ele>40</ele>
        <time>2015-10-26T13:37:26Z</time>
      </trkpt>
      <trkpt lat="48.71703" lon="-3.51583">
        <ele>40</ele>
        <time>2015-10-26T13:37:29Z</time>
      </trkpt>
      <trkpt lat="48.71699" lon="-3.51614">
        <ele>40</ele>
        <time>2015-10-26T13:37:32Z</time>
      </trkpt>
      <trkpt lat="48.71694" lon="-3.51645">
        <ele>39</ele>
        <time>2015-10-26T13:37:35Z</time>
      </trkpt>
      <trkpt lat="48.71691" lon="-3.51669">
        <ele>39</ele>
        <time>2015-10-26T13:37:37Z</time>
      </trkpt>
      <trkpt lat="48.71667" lon="-3.51779">
        <ele>38</ele>
        <time>2015-10-26T13:37:45Z</time>
      </trkpt>
      <trkpt lat="48.71664" lon="-3.51795">
        <ele>38</ele>
        <time>2015-10-26T13:37:46Z</time>
      </trkpt>
      <trkpt lat="48.7166" lon="-3.51824">
        <ele>38</ele>
        <time>2015-10-26T13:37:48Z</time>
      </trkpt>
      <trkpt lat="48.71656" lon="-3.51851">
        <ele>37</ele>
        <time>2015-10-26T13:37:50Z</time>
      </trkpt>
      <trkpt lat="48.7165" lon="-3.51891">
        <ele>36</ele>
        <time>2015-10-26T13:37:54Z</time>
      </trkpt>
      <trkpt lat="48.71645" lon="-3.51931">
        <ele>35</ele>
        <time>2015-10-26T13:38:01Z</time>
      </trkpt>
      <trkpt lat="48.71643" lon="-3.51955">
        <ele>33</ele>
        <time>2015-10-26T13:38:08Z</time>
      </trkpt>
      <trkpt lat="48.71643" lon="-3.5198">
        <ele>33</ele>
        <time>2015-10-26T13:38:14Z</time>
      </trkpt>
      <trkpt lat="48.71643" lon="-3.52007">
        <ele>32</ele>
        <time>2015-10-26T13:38:20Z</time>
      </trkpt>
      <trkpt lat="48.71644" lon="-3.52021">
        <ele>32</ele>
        <time>2015-10-26T13:38:23Z</time>
      </trkpt>
      <trkpt lat="48.71645" lon="-3.52034">
        <ele>32</ele>
        <time>2015-10-26T13:38:26Z</time>
      </trkpt>
      <trkpt lat="48.71646" lon="-3.52049">
        <ele>31</ele>
        <time>2015-10-26T13:38:30Z</time>
      </trkpt>
      <trkpt lat="48.71647" lon="-3.52065">
        <ele>31</ele>
        <time>2015-10-26T13:38:34Z</time>
      </trkpt>
      <trkpt lat="48.71647" lon="-3.5208">
        <ele>31</ele>
        <time>2015-10-26T13:38:38Z</time>
      </trkpt>
      <trkpt lat="48.71647" lon="-3.52094">
        <ele>31</ele>
        <time>2015-10-26T13:38:42Z</time>
      </trkpt>
      <trkpt lat="48.71647" lon="-3.52109">
        <ele>31</ele>
        <time>2015-10-26T13:38:46Z</time>
      </trkpt>
      <trkpt lat="48.71648" lon="-3.52121">
        <ele>31</ele>
        <time>2015-10-26T13:38:49Z</time>
      </trkpt>
      <trkpt lat="48.71649" lon="-3.52134">
        <ele>31</ele>
        <time>2015-10-26T13:38:52Z</time>
      </trkpt>
      <trkpt lat="48.7165" lon="-3.5215">
        <ele>31</ele>
        <time>2015-10-26T13:38:56Z</time>
      </trkpt>
      <trkpt lat="48.71651" lon="-3.52162">
        <ele>31</ele>
        <time>2015-10-26T13:38:59Z</time>
      </trkpt>
      <trkpt lat="48.71652" lon="-3.52175">
        <ele>31</ele>
        <time>2015-10-26T13:39:02Z</time>
      </trkpt>
      <trkpt lat="48.71652" lon="-3.5219">
        <ele>31</ele>
        <time>2015-10-26T13:39:05Z</time>
      </trkpt>
      <trkpt lat="48.71654" lon="-3.52216">
        <ele>31</ele>
        <time>2015-10-26T13:39:10Z</time>
      </trkpt>
      <trkpt lat="48.71654" lon="-3.52231">
        <ele>31</ele>
        <time>2015-10-26T13:39:13Z</time>
      </trkpt>
      <trkpt lat="48.71652" lon="-3.52247">
        <ele>32</ele>
        <time>2015-10-26T13:39:16Z</time>
      </trkpt>
      <trkpt lat="48.71651" lon="-3.52262">
        <ele>32</ele>
        <time>2015-10-26T13:39:19Z</time>
      </trkpt>
      <trkpt lat="48.71649" lon="-3.52277">
        <ele>32</ele>
        <time>2015-10-26T13:39:22Z</time>
      </trkpt>
      <trkpt lat="48.71646" lon="-3.52292">
        <ele>33</ele>
        <time>2015-10-26T13:39:25Z</time>
      </trkpt>
      <trkpt lat="48.71644" lon="-3.52306">
        <ele>33</ele>
        <time>2015-10-26T13:39:28Z</time>
      </trkpt>
      <trkpt lat="48.71641" lon="-3.5232">
        <ele>33</ele>
        <time>2015-10-26T13:39:31Z</time>
      </trkpt>
      <trkpt lat="48.71639" lon="-3.52333">
        <ele>33</ele>
        <time>2015-10-26T13:39:34Z</time>
      </trkpt>
      <trkpt lat="48.71636" lon="-3.52349">
        <ele>33</ele>
        <time>2015-10-26T13:39:38Z</time>
      </trkpt>
      <trkpt lat="48.71631" lon="-3.52368">
        <ele>33</ele>
        <time>2015-10-26T13:39:44Z</time>
      </trkpt>
      <trkpt lat="48.71628" lon="-3.5238">
        <ele>34</ele>
        <time>2015-10-26T13:39:48Z</time>
      </trkpt>
      <trkpt lat="48.71621" lon="-3.52402">
        <ele>34</ele>
        <time>2015-10-26T13:39:55Z</time>
      </trkpt>
      <trkpt lat="48.71616" lon="-3.52414">
        <ele>34</ele>
        <time>2015-10-26T13:39:59Z</time>
      </trkpt>
      <trkpt lat="48.71611" lon="-3.52424">
        <ele>35</ele>
        <time>2015-10-26T13:40:03Z</time>
      </trkpt>
      <trkpt lat="48.71606" lon="-3.52435">
        <ele>35</ele>
        <time>2015-10-26T13:40:07Z</time>
      </trkpt>
      <trkpt lat="48.716" lon="-3.52446">
        <ele>36</ele>
        <time>2015-10-26T13:40:11Z</time>
      </trkpt>
      <trkpt lat="48.71593" lon="-3.52458">
        <ele>36</ele>
        <time>2015-10-26T13:40:15Z</time>
      </trkpt>
      <trkpt lat="48.71587" lon="-3.52471">
        <ele>37</ele>
        <time>2015-10-26T13:40:19Z</time>
      </trkpt>
      <trkpt lat="48.71581" lon="-3.52483">
        <ele>37</ele>
        <time>2015-10-26T13:40:23Z</time>
      </trkpt>
      <trkpt lat="48.71574" lon="-3.52495">
        <ele>38</ele>
        <time>2015-10-26T13:40:27Z</time>
      </trkpt>
      <trkpt lat="48.71567" lon="-3.52507">
        <ele>38</ele>
        <time>2015-10-26T13:40:31Z</time>
      </trkpt>
      <trkpt lat="48.71561" lon="-3.52518">
        <ele>39</ele>
        <time>2015-10-26T13:40:35Z</time>
      </trkpt>
      <trkpt lat="48.71554" lon="-3.5253">
        <ele>40</ele>
        <time>2015-10-26T13:40:39Z</time>
      </trkpt>
      <trkpt lat="48.71547" lon="-3.52541">
        <ele>40</ele>
        <time>2015-10-26T13:40:43Z</time>
      </trkpt>
      <trkpt lat="48.7154" lon="-3.52553">
        <ele>41</ele>
        <time>2015-10-26T13:40:47Z</time>
      </trkpt>
      <trkpt lat="48.71533" lon="-3.52565">
        <ele>41</ele>
        <time>2015-10-26T13:40:51Z</time>
      </trkpt>
      <trkpt lat="48.71526" lon="-3.52576">
        <ele>42</ele>
        <time>2015-10-26T13:40:55Z</time>
      </trkpt>
      <trkpt lat="48.71518" lon="-3.52586">
        <ele>42</ele>
        <time>2015-10-26T13:40:59Z</time>
      </trkpt>
      <trkpt lat="48.7151" lon="-3.52597">
        <ele>43</ele>
        <time>2015-10-26T13:41:03Z</time>
      </trkpt>
      <trkpt lat="48.71501" lon="-3.52606">
        <ele>43</ele>
        <time>2015-10-26T13:41:07Z</time>
      </trkpt>
      <trkpt lat="48.71493" lon="-3.52614">
        <ele>43</ele>
        <time>2015-10-26T13:41:11Z</time>
      </trkpt>
      <trkpt lat="48.71483" lon="-3.52622">
        <ele>44</ele>
        <time>2015-10-26T13:41:15Z</time>
      </trkpt>
      <trkpt lat="48.71474" lon="-3.52628">
        <ele>44</ele>
        <time>2015-10-26T13:41:19Z</time>
      </trkpt>
      <trkpt lat="48.71465" lon="-3.52635">
        <ele>45</ele>
        <time>2015-10-26T13:41:23Z</time>
      </trkpt>
      <trkpt lat="48.71453" lon="-3.52643">
        <ele>45</ele>
        <time>2015-10-26T13:41:28Z</time>
      </trkpt>
      <trkpt lat="48.71444" lon="-3.52649">
        <ele>45</ele>
        <time>2015-10-26T13:41:32Z</time>
      </trkpt>
      <trkpt lat="48.71435" lon="-3.52655">
        <ele>46</ele>
        <time>2015-10-26T13:41:36Z</time>
      </trkpt>
      <trkpt lat="48.71424" lon="-3.52664">
        <ele>46</ele>
        <time>2015-10-26T13:41:41Z</time>
      </trkpt>
      <trkpt lat="48.71416" lon="-3.52672">
        <ele>47</ele>
        <time>2015-10-26T13:41:44Z</time>
      </trkpt>
      <trkpt lat="48.71408" lon="-3.5268">
        <ele>47</ele>
        <time>2015-10-26T13:41:47Z</time>
      </trkpt>
      <trkpt lat="48.714" lon="-3.5269">
        <ele>47</ele>
        <time>2015-10-26T13:41:50Z</time>
      </trkpt>
      <trkpt lat="48.71391" lon="-3.527">
        <ele>48</ele>
        <time>2015-10-26T13:41:53Z</time>
      </trkpt>
      <trkpt lat="48.71383" lon="-3.5271">
        <ele>48</ele>
        <time>2015-10-26T13:41:56Z</time>
      </trkpt>
      <trkpt lat="48.71374" lon="-3.5272">
        <ele>48</ele>
        <time>2015-10-26T13:41:59Z</time>
      </trkpt>
      <trkpt lat="48.71365" lon="-3.5273">
        <ele>49</ele>
        <time>2015-10-26T13:42:02Z</time>
      </trkpt>
      <trkpt lat="48.71356" lon="-3.52742">
        <ele>49</ele>
        <time>2015-10-26T13:42:05Z</time>
      </trkpt>
      <trkpt lat="48.71348" lon="-3.52752">
        <ele>49</ele>
        <time>2015-10-26T13:42:08Z</time>
      </trkpt>
      <trkpt lat="48.7134" lon="-3.52762">
        <ele>50</ele>
        <time>2015-10-26T13:42:11Z</time>
      </trkpt>
      <trkpt lat="48.71331" lon="-3.52767">
        <ele>50</ele>
        <time>2015-10-26T13:42:15Z</time>
      </trkpt>
      <trkpt lat="48.71324" lon="-3.52758">
        <ele>50</ele>
        <time>2015-10-26T13:42:18Z</time>
      </trkpt>
      <trkpt lat="48.71321" lon="-3.52733">
        <ele>50</ele>
        <time>2015-10-26T13:42:22Z</time>
      </trkpt>
      <trkpt lat="48.71321" lon="-3.52705">
        <ele>50</ele>
        <time>2015-10-26T13:42:26Z</time>
      </trkpt>
      <trkpt lat="48.7132" lon="-3.52682">
        <ele>50</ele>
        <time>2015-10-26T13:42:29Z</time>
      </trkpt>
      <trkpt lat="48.71318" lon="-3.52655">
        <ele>50</ele>
        <time>2015-10-26T13:42:32Z</time>
      </trkpt>
      <trkpt lat="48.71314" lon="-3.52629">
        <ele>50</ele>
        <time>2015-10-26T13:42:35Z</time>
      </trkpt>
      <trkpt lat="48.71309" lon="-3.52602">
        <ele>50</ele>
        <time>2015-10-26T13:42:38Z</time>
      </trkpt>
      <trkpt lat="48.713" lon="-3.52567">
        <ele>50</ele>
        <time>2015-10-26T13:42:42Z</time>
      </trkpt>
      <trkpt lat="48.71291" lon="-3.52541">
        <ele>50</ele>
        <time>2015-10-26T13:42:45Z</time>
      </trkpt>
      <trkpt lat="48.71279" lon="-3.52517">
        <ele>51</ele>
        <time>2015-10-26T13:42:48Z</time>
      </trkpt>
      <trkpt lat="48.7127" lon="-3.52503">
        <ele>51</ele>
        <time>2015-10-26T13:42:50Z</time>
      </trkpt>
      <trkpt lat="48.7126" lon="-3.52489">
        <ele>51</ele>
        <time>2015-10-26T13:42:52Z</time>
      </trkpt>
      <trkpt lat="48.71251" lon="-3.52476">
        <ele>51</ele>
        <time>2015-10-26T13:42:54Z</time>
      </trkpt>
      <trkpt lat="48.71242" lon="-3.52465">
        <ele>51</ele>
        <time>2015-10-26T13:42:56Z</time>
      </trkpt>
      <trkpt lat="48.71233" lon="-3.52455">
        <ele>51</ele>
        <time>2015-10-26T13:42:58Z</time>
      </trkpt>
      <trkpt lat="48.71221" lon="-3.52445">
        <ele>51</ele>
        <time>2015-10-26T13:43:01Z</time>
      </trkpt>
      <trkpt lat="48.71213" lon="-3.52439">
        <ele>51</ele>
        <time>2015-10-26T13:43:03Z</time>
      </trkpt>
      <trkpt lat="48.71204" lon="-3.52434">
        <ele>51</ele>
        <time>2015-10-26T13:43:05Z</time>
      </trkpt>
      <trkpt lat="48.71187" lon="-3.52427">
        <ele>51</ele>
        <time>2015-10-26T13:43:09Z</time>
      </trkpt>
      <trkpt lat="48.71171" lon="-3.52422">
        <ele>51</ele>
        <time>2015-10-26T13:43:13Z</time>
      </trkpt>
      <trkpt lat="48.71159" lon="-3.5242">
        <ele>51</ele>
        <time>2015-10-26T13:43:16Z</time>
      </trkpt>
      <trkpt lat="48.71143" lon="-3.52415">
        <ele>51</ele>
        <time>2015-10-26T13:43:28Z</time>
      </trkpt>
      <trkpt lat="48.71126" lon="-3.52409">
        <ele>51</ele>
        <time>2015-10-26T13:43:33Z</time>
      </trkpt>
      <trkpt lat="48.71107" lon="-3.52402">
        <ele>51</ele>
        <time>2015-10-26T13:43:38Z</time>
      </trkpt>
      <trkpt lat="48.7109" lon="-3.52397">
        <ele>51</ele>
        <time>2015-10-26T13:43:42Z</time>
      </trkpt>
      <trkpt lat="48.71072" lon="-3.52391">
        <ele>51</ele>
        <time>2015-10-26T13:43:46Z</time>
      </trkpt>
      <trkpt lat="48.71053" lon="-3.52385">
        <ele>51</ele>
        <time>2015-10-26T13:43:50Z</time>
      </trkpt>
      <trkpt lat="48.71044" lon="-3.52382">
        <ele>51</ele>
        <time>2015-10-26T13:43:52Z</time>
      </trkpt>
      <trkpt lat="48.71036" lon="-3.52381">
        <ele>51</ele>
        <time>2015-10-26T13:43:54Z</time>
      </trkpt>
      <trkpt lat="48.7102" lon="-3.52377">
        <ele>51</ele>
        <time>2015-10-26T13:43:58Z</time>
      </trkpt>
      <trkpt lat="48.71001" lon="-3.52373">
        <ele>52</ele>
        <time>2015-10-26T13:44:03Z</time>
      </trkpt>
      <trkpt lat="48.70985" lon="-3.52367">
        <ele>52</ele>
        <time>2015-10-26T13:44:07Z</time>
      </trkpt>
      <trkpt lat="48.7097" lon="-3.52362">
        <ele>52</ele>
        <time>2015-10-26T13:44:11Z</time>
      </trkpt>
      <trkpt lat="48.70951" lon="-3.52356">
        <ele>52</ele>
        <time>2015-10-26T13:44:16Z</time>
      </trkpt>
      <trkpt lat="48.70933" lon="-3.52351">
        <ele>52</ele>
        <time>2015-10-26T13:44:21Z</time>
      </trkpt>
      <trkpt lat="48.70918" lon="-3.52348">
        <ele>52</ele>
        <time>2015-10-26T13:44:25Z</time>
      </trkpt>
      <trkpt lat="48.70902" lon="-3.52349">
        <ele>53</ele>
        <time>2015-10-26T13:44:29Z</time>
      </trkpt>
      <trkpt lat="48.70891" lon="-3.52351">
        <ele>53</ele>
        <time>2015-10-26T13:44:32Z</time>
      </trkpt>
      <trkpt lat="48.70875" lon="-3.52355">
        <ele>53</ele>
        <time>2015-10-26T13:44:36Z</time>
      </trkpt>
      <trkpt lat="48.70865" lon="-3.52357">
        <ele>53</ele>
        <time>2015-10-26T13:44:38Z</time>
      </trkpt>
      <trkpt lat="48.70855" lon="-3.5236">
        <ele>53</ele>
        <time>2015-10-26T13:44:40Z</time>
      </trkpt>
      <trkpt lat="48.70844" lon="-3.52363">
        <ele>53</ele>
        <time>2015-10-26T13:44:42Z</time>
      </trkpt>
      <trkpt lat="48.70834" lon="-3.52366">
        <ele>54</ele>
        <time>2015-10-26T13:44:44Z</time>
      </trkpt>
      <trkpt lat="48.70822" lon="-3.52369">
        <ele>54</ele>
        <time>2015-10-26T13:44:46Z</time>
      </trkpt>
      <trkpt lat="48.70803" lon="-3.52375">
        <ele>54</ele>
        <time>2015-10-26T13:44:49Z</time>
      </trkpt>
      <trkpt lat="48.70789" lon="-3.52379">
        <ele>54</ele>
        <time>2015-10-26T13:44:51Z</time>
      </trkpt>
      <trkpt lat="48.70774" lon="-3.52384">
        <ele>54</ele>
        <time>2015-10-26T13:44:53Z</time>
      </trkpt>
      <trkpt lat="48.70759" lon="-3.52388">
        <ele>54</ele>
        <time>2015-10-26T13:44:55Z</time>
      </trkpt>
      <trkpt lat="48.70743" lon="-3.52392">
        <ele>54</ele>
        <time>2015-10-26T13:44:57Z</time>
      </trkpt>
      <trkpt lat="48.70729" lon="-3.52396">
        <ele>54</ele>
        <time>2015-10-26T13:44:59Z</time>
      </trkpt>
      <trkpt lat="48.70708" lon="-3.52402">
        <ele>54</ele>
        <time>2015-10-26T13:45:02Z</time>
      </trkpt>
      <trkpt lat="48.70689" lon="-3.52407">
        <ele>54</ele>
        <time>2015-10-26T13:45:05Z</time>
      </trkpt>
      <trkpt lat="48.70677" lon="-3.5241">
        <ele>54</ele>
        <time>2015-10-26T13:45:07Z</time>
      </trkpt>
      <trkpt lat="48.70666" lon="-3.52414">
        <ele>54</ele>
        <time>2015-10-26T13:45:09Z</time>
      </trkpt>
      <trkpt lat="48.70655" lon="-3.52416">
        <ele>54</ele>
        <time>2015-10-26T13:45:11Z</time>
      </trkpt>
      <trkpt lat="48.70646" lon="-3.52419">
        <ele>54</ele>
        <time>2015-10-26T13:45:13Z</time>
      </trkpt>
      <trkpt lat="48.70636" lon="-3.52422">
        <ele>55</ele>
        <time>2015-10-26T13:45:15Z</time>
      </trkpt>
      <trkpt lat="48.70628" lon="-3.52424">
        <ele>55</ele>
        <time>2015-10-26T13:45:17Z</time>
      </trkpt>
      <trkpt lat="48.70617" lon="-3.52427">
        <ele>55</ele>
        <time>2015-10-26T13:45:20Z</time>
      </trkpt>
      <trkpt lat="48.706" lon="-3.52432">
        <ele>55</ele>
        <time>2015-10-26T13:45:25Z</time>
      </trkpt>
      <trkpt lat="48.7059" lon="-3.52436">
        <ele>55</ele>
        <time>2015-10-26T13:45:28Z</time>
      </trkpt>
      <trkpt lat="48.7058" lon="-3.52438">
        <ele>55</ele>
        <time>2015-10-26T13:45:31Z</time>
      </trkpt>
      <trkpt lat="48.7057" lon="-3.52441">
        <ele>55</ele>
        <time>2015-10-26T13:45:34Z</time>
      </trkpt>
      <trkpt lat="48.70561" lon="-3.52444">
        <ele>55</ele>
        <time>2015-10-26T13:45:37Z</time>
      </trkpt>
      <trkpt lat="48.70552" lon="-3.52447">
        <ele>55</ele>
        <time>2015-10-26T13:45:40Z</time>
      </trkpt>
      <trkpt lat="48.70543" lon="-3.52451">
        <ele>55</ele>
        <time>2015-10-26T13:45:43Z</time>
      </trkpt>
      <trkpt lat="48.70535" lon="-3.52453">
        <ele>55</ele>
        <time>2015-10-26T13:45:46Z</time>
      </trkpt>
      <trkpt lat="48.70527" lon="-3.52455">
        <ele>55</ele>
        <time>2015-10-26T13:45:49Z</time>
      </trkpt>
      <trkpt lat="48.70518" lon="-3.52457">
        <ele>56</ele>
        <time>2015-10-26T13:45:52Z</time>
      </trkpt>
      <trkpt lat="48.70508" lon="-3.5246">
        <ele>56</ele>
        <time>2015-10-26T13:45:56Z</time>
      </trkpt>
      <trkpt lat="48.70495" lon="-3.52463">
        <ele>56</ele>
        <time>2015-10-26T13:46:01Z</time>
      </trkpt>
      <trkpt lat="48.70484" lon="-3.52467">
        <ele>56</ele>
        <time>2015-10-26T13:46:05Z</time>
      </trkpt>
      <trkpt lat="48.70472" lon="-3.5247">
        <ele>56</ele>
        <time>2015-10-26T13:46:10Z</time>
      </trkpt>
      <trkpt lat="48.70454" lon="-3.5247">
        <ele>57</ele>
        <time>2015-10-26T13:46:17Z</time>
      </trkpt>
      <trkpt lat="48.70444" lon="-3.52469">
        <ele>57</ele>
        <time>2015-10-26T13:46:21Z</time>
      </trkpt>
      <trkpt lat="48.70428" lon="-3.52466">
        <ele>57</ele>
        <time>2015-10-26T13:46:27Z</time>
      </trkpt>
      <trkpt lat="48.70418" lon="-3.52463">
        <ele>57</ele>
        <time>2015-10-26T13:46:31Z</time>
      </trkpt>
      <trkpt lat="48.70407" lon="-3.52461">
        <ele>58</ele>
        <time>2015-10-26T13:46:35Z</time>
      </trkpt>
      <trkpt lat="48.70399" lon="-3.5246">
        <ele>58</ele>
        <time>2015-10-26T13:46:38Z</time>
      </trkpt>
      <trkpt lat="48.70391" lon="-3.52459">
        <ele>58</ele>
        <time>2015-10-26T13:46:41Z</time>
      </trkpt>
      <trkpt lat="48.70382" lon="-3.52456">
        <ele>58</ele>
        <time>2015-10-26T13:46:44Z</time>
      </trkpt>
      <trkpt lat="48.70373" lon="-3.52452">
        <ele>59</ele>
        <time>2015-10-26T13:46:47Z</time>
      </trkpt>
      <trkpt lat="48.70364" lon="-3.52446">
        <ele>59</ele>
        <time>2015-10-26T13:46:50Z</time>
      </trkpt>
      <trkpt lat="48.70355" lon="-3.52438">
        <ele>59</ele>
        <time>2015-10-26T13:46:53Z</time>
      </trkpt>
      <trkpt lat="48.70346" lon="-3.5243">
        <ele>59</ele>
        <time>2015-10-26T13:46:56Z</time>
      </trkpt>
      <trkpt lat="48.70337" lon="-3.52422">
        <ele>59</ele>
        <time>2015-10-26T13:46:59Z</time>
      </trkpt>
      <trkpt lat="48.70328" lon="-3.52413">
        <ele>59</ele>
        <time>2015-10-26T13:47:02Z</time>
      </trkpt>
      <trkpt lat="48.70319" lon="-3.52406">
        <ele>59</ele>
        <time>2015-10-26T13:47:05Z</time>
      </trkpt>
      <trkpt lat="48.70306" lon="-3.52396">
        <ele>59</ele>
        <time>2015-10-26T13:47:10Z</time>
      </trkpt>
      <trkpt lat="48.70298" lon="-3.52388">
        <ele>60</ele>
        <time>2015-10-26T13:47:13Z</time>
      </trkpt>
      <trkpt lat="48.70283" lon="-3.52374">
        <ele>60</ele>
        <time>2015-10-26T13:47:18Z</time>
      </trkpt>
      <trkpt lat="48.70272" lon="-3.52362">
        <ele>60</ele>
        <time>2015-10-26T13:47:22Z</time>
      </trkpt>
      <trkpt lat="48.70256" lon="-3.52349">
        <ele>60</ele>
        <time>2015-10-26T13:47:27Z</time>
      </trkpt>
      <trkpt lat="48.70243" lon="-3.52336">
        <ele>60</ele>
        <time>2015-10-26T13:47:31Z</time>
      </trkpt>
      <trkpt lat="48.70227" lon="-3.52327">
        <ele>60</ele>
        <time>2015-10-26T13:47:35Z</time>
      </trkpt>
      <trkpt lat="48.70213" lon="-3.52329">
        <ele>60</ele>
        <time>2015-10-26T13:47:38Z</time>
      </trkpt>
      <trkpt lat="48.70203" lon="-3.52334">
        <ele>60</ele>
        <time>2015-10-26T13:47:40Z</time>
      </trkpt>
      <trkpt lat="48.70194" lon="-3.52342">
        <ele>60</ele>
        <time>2015-10-26T13:47:42Z</time>
      </trkpt>
      <trkpt lat="48.70187" lon="-3.52352">
        <ele>60</ele>
        <time>2015-10-26T13:47:44Z</time>
      </trkpt>
      <trkpt lat="48.7018" lon="-3.52363">
        <ele>61</ele>
        <time>2015-10-26T13:47:46Z</time>
      </trkpt>
      <trkpt lat="48.70174" lon="-3.52374">
        <ele>61</ele>
        <time>2015-10-26T13:47:48Z</time>
      </trkpt>
      <trkpt lat="48.70168" lon="-3.52385">
        <ele>61</ele>
        <time>2015-10-26T13:47:50Z</time>
      </trkpt>
      <trkpt lat="48.70162" lon="-3.52397">
        <ele>61</ele>
        <time>2015-10-26T13:47:52Z</time>
      </trkpt>
      <trkpt lat="48.70156" lon="-3.52408">
        <ele>61</ele>
        <time>2015-10-26T13:47:54Z</time>
      </trkpt>
      <trkpt lat="48.70146" lon="-3.52423">
        <ele>61</ele>
        <time>2015-10-26T13:47:57Z</time>
      </trkpt>
      <trkpt lat="48.70138" lon="-3.52431">
        <ele>61</ele>
        <time>2015-10-26T13:47:59Z</time>
      </trkpt>
      <trkpt lat="48.70129" lon="-3.52438">
        <ele>61</ele>
        <time>2015-10-26T13:48:01Z</time>
      </trkpt>
      <trkpt lat="48.70112" lon="-3.5243">
        <ele>61</ele>
        <time>2015-10-26T13:48:05Z</time>
      </trkpt>
      <trkpt lat="48.701" lon="-3.52414">
        <ele>61</ele>
        <time>2015-10-26T13:48:08Z</time>
      </trkpt>
      <trkpt lat="48.70091" lon="-3.52404">
        <ele>61</ele>
        <time>2015-10-26T13:48:10Z</time>
      </trkpt>
      <trkpt lat="48.70076" lon="-3.52394">
        <ele>61</ele>
        <time>2015-10-26T13:48:13Z</time>
      </trkpt>
      <trkpt lat="48.70067" lon="-3.52389">
        <ele>61</ele>
        <time>2015-10-26T13:48:15Z</time>
      </trkpt>
      <trkpt lat="48.70054" lon="-3.52385">
        <ele>62</ele>
        <time>2015-10-26T13:48:18Z</time>
      </trkpt>
      <trkpt lat="48.70046" lon="-3.52384">
        <ele>61</ele>
        <time>2015-10-26T13:48:22Z</time>
      </trkpt>
      <trkpt lat="48.70035" lon="-3.52389">
        <ele>62</ele>
        <time>2015-10-26T13:48:27Z</time>
      </trkpt>
      <trkpt lat="48.70026" lon="-3.52386">
        <ele>62</ele>
        <time>2015-10-26T13:48:30Z</time>
      </trkpt>
      <trkpt lat="48.70018" lon="-3.52373">
        <ele>62</ele>
        <time>2015-10-26T13:48:33Z</time>
      </trkpt>
      <trkpt lat="48.70012" lon="-3.52362">
        <ele>62</ele>
        <time>2015-10-26T13:48:35Z</time>
      </trkpt>
      <trkpt lat="48.70004" lon="-3.5235">
        <ele>62</ele>
        <time>2015-10-26T13:48:37Z</time>
      </trkpt>
      <trkpt lat="48.69993" lon="-3.52333">
        <ele>62</ele>
        <time>2015-10-26T13:48:40Z</time>
      </trkpt>
      <trkpt lat="48.69986" lon="-3.52312">
        <ele>62</ele>
        <time>2015-10-26T13:48:43Z</time>
      </trkpt>
      <trkpt lat="48.69986" lon="-3.52297">
        <ele>62</ele>
        <time>2015-10-26T13:48:45Z</time>
      </trkpt>
      <trkpt lat="48.69986" lon="-3.52281">
        <ele>62</ele>
        <time>2015-10-26T13:48:47Z</time>
      </trkpt>
      <trkpt lat="48.69986" lon="-3.52266">
        <ele>62</ele>
        <time>2015-10-26T13:48:49Z</time>
      </trkpt>
      <trkpt lat="48.69982" lon="-3.52236">
        <ele>62</ele>
        <time>2015-10-26T13:48:53Z</time>
      </trkpt>
      <trkpt lat="48.69976" lon="-3.52224">
        <ele>63</ele>
        <time>2015-10-26T13:48:55Z</time>
      </trkpt>
      <trkpt lat="48.69969" lon="-3.52214">
        <ele>63</ele>
        <time>2015-10-26T13:48:57Z</time>
      </trkpt>
      <trkpt lat="48.6996" lon="-3.52208">
        <ele>63</ele>
        <time>2015-10-26T13:48:59Z</time>
      </trkpt>
      <trkpt lat="48.69951" lon="-3.52204">
        <ele>63</ele>
        <time>2015-10-26T13:49:01Z</time>
      </trkpt>
      <trkpt lat="48.69941" lon="-3.52201">
        <ele>63</ele>
        <time>2015-10-26T13:49:03Z</time>
      </trkpt>
      <trkpt lat="48.69931" lon="-3.52199">
        <ele>63</ele>
        <time>2015-10-26T13:49:05Z</time>
      </trkpt>
      <trkpt lat="48.69922" lon="-3.52198">
        <ele>63</ele>
        <time>2015-10-26T13:49:07Z</time>
      </trkpt>
      <trkpt lat="48.69913" lon="-3.52196">
        <ele>63</ele>
        <time>2015-10-26T13:49:09Z</time>
      </trkpt>
      <trkpt lat="48.69904" lon="-3.52191">
        <ele>63</ele>
        <time>2015-10-26T13:49:11Z</time>
      </trkpt>
      <trkpt lat="48.69896" lon="-3.52185">
        <ele>63</ele>
        <time>2015-10-26T13:49:13Z</time>
      </trkpt>
      <trkpt lat="48.69881" lon="-3.52176">
        <ele>63</ele>
        <time>2015-10-26T13:49:17Z</time>
      </trkpt>
      <trkpt lat="48.6987" lon="-3.5217">
        <ele>63</ele>
        <time>2015-10-26T13:49:20Z</time>
      </trkpt>
      <trkpt lat="48.6986" lon="-3.52163">
        <ele>64</ele>
        <time>2015-10-26T13:49:23Z</time>
      </trkpt>
      <trkpt lat="48.6985" lon="-3.52155">
        <ele>64</ele>
        <time>2015-10-26T13:49:26Z</time>
      </trkpt>
      <trkpt lat="48.69839" lon="-3.52147">
        <ele>64</ele>
        <time>2015-10-26T13:49:29Z</time>
      </trkpt>
      <trkpt lat="48.69832" lon="-3.52141">
        <ele>64</ele>
        <time>2015-10-26T13:49:31Z</time>
      </trkpt>
      <trkpt lat="48.69824" lon="-3.52135">
        <ele>64</ele>
        <time>2015-10-26T13:49:33Z</time>
      </trkpt>
      <trkpt lat="48.69814" lon="-3.52132">
        <ele>64</ele>
        <time>2015-10-26T13:49:35Z</time>
      </trkpt>
      <trkpt lat="48.69805" lon="-3.52137">
        <ele>64</ele>
        <time>2015-10-26T13:49:37Z</time>
      </trkpt>
      <trkpt lat="48.69797" lon="-3.52148">
        <ele>64</ele>
        <time>2015-10-26T13:49:39Z</time>
      </trkpt>
      <trkpt lat="48.69791" lon="-3.5216">
        <ele>64</ele>
        <time>2015-10-26T13:49:41Z</time>
      </trkpt>
      <trkpt lat="48.69787" lon="-3.52174">
        <ele>64</ele>
        <time>2015-10-26T13:49:43Z</time>
      </trkpt>
      <trkpt lat="48.69781" lon="-3.52187">
        <ele>64</ele>
        <time>2015-10-26T13:49:45Z</time>
      </trkpt>
      <trkpt lat="48.69775" lon="-3.52199">
        <ele>64</ele>
        <time>2015-10-26T13:49:47Z</time>
      </trkpt>
      <trkpt lat="48.69769" lon="-3.5221">
        <ele>65</ele>
        <time>2015-10-26T13:49:49Z</time>
      </trkpt>
      <trkpt lat="48.69761" lon="-3.52218">
        <ele>65</ele>
        <time>2015-10-26T13:49:51Z</time>
      </trkpt>
      <trkpt lat="48.69751" lon="-3.52223">
        <ele>65</ele>
        <time>2015-10-26T13:49:53Z</time>
      </trkpt>
      <trkpt lat="48.69742" lon="-3.52226">
        <ele>65</ele>
        <time>2015-10-26T13:49:55Z</time>
      </trkpt>
      <trkpt lat="48.69732" lon="-3.52229">
        <ele>65</ele>
        <time>2015-10-26T13:49:57Z</time>
      </trkpt>
      <trkpt lat="48.69722" lon="-3.52231">
        <ele>65</ele>
        <time>2015-10-26T13:49:59Z</time>
      </trkpt>
      <trkpt lat="48.69712" lon="-3.52234">
        <ele>65</ele>
        <time>2015-10-26T13:50:01Z</time>
      </trkpt>
      <trkpt lat="48.69702" lon="-3.52237">
        <ele>65</ele>
        <time>2015-10-26T13:50:03Z</time>
      </trkpt>
      <trkpt lat="48.69692" lon="-3.5224">
        <ele>65</ele>
        <time>2015-10-26T13:50:05Z</time>
      </trkpt>
      <trkpt lat="48.69681" lon="-3.52243">
        <ele>65</ele>
        <time>2015-10-26T13:50:07Z</time>
      </trkpt>
      <trkpt lat="48.69671" lon="-3.52246">
        <ele>65</ele>
        <time>2015-10-26T13:50:09Z</time>
      </trkpt>
      <trkpt lat="48.69653" lon="-3.52252">
        <ele>66</ele>
        <time>2015-10-26T13:50:12Z</time>
      </trkpt>
      <trkpt lat="48.69635" lon="-3.52258">
        <ele>66</ele>
        <time>2015-10-26T13:50:15Z</time>
      </trkpt>
      <trkpt lat="48.69616" lon="-3.52267">
        <ele>65</ele>
        <time>2015-10-26T13:50:18Z</time>
      </trkpt>
      <trkpt lat="48.69595" lon="-3.52281">
        <ele>65</ele>
        <time>2015-10-26T13:50:21Z</time>
      </trkpt>
      <trkpt lat="48.69574" lon="-3.52291">
        <ele>65</ele>
        <time>2015-10-26T13:50:24Z</time>
      </trkpt>
      <trkpt lat="48.6956" lon="-3.52293">
        <ele>65</ele>
        <time>2015-10-26T13:50:26Z</time>
      </trkpt>
      <trkpt lat="48.6954" lon="-3.52292">
        <ele>65</ele>
        <time>2015-10-26T13:50:29Z</time>
      </trkpt>
      <trkpt lat="48.69527" lon="-3.52292">
        <ele>65</ele>
        <time>2015-10-26T13:50:31Z</time>
      </trkpt>
      <trkpt lat="48.69509" lon="-3.52293">
        <ele>65</ele>
        <time>2015-10-26T13:50:34Z</time>
      </trkpt>
      <trkpt lat="48.695" lon="-3.52294">
        <ele>65</ele>
        <time>2015-10-26T13:50:36Z</time>
      </trkpt>
      <trkpt lat="48.69491" lon="-3.52296">
        <ele>65</ele>
        <time>2015-10-26T13:50:38Z</time>
      </trkpt>
      <trkpt lat="48.69477" lon="-3.52299">
        <ele>65</ele>
        <time>2015-10-26T13:50:41Z</time>
      </trkpt>
      <trkpt lat="48.69469" lon="-3.52303">
        <ele>65</ele>
        <time>2015-10-26T13:50:43Z</time>
      </trkpt>
      <trkpt lat="48.6946" lon="-3.52308">
        <ele>65</ele>
        <time>2015-10-26T13:50:45Z</time>
      </trkpt>
      <trkpt lat="48.69452" lon="-3.52314">
        <ele>65</ele>
        <time>2015-10-26T13:50:47Z</time>
      </trkpt>
      <trkpt lat="48.69444" lon="-3.5232">
        <ele>65</ele>
        <time>2015-10-26T13:50:49Z</time>
      </trkpt>
      <trkpt lat="48.69429" lon="-3.52331">
        <ele>65</ele>
        <time>2015-10-26T13:50:53Z</time>
      </trkpt>
      <trkpt lat="48.69418" lon="-3.5234">
        <ele>65</ele>
        <time>2015-10-26T13:50:56Z</time>
      </trkpt>
      <trkpt lat="48.69407" lon="-3.52349">
        <ele>65</ele>
        <time>2015-10-26T13:50:59Z</time>
      </trkpt>
      <trkpt lat="48.69395" lon="-3.52366">
        <ele>65</ele>
        <time>2015-10-26T13:51:03Z</time>
      </trkpt>
      <trkpt lat="48.6939" lon="-3.52375">
        <ele>65</ele>
        <time>2015-10-26T13:51:05Z</time>
      </trkpt>
      <trkpt lat="48.69384" lon="-3.52385">
        <ele>65</ele>
        <time>2015-10-26T13:51:07Z</time>
      </trkpt>
      <trkpt lat="48.69376" lon="-3.52398">
        <ele>65</ele>
        <time>2015-10-26T13:51:10Z</time>
      </trkpt>
      <trkpt lat="48.69367" lon="-3.52407">
        <ele>65</ele>
        <time>2015-10-26T13:51:13Z</time>
      </trkpt>
      <trkpt lat="48.69353" lon="-3.52413">
        <ele>65</ele>
        <time>2015-10-26T13:51:17Z</time>
      </trkpt>
      <trkpt lat="48.69342" lon="-3.52414">
        <ele>65</ele>
        <time>2015-10-26T13:51:20Z</time>
      </trkpt>
      <trkpt lat="48.69331" lon="-3.52414">
        <ele>65</ele>
        <time>2015-10-26T13:51:23Z</time>
      </trkpt>
      <trkpt lat="48.6932" lon="-3.52415">
        <ele>65</ele>
        <time>2015-10-26T13:51:26Z</time>
      </trkpt>
      <trkpt lat="48.69309" lon="-3.52417">
        <ele>65</ele>
        <time>2015-10-26T13:51:29Z</time>
      </trkpt>
      <trkpt lat="48.69298" lon="-3.52419">
        <ele>65</ele>
        <time>2015-10-26T13:51:32Z</time>
      </trkpt>
      <trkpt lat="48.69287" lon="-3.52423">
        <ele>65</ele>
        <time>2015-10-26T13:51:35Z</time>
      </trkpt>
      <trkpt lat="48.69277" lon="-3.52428">
        <ele>65</ele>
        <time>2015-10-26T13:51:38Z</time>
      </trkpt>
      <trkpt lat="48.69268" lon="-3.52434">
        <ele>66</ele>
        <time>2015-10-26T13:51:41Z</time>
      </trkpt>
      <trkpt lat="48.69255" lon="-3.52442">
        <ele>65</ele>
        <time>2015-10-26T13:51:45Z</time>
      </trkpt>
      <trkpt lat="48.69245" lon="-3.52446">
        <ele>65</ele>
        <time>2015-10-26T13:51:48Z</time>
      </trkpt>
      <trkpt lat="48.69235" lon="-3.52447">
        <ele>66</ele>
        <time>2015-10-26T13:51:51Z</time>
      </trkpt>
      <trkpt lat="48.69225" lon="-3.52444">
        <ele>66</ele>
        <time>2015-10-26T13:51:54Z</time>
      </trkpt>
      <trkpt lat="48.69215" lon="-3.52436">
        <ele>66</ele>
        <time>2015-10-26T13:51:57Z</time>
      </trkpt>
      <trkpt lat="48.69206" lon="-3.52422">
        <ele>66</ele>
        <time>2015-10-26T13:52:00Z</time>
      </trkpt>
      <trkpt lat="48.69199" lon="-3.52412">
        <ele>66</ele>
        <time>2015-10-26T13:52:02Z</time>
      </trkpt>
      <trkpt lat="48.69191" lon="-3.52404">
        <ele>66</ele>
        <time>2015-10-26T13:52:04Z</time>
      </trkpt>
      <trkpt lat="48.69182" lon="-3.52401">
        <ele>66</ele>
        <time>2015-10-26T13:52:06Z</time>
      </trkpt>
      <trkpt lat="48.69173" lon="-3.524">
        <ele>66</ele>
        <time>2015-10-26T13:52:08Z</time>
      </trkpt>
      <trkpt lat="48.69163" lon="-3.52401">
        <ele>66</ele>
        <time>2015-10-26T13:52:10Z</time>
      </trkpt>
      <trkpt lat="48.69154" lon="-3.52402">
        <ele>66</ele>
        <time>2015-10-26T13:52:12Z</time>
      </trkpt>
      <trkpt lat="48.69146" lon="-3.52401">
        <ele>66</ele>
        <time>2015-10-26T13:52:14Z</time>
      </trkpt>
      <trkpt lat="48.69137" lon="-3.52399">
        <ele>66</ele>
        <time>2015-10-26T13:52:16Z</time>
      </trkpt>
      <trkpt lat="48.69129" lon="-3.52395">
        <ele>66</ele>
        <time>2015-10-26T13:52:18Z</time>
      </trkpt>
      <trkpt lat="48.69121" lon="-3.52389">
        <ele>66</ele>
        <time>2015-10-26T13:52:20Z</time>
      </trkpt>
      <trkpt lat="48.69113" lon="-3.52383">
        <ele>67</ele>
        <time>2015-10-26T13:52:22Z</time>
      </trkpt>
      <trkpt lat="48.69106" lon="-3.52377">
        <ele>66</ele>
        <time>2015-10-26T13:52:24Z</time>
      </trkpt>
      <trkpt lat="48.69098" lon="-3.52372">
        <ele>66</ele>
        <time>2015-10-26T13:52:26Z</time>
      </trkpt>
      <trkpt lat="48.6909" lon="-3.5237">
        <ele>66</ele>
        <time>2015-10-26T13:52:28Z</time>
      </trkpt>
      <trkpt lat="48.69076" lon="-3.52372">
        <ele>66</ele>
        <time>2015-10-26T13:52:31Z</time>
      </trkpt>
      <trkpt lat="48.69068" lon="-3.52376">
        <ele>66</ele>
        <time>2015-10-26T13:52:33Z</time>
      </trkpt>
      <trkpt lat="48.6906" lon="-3.52382">
        <ele>66</ele>
        <time>2015-10-26T13:52:35Z</time>
      </trkpt>
      <trkpt lat="48.69052" lon="-3.52388">
        <ele>66</ele>
        <time>2015-10-26T13:52:37Z</time>
      </trkpt>
      <trkpt lat="48.69043" lon="-3.52395">
        <ele>66</ele>
        <time>2015-10-26T13:52:39Z</time>
      </trkpt>
      <trkpt lat="48.69036" lon="-3.52402">
        <ele>66</ele>
        <time>2015-10-26T13:52:41Z</time>
      </trkpt>
      <trkpt lat="48.69028" lon="-3.52407">
        <ele>66</ele>
        <time>2015-10-26T13:52:43Z</time>
      </trkpt>
      <trkpt lat="48.69019" lon="-3.52413">
        <ele>66</ele>
        <time>2015-10-26T13:52:45Z</time>
      </trkpt>
      <trkpt lat="48.69011" lon="-3.52419">
        <ele>66</ele>
        <time>2015-10-26T13:52:47Z</time>
      </trkpt>
      <trkpt lat="48.69003" lon="-3.52424">
        <ele>66</ele>
        <time>2015-10-26T13:52:49Z</time>
      </trkpt>
      <trkpt lat="48.68996" lon="-3.52429">
        <ele>66</ele>
        <time>2015-10-26T13:52:51Z</time>
      </trkpt>
      <trkpt lat="48.68984" lon="-3.52434">
        <ele>66</ele>
        <time>2015-10-26T13:52:54Z</time>
      </trkpt>
      <trkpt lat="48.68972" lon="-3.52438">
        <ele>66</ele>
        <time>2015-10-26T13:52:57Z</time>
      </trkpt>
      <trkpt lat="48.68961" lon="-3.52442">
        <ele>66</ele>
        <time>2015-10-26T13:53:00Z</time>
      </trkpt>
      <trkpt lat="48.6895" lon="-3.52445">
        <ele>66</ele>
        <time>2015-10-26T13:53:03Z</time>
      </trkpt>
      <trkpt lat="48.68939" lon="-3.52448">
        <ele>66</ele>
        <time>2015-10-26T13:53:06Z</time>
      </trkpt>
      <trkpt lat="48.68927" lon="-3.52452">
        <ele>66</ele>
        <time>2015-10-26T13:53:09Z</time>
      </trkpt>
      <trkpt lat="48.68919" lon="-3.52455">
        <ele>66</ele>
        <time>2015-10-26T13:53:11Z</time>
      </trkpt>
      <trkpt lat="48.6891" lon="-3.52458">
        <ele>66</ele>
        <time>2015-10-26T13:53:13Z</time>
      </trkpt>
      <trkpt lat="48.68902" lon="-3.52462">
        <ele>66</ele>
        <time>2015-10-26T13:53:15Z</time>
      </trkpt>
      <trkpt lat="48.68894" lon="-3.52466">
        <ele>66</ele>
        <time>2015-10-26T13:53:17Z</time>
      </trkpt>
      <trkpt lat="48.68885" lon="-3.52469">
        <ele>67</ele>
        <time>2015-10-26T13:53:19Z</time>
      </trkpt>
      <trkpt lat="48.68877" lon="-3.52472">
        <ele>67</ele>
        <time>2015-10-26T13:53:21Z</time>
      </trkpt>
      <trkpt lat="48.68868" lon="-3.52475">
        <ele>67</ele>
        <time>2015-10-26T13:53:23Z</time>
      </trkpt>
      <trkpt lat="48.6886" lon="-3.52477">
        <ele>67</ele>
        <time>2015-10-26T13:53:25Z</time>
      </trkpt>
      <trkpt lat="48.68852" lon="-3.52478">
        <ele>67</ele>
        <time>2015-10-26T13:53:27Z</time>
      </trkpt>
      <trkpt lat="48.68835" lon="-3.52479">
        <ele>67</ele>
        <time>2015-10-26T13:53:31Z</time>
      </trkpt>
      <trkpt lat="48.68823" lon="-3.5248">
        <ele>67</ele>
        <time>2015-10-26T13:53:34Z</time>
      </trkpt>
      <trkpt lat="48.68806" lon="-3.52483">
        <ele>67</ele>
        <time>2015-10-26T13:53:38Z</time>
      </trkpt>
      <trkpt lat="48.68797" lon="-3.52485">
        <ele>67</ele>
        <time>2015-10-26T13:53:40Z</time>
      </trkpt>
      <trkpt lat="48.68789" lon="-3.52487">
        <ele>67</ele>
        <time>2015-10-26T13:53:42Z</time>
      </trkpt>
      <trkpt lat="48.6878" lon="-3.52489">
        <ele>67</ele>
        <time>2015-10-26T13:53:44Z</time>
      </trkpt>
      <trkpt lat="48.68771" lon="-3.52491">
        <ele>67</ele>
        <time>2015-10-26T13:53:46Z</time>
      </trkpt>
      <trkpt lat="48.68758" lon="-3.52494">
        <ele>67</ele>
        <time>2015-10-26T13:53:49Z</time>
      </trkpt>
      <trkpt lat="48.68749" lon="-3.52495">
        <ele>67</ele>
        <time>2015-10-26T13:53:51Z</time>
      </trkpt>
      <trkpt lat="48.6873" lon="-3.52498">
        <ele>67</ele>
        <time>2015-10-26T13:53:55Z</time>
      </trkpt>
      <trkpt lat="48.68721" lon="-3.52499">
        <ele>67</ele>
        <time>2015-10-26T13:53:57Z</time>
      </trkpt>
      <trkpt lat="48.68712" lon="-3.52501">
        <ele>67</ele>
        <time>2015-10-26T13:53:59Z</time>
      </trkpt>
      <trkpt lat="48.68703" lon="-3.52503">
        <ele>67</ele>
        <time>2015-10-26T13:54:01Z</time>
      </trkpt>
      <trkpt lat="48.68689" lon="-3.52506">
        <ele>67</ele>
        <time>2015-10-26T13:54:04Z</time>
      </trkpt>
      <trkpt lat="48.68679" lon="-3.52508">
        <ele>67</ele>
        <time>2015-10-26T13:54:06Z</time>
      </trkpt>
      <trkpt lat="48.6867" lon="-3.52509">
        <ele>67</ele>
        <time>2015-10-26T13:54:08Z</time>
      </trkpt>
      <trkpt lat="48.6866" lon="-3.5251">
        <ele>67</ele>
        <time>2015-10-26T13:54:10Z</time>
      </trkpt>
      <trkpt lat="48.68651" lon="-3.52512">
        <ele>67</ele>
        <time>2015-10-26T13:54:12Z</time>
      </trkpt>
      <trkpt lat="48.68642" lon="-3.52514">
        <ele>67</ele>
        <time>2015-10-26T13:54:14Z</time>
      </trkpt>
      <trkpt lat="48.68633" lon="-3.52515">
        <ele>67</ele>
        <time>2015-10-26T13:54:16Z</time>
      </trkpt>
      <trkpt lat="48.68624" lon="-3.52516">
        <ele>67</ele>
        <time>2015-10-26T13:54:18Z</time>
      </trkpt>
      <trkpt lat="48.68615" lon="-3.52516">
        <ele>67</ele>
        <time>2015-10-26T13:54:20Z</time>
      </trkpt>
      <trkpt lat="48.68606" lon="-3.52516">
        <ele>67</ele>
        <time>2015-10-26T13:54:22Z</time>
      </trkpt>
      <trkpt lat="48.68597" lon="-3.52516">
        <ele>67</ele>
        <time>2015-10-26T13:54:24Z</time>
      </trkpt>
      <trkpt lat="48.68578" lon="-3.52511">
        <ele>68</ele>
        <time>2015-10-26T13:54:28Z</time>
      </trkpt>
      <trkpt lat="48.68569" lon="-3.52505">
        <ele>68</ele>
        <time>2015-10-26T13:54:30Z</time>
      </trkpt>
      <trkpt lat="48.68559" lon="-3.52498">
        <ele>68</ele>
        <time>2015-10-26T13:54:32Z</time>
      </trkpt>
      <trkpt lat="48.6855" lon="-3.5249">
        <ele>68</ele>
        <time>2015-10-26T13:54:34Z</time>
      </trkpt>
      <trkpt lat="48.68541" lon="-3.52482">
        <ele>68</ele>
        <time>2015-10-26T13:54:36Z</time>
      </trkpt>
      <trkpt lat="48.68533" lon="-3.52472">
        <ele>68</ele>
        <time>2015-10-26T13:54:38Z</time>
      </trkpt>
      <trkpt lat="48.68524" lon="-3.52462">
        <ele>68</ele>
        <time>2015-10-26T13:54:40Z</time>
      </trkpt>
      <trkpt lat="48.68515" lon="-3.52453">
        <ele>68</ele>
        <time>2015-10-26T13:54:42Z</time>
      </trkpt>
      <trkpt lat="48.68506" lon="-3.52443">
        <ele>68</ele>
        <time>2015-10-26T13:54:44Z</time>
      </trkpt>
      <trkpt lat="48.68493" lon="-3.52429">
        <ele>68</ele>
        <time>2015-10-26T13:54:47Z</time>
      </trkpt>
      <trkpt lat="48.68485" lon="-3.52419">
        <ele>68</ele>
        <time>2015-10-26T13:54:49Z</time>
      </trkpt>
      <trkpt lat="48.68469" lon="-3.52401">
        <ele>68</ele>
        <time>2015-10-26T13:54:53Z</time>
      </trkpt>
      <trkpt lat="48.68452" lon="-3.52386">
        <ele>69</ele>
        <time>2015-10-26T13:54:57Z</time>
      </trkpt>
      <trkpt lat="48.68443" lon="-3.52381">
        <ele>69</ele>
        <time>2015-10-26T13:54:59Z</time>
      </trkpt>
      <trkpt lat="48.68432" lon="-3.52377">
        <ele>68</ele>
        <time>2015-10-26T13:55:01Z</time>
      </trkpt>
      <trkpt lat="48.68422" lon="-3.52374">
        <ele>68</ele>
        <time>2015-10-26T13:55:03Z</time>
      </trkpt>
      <trkpt lat="48.68412" lon="-3.52372">
        <ele>68</ele>
        <time>2015-10-26T13:55:05Z</time>
      </trkpt>
      <trkpt lat="48.68402" lon="-3.52371">
        <ele>68</ele>
        <time>2015-10-26T13:55:07Z</time>
      </trkpt>
      <trkpt lat="48.68392" lon="-3.52372">
        <ele>68</ele>
        <time>2015-10-26T13:55:09Z</time>
      </trkpt>
      <trkpt lat="48.68382" lon="-3.52374">
        <ele>68</ele>
        <time>2015-10-26T13:55:11Z</time>
      </trkpt>
      <trkpt lat="48.68373" lon="-3.52375">
        <ele>68</ele>
        <time>2015-10-26T13:55:13Z</time>
      </trkpt>
      <trkpt lat="48.68354" lon="-3.52377">
        <ele>68</ele>
        <time>2015-10-26T13:55:17Z</time>
      </trkpt>
      <trkpt lat="48.68344" lon="-3.52377">
        <ele>68</ele>
        <time>2015-10-26T13:55:19Z</time>
      </trkpt>
      <trkpt lat="48.68334" lon="-3.52376">
        <ele>68</ele>
        <time>2015-10-26T13:55:21Z</time>
      </trkpt>
      <trkpt lat="48.68324" lon="-3.52377">
        <ele>68</ele>
        <time>2015-10-26T13:55:23Z</time>
      </trkpt>
      <trkpt lat="48.68314" lon="-3.52378">
        <ele>68</ele>
        <time>2015-10-26T13:55:25Z</time>
      </trkpt>
      <trkpt lat="48.68304" lon="-3.52379">
        <ele>68</ele>
        <time>2015-10-26T13:55:27Z</time>
      </trkpt>
      <trkpt lat="48.68294" lon="-3.52378">
        <ele>68</ele>
        <time>2015-10-26T13:55:29Z</time>
      </trkpt>
      <trkpt lat="48.68284" lon="-3.52377">
        <ele>68</ele>
        <time>2015-10-26T13:55:31Z</time>
      </trkpt>
      <trkpt lat="48.68275" lon="-3.52373">
        <ele>67</ele>
        <time>2015-10-26T13:55:33Z</time>
      </trkpt>
      <trkpt lat="48.68265" lon="-3.52369">
        <ele>67</ele>
        <time>2015-10-26T13:55:35Z</time>
      </trkpt>
      <trkpt lat="48.68256" lon="-3.52365">
        <ele>67</ele>
        <time>2015-10-26T13:55:37Z</time>
      </trkpt>
      <trkpt lat="48.68247" lon="-3.5236">
        <ele>67</ele>
        <time>2015-10-26T13:55:39Z</time>
      </trkpt>
      <trkpt lat="48.68238" lon="-3.52356">
        <ele>67</ele>
        <time>2015-10-26T13:55:41Z</time>
      </trkpt>
      <trkpt lat="48.68228" lon="-3.52355">
        <ele>67</ele>
        <time>2015-10-26T13:55:43Z</time>
      </trkpt>
      <trkpt lat="48.68218" lon="-3.52355">
        <ele>67</ele>
        <time>2015-10-26T13:55:45Z</time>
      </trkpt>
      <trkpt lat="48.68208" lon="-3.52357">
        <ele>67</ele>
        <time>2015-10-26T13:55:47Z</time>
      </trkpt>
      <trkpt lat="48.68198" lon="-3.5236">
        <ele>67</ele>
        <time>2015-10-26T13:55:49Z</time>
      </trkpt>
      <trkpt lat="48.68188" lon="-3.52362">
        <ele>68</ele>
        <time>2015-10-26T13:55:51Z</time>
      </trkpt>
      <trkpt lat="48.68178" lon="-3.52364">
        <ele>68</ele>
        <time>2015-10-26T13:55:53Z</time>
      </trkpt>
      <trkpt lat="48.68169" lon="-3.52365">
        <ele>68</ele>
        <time>2015-10-26T13:55:55Z</time>
      </trkpt>
      <trkpt lat="48.68159" lon="-3.52364">
        <ele>68</ele>
        <time>2015-10-26T13:55:57Z</time>
      </trkpt>
      <trkpt lat="48.6815" lon="-3.52362">
        <ele>68</ele>
        <time>2015-10-26T13:55:59Z</time>
      </trkpt>
      <trkpt lat="48.68141" lon="-3.52361">
        <ele>68</ele>
        <time>2015-10-26T13:56:01Z</time>
      </trkpt>
      <trkpt lat="48.68131" lon="-3.52359">
        <ele>68</ele>
        <time>2015-10-26T13:56:03Z</time>
      </trkpt>
      <trkpt lat="48.68122" lon="-3.52358">
        <ele>68</ele>
        <time>2015-10-26T13:56:05Z</time>
      </trkpt>
      <trkpt lat="48.68112" lon="-3.52357">
        <ele>68</ele>
        <time>2015-10-26T13:56:07Z</time>
      </trkpt>
      <trkpt lat="48.68093" lon="-3.52355">
        <ele>67</ele>
        <time>2015-10-26T13:56:11Z</time>
      </trkpt>
      <trkpt lat="48.68084" lon="-3.52355">
        <ele>67</ele>
        <time>2015-10-26T13:56:13Z</time>
      </trkpt>
      <trkpt lat="48.68075" lon="-3.52354">
        <ele>67</ele>
        <time>2015-10-26T13:56:15Z</time>
      </trkpt>
      <trkpt lat="48.68065" lon="-3.52356">
        <ele>67</ele>
        <time>2015-10-26T13:56:17Z</time>
      </trkpt>
      <trkpt lat="48.68056" lon="-3.52358">
        <ele>67</ele>
        <time>2015-10-26T13:56:19Z</time>
      </trkpt>
      <trkpt lat="48.68047" lon="-3.5236">
        <ele>68</ele>
        <time>2015-10-26T13:56:21Z</time>
      </trkpt>
      <trkpt lat="48.68038" lon="-3.52362">
        <ele>68</ele>
        <time>2015-10-26T13:56:23Z</time>
      </trkpt>
      <trkpt lat="48.68029" lon="-3.52363">
        <ele>67</ele>
        <time>2015-10-26T13:56:25Z</time>
      </trkpt>
      <trkpt lat="48.68011" lon="-3.52363">
        <ele>67</ele>
        <time>2015-10-26T13:56:29Z</time>
      </trkpt>
      <trkpt lat="48.68002" lon="-3.52361">
        <ele>67</ele>
        <time>2015-10-26T13:56:31Z</time>
      </trkpt>
      <trkpt lat="48.67993" lon="-3.52359">
        <ele>67</ele>
        <time>2015-10-26T13:56:33Z</time>
      </trkpt>
      <trkpt lat="48.67984" lon="-3.52355">
        <ele>67</ele>
        <time>2015-10-26T13:56:35Z</time>
      </trkpt>
      <trkpt lat="48.67975" lon="-3.52352">
        <ele>67</ele>
        <time>2015-10-26T13:56:37Z</time>
      </trkpt>
      <trkpt lat="48.67966" lon="-3.52349">
        <ele>67</ele>
        <time>2015-10-26T13:56:39Z</time>
      </trkpt>
      <trkpt lat="48.67957" lon="-3.52346">
        <ele>66</ele>
        <time>2015-10-26T13:56:41Z</time>
      </trkpt>
      <trkpt lat="48.67946" lon="-3.52345">
        <ele>66</ele>
        <time>2015-10-26T13:56:44Z</time>
      </trkpt>
      <trkpt lat="48.67934" lon="-3.52343">
        <ele>66</ele>
        <time>2015-10-26T13:56:47Z</time>
      </trkpt>
      <trkpt lat="48.67923" lon="-3.52341">
        <ele>66</ele>
        <time>2015-10-26T13:56:50Z</time>
      </trkpt>
      <trkpt lat="48.67912" lon="-3.52337">
        <ele>66</ele>
        <time>2015-10-26T13:56:53Z</time>
      </trkpt>
      <trkpt lat="48.67901" lon="-3.52335">
        <ele>66</ele>
        <time>2015-10-26T13:56:56Z</time>
      </trkpt>
      <trkpt lat="48.67894" lon="-3.52346">
        <ele>66</ele>
        <time>2015-10-26T13:56:59Z</time>
      </trkpt>
      <trkpt lat="48.6789" lon="-3.52362">
        <ele>66</ele>
        <time>2015-10-26T13:57:02Z</time>
      </trkpt>
      <trkpt lat="48.67887" lon="-3.52376">
        <ele>66</ele>
        <time>2015-10-26T13:57:05Z</time>
      </trkpt>
      <trkpt lat="48.67878" lon="-3.52381">
        <ele>66</ele>
        <time>2015-10-26T13:57:08Z</time>
      </trkpt>
      <trkpt lat="48.67869" lon="-3.52381">
        <ele>66</ele>
        <time>2015-10-26T13:57:10Z</time>
      </trkpt>
      <trkpt lat="48.67849" lon="-3.52383">
        <ele>65</ele>
        <time>2015-10-26T13:57:14Z</time>
      </trkpt>
      <trkpt lat="48.67839" lon="-3.52384">
        <ele>65</ele>
        <time>2015-10-26T13:57:16Z</time>
      </trkpt>
      <trkpt lat="48.67823" lon="-3.52386">
        <ele>65</ele>
        <time>2015-10-26T13:57:19Z</time>
      </trkpt>
      <trkpt lat="48.67812" lon="-3.52388">
        <ele>65</ele>
        <time>2015-10-26T13:57:21Z</time>
      </trkpt>
      <trkpt lat="48.67801" lon="-3.52389">
        <ele>65</ele>
        <time>2015-10-26T13:57:23Z</time>
      </trkpt>
      <trkpt lat="48.67791" lon="-3.5239">
        <ele>65</ele>
        <time>2015-10-26T13:57:25Z</time>
      </trkpt>
      <trkpt lat="48.6778" lon="-3.52392">
        <ele>65</ele>
        <time>2015-10-26T13:57:27Z</time>
      </trkpt>
      <trkpt lat="48.6777" lon="-3.52393">
        <ele>65</ele>
        <time>2015-10-26T13:57:29Z</time>
      </trkpt>
      <trkpt lat="48.6776" lon="-3.52394">
        <ele>65</ele>
        <time>2015-10-26T13:57:31Z</time>
      </trkpt>
      <trkpt lat="48.67749" lon="-3.52395">
        <ele>65</ele>
        <time>2015-10-26T13:57:33Z</time>
      </trkpt>
      <trkpt lat="48.67739" lon="-3.52396">
        <ele>65</ele>
        <time>2015-10-26T13:57:35Z</time>
      </trkpt>
      <trkpt lat="48.67729" lon="-3.52397">
        <ele>66</ele>
        <time>2015-10-26T13:57:37Z</time>
      </trkpt>
      <trkpt lat="48.6772" lon="-3.52394">
        <ele>66</ele>
        <time>2015-10-26T13:57:39Z</time>
      </trkpt>
      <trkpt lat="48.67713" lon="-3.52383">
        <ele>66</ele>
        <time>2015-10-26T13:57:41Z</time>
      </trkpt>
      <trkpt lat="48.6771" lon="-3.52368">
        <ele>66</ele>
        <time>2015-10-26T13:57:43Z</time>
      </trkpt>
      <trkpt lat="48.67706" lon="-3.52353">
        <ele>66</ele>
        <time>2015-10-26T13:57:45Z</time>
      </trkpt>
      <trkpt lat="48.67701" lon="-3.52337">
        <ele>66</ele>
        <time>2015-10-26T13:57:47Z</time>
      </trkpt>
      <trkpt lat="48.67697" lon="-3.52322">
        <ele>66</ele>
        <time>2015-10-26T13:57:49Z</time>
      </trkpt>
      <trkpt lat="48.67692" lon="-3.52308">
        <ele>66</ele>
        <time>2015-10-26T13:57:51Z</time>
      </trkpt>
      <trkpt lat="48.67686" lon="-3.52295">
        <ele>66</ele>
        <time>2015-10-26T13:57:53Z</time>
      </trkpt>
      <trkpt lat="48.67675" lon="-3.52278">
        <ele>66</ele>
        <time>2015-10-26T13:57:56Z</time>
      </trkpt>
      <trkpt lat="48.67666" lon="-3.52269">
        <ele>66</ele>
        <time>2015-10-26T13:57:58Z</time>
      </trkpt>
      <trkpt lat="48.67656" lon="-3.52263">
        <ele>66</ele>
        <time>2015-10-26T13:58:00Z</time>
      </trkpt>
      <trkpt lat="48.67646" lon="-3.52258">
        <ele>66</ele>
        <time>2015-10-26T13:58:02Z</time>
      </trkpt>
      <trkpt lat="48.67636" lon="-3.52254">
        <ele>66</ele>
        <time>2015-10-26T13:58:04Z</time>
      </trkpt>
      <trkpt lat="48.67626" lon="-3.52251">
        <ele>66</ele>
        <time>2015-10-26T13:58:06Z</time>
      </trkpt>
      <trkpt lat="48.67616" lon="-3.52248">
        <ele>67</ele>
        <time>2015-10-26T13:58:08Z</time>
      </trkpt>
      <trkpt lat="48.67606" lon="-3.52245">
        <ele>67</ele>
        <time>2015-10-26T13:58:10Z</time>
      </trkpt>
      <trkpt lat="48.67597" lon="-3.5224">
        <ele>67</ele>
        <time>2015-10-26T13:58:12Z</time>
      </trkpt>
      <trkpt lat="48.67583" lon="-3.52233">
        <ele>67</ele>
        <time>2015-10-26T13:58:15Z</time>
      </trkpt>
      <trkpt lat="48.67573" lon="-3.52228">
        <ele>67</ele>
        <time>2015-10-26T13:58:17Z</time>
      </trkpt>
      <trkpt lat="48.67559" lon="-3.5222">
        <ele>67</ele>
        <time>2015-10-26T13:58:20Z</time>
      </trkpt>
      <trkpt lat="48.67549" lon="-3.52213">
        <ele>67</ele>
        <time>2015-10-26T13:58:22Z</time>
      </trkpt>
      <trkpt lat="48.67539" lon="-3.52207">
        <ele>67</ele>
        <time>2015-10-26T13:58:24Z</time>
      </trkpt>
      <trkpt lat="48.67529" lon="-3.522">
        <ele>67</ele>
        <time>2015-10-26T13:58:26Z</time>
      </trkpt>
      <trkpt lat="48.67515" lon="-3.52188">
        <ele>67</ele>
        <time>2015-10-26T13:58:29Z</time>
      </trkpt>
      <trkpt lat="48.67505" lon="-3.52181">
        <ele>67</ele>
        <time>2015-10-26T13:58:31Z</time>
      </trkpt>
      <trkpt lat="48.67496" lon="-3.52174">
        <ele>67</ele>
        <time>2015-10-26T13:58:33Z</time>
      </trkpt>
      <trkpt lat="48.67487" lon="-3.52167">
        <ele>67</ele>
        <time>2015-10-26T13:58:35Z</time>
      </trkpt>
      <trkpt lat="48.67478" lon="-3.5216">
        <ele>67</ele>
        <time>2015-10-26T13:58:37Z</time>
      </trkpt>
      <trkpt lat="48.67468" lon="-3.52153">
        <ele>67</ele>
        <time>2015-10-26T13:58:39Z</time>
      </trkpt>
      <trkpt lat="48.67459" lon="-3.52145">
        <ele>67</ele>
        <time>2015-10-26T13:58:41Z</time>
      </trkpt>
      <trkpt lat="48.67449" lon="-3.52137">
        <ele>67</ele>
        <time>2015-10-26T13:58:43Z</time>
      </trkpt>
      <trkpt lat="48.67439" lon="-3.52129">
        <ele>67</ele>
        <time>2015-10-26T13:58:45Z</time>
      </trkpt>
      <trkpt lat="48.67429" lon="-3.52119">
        <ele>67</ele>
        <time>2015-10-26T13:58:47Z</time>
      </trkpt>
      <trkpt lat="48.6742" lon="-3.52107">
        <ele>67</ele>
        <time>2015-10-26T13:58:49Z</time>
      </trkpt>
      <trkpt lat="48.67412" lon="-3.52093">
        <ele>67</ele>
        <time>2015-10-26T13:58:51Z</time>
      </trkpt>
      <trkpt lat="48.67406" lon="-3.52077">
        <ele>67</ele>
        <time>2015-10-26T13:58:53Z</time>
      </trkpt>
      <trkpt lat="48.67398" lon="-3.52061">
        <ele>67</ele>
        <time>2015-10-26T13:58:55Z</time>
      </trkpt>
      <trkpt lat="48.6739" lon="-3.52048">
        <ele>67</ele>
        <time>2015-10-26T13:58:57Z</time>
      </trkpt>
      <trkpt lat="48.6738" lon="-3.52035">
        <ele>67</ele>
        <time>2015-10-26T13:58:59Z</time>
      </trkpt>
      <trkpt lat="48.67369" lon="-3.52024">
        <ele>67</ele>
        <time>2015-10-26T13:59:01Z</time>
      </trkpt>
      <trkpt lat="48.67357" lon="-3.52013">
        <ele>67</ele>
        <time>2015-10-26T13:59:03Z</time>
      </trkpt>
      <trkpt lat="48.67345" lon="-3.52002">
        <ele>67</ele>
        <time>2015-10-26T13:59:05Z</time>
      </trkpt>
      <trkpt lat="48.67335" lon="-3.51989">
        <ele>67</ele>
        <time>2015-10-26T13:59:07Z</time>
      </trkpt>
      <trkpt lat="48.67324" lon="-3.51979">
        <ele>66</ele>
        <time>2015-10-26T13:59:09Z</time>
      </trkpt>
      <trkpt lat="48.67309" lon="-3.51969">
        <ele>66</ele>
        <time>2015-10-26T13:59:12Z</time>
      </trkpt>
      <trkpt lat="48.67291" lon="-3.51966">
        <ele>66</ele>
        <time>2015-10-26T13:59:16Z</time>
      </trkpt>
      <trkpt lat="48.67282" lon="-3.51966">
        <ele>66</ele>
        <time>2015-10-26T13:59:18Z</time>
      </trkpt>
      <trkpt lat="48.6727" lon="-3.51968">
        <ele>66</ele>
        <time>2015-10-26T13:59:21Z</time>
      </trkpt>
      <trkpt lat="48.67259" lon="-3.51968">
        <ele>66</ele>
        <time>2015-10-26T13:59:24Z</time>
      </trkpt>
      <trkpt lat="48.6724" lon="-3.51965">
        <ele>65</ele>
        <time>2015-10-26T13:59:29Z</time>
      </trkpt>
      <trkpt lat="48.67224" lon="-3.51959">
        <ele>65</ele>
        <time>2015-10-26T13:59:33Z</time>
      </trkpt>
      <trkpt lat="48.67216" lon="-3.51956">
        <ele>66</ele>
        <time>2015-10-26T13:59:35Z</time>
      </trkpt>
      <trkpt lat="48.67208" lon="-3.51952">
        <ele>66</ele>
        <time>2015-10-26T13:59:37Z</time>
      </trkpt>
      <trkpt lat="48.672" lon="-3.51949">
        <ele>66</ele>
        <time>2015-10-26T13:59:39Z</time>
      </trkpt>
      <trkpt lat="48.67189" lon="-3.51946">
        <ele>66</ele>
        <time>2015-10-26T13:59:42Z</time>
      </trkpt>
      <trkpt lat="48.67179" lon="-3.51943">
        <ele>66</ele>
        <time>2015-10-26T13:59:46Z</time>
      </trkpt>
      <trkpt lat="48.67169" lon="-3.51942">
        <ele>66</ele>
        <time>2015-10-26T13:59:49Z</time>
      </trkpt>
      <trkpt lat="48.6716" lon="-3.5194">
        <ele>66</ele>
        <time>2015-10-26T13:59:51Z</time>
      </trkpt>
      <trkpt lat="48.67151" lon="-3.51938">
        <ele>67</ele>
        <time>2015-10-26T13:59:53Z</time>
      </trkpt>
      <trkpt lat="48.67132" lon="-3.51935">
        <ele>67</ele>
        <time>2015-10-26T13:59:57Z</time>
      </trkpt>
      <trkpt lat="48.67122" lon="-3.51934">
        <ele>67</ele>
        <time>2015-10-26T13:59:59Z</time>
      </trkpt>
      <trkpt lat="48.67111" lon="-3.51934">
        <ele>67</ele>
        <time>2015-10-26T14:00:01Z</time>
      </trkpt>
      <trkpt lat="48.67095" lon="-3.51934">
        <ele>67</ele>
        <time>2015-10-26T14:00:04Z</time>
      </trkpt>
      <trkpt lat="48.67085" lon="-3.51935">
        <ele>67</ele>
        <time>2015-10-26T14:00:06Z</time>
      </trkpt>
      <trkpt lat="48.67076" lon="-3.51936">
        <ele>67</ele>
        <time>2015-10-26T14:00:08Z</time>
      </trkpt>
      <trkpt lat="48.67068" lon="-3.51937">
        <ele>68</ele>
        <time>2015-10-26T14:00:10Z</time>
      </trkpt>
      <trkpt lat="48.6706" lon="-3.51939">
        <ele>68</ele>
        <time>2015-10-26T14:00:12Z</time>
      </trkpt>
      <trkpt lat="48.67046" lon="-3.51943">
        <ele>68</ele>
        <time>2015-10-26T14:00:15Z</time>
      </trkpt>
      <trkpt lat="48.67036" lon="-3.51946">
        <ele>68</ele>
        <time>2015-10-26T14:00:17Z</time>
      </trkpt>
      <trkpt lat="48.67025" lon="-3.51951">
        <ele>68</ele>
        <time>2015-10-26T14:00:19Z</time>
      </trkpt>
      <trkpt lat="48.67014" lon="-3.51956">
        <ele>68</ele>
        <time>2015-10-26T14:00:21Z</time>
      </trkpt>
      <trkpt lat="48.66996" lon="-3.51966">
        <ele>68</ele>
        <time>2015-10-26T14:00:24Z</time>
      </trkpt>
      <trkpt lat="48.66983" lon="-3.51974">
        <ele>68</ele>
        <time>2015-10-26T14:00:26Z</time>
      </trkpt>
      <trkpt lat="48.66964" lon="-3.51987">
        <ele>68</ele>
        <time>2015-10-26T14:00:29Z</time>
      </trkpt>
      <trkpt lat="48.66952" lon="-3.51995">
        <ele>68</ele>
        <time>2015-10-26T14:00:31Z</time>
      </trkpt>
      <trkpt lat="48.6694" lon="-3.52002">
        <ele>68</ele>
        <time>2015-10-26T14:00:33Z</time>
      </trkpt>
      <trkpt lat="48.66927" lon="-3.52007">
        <ele>68</ele>
        <time>2015-10-26T14:00:35Z</time>
      </trkpt>
      <trkpt lat="48.66916" lon="-3.52012">
        <ele>67</ele>
        <time>2015-10-26T14:00:37Z</time>
      </trkpt>
      <trkpt lat="48.66905" lon="-3.52016">
        <ele>67</ele>
        <time>2015-10-26T14:00:39Z</time>
      </trkpt>
      <trkpt lat="48.66889" lon="-3.52022">
        <ele>67</ele>
        <time>2015-10-26T14:00:42Z</time>
      </trkpt>
      <trkpt lat="48.66873" lon="-3.5203">
        <ele>67</ele>
        <time>2015-10-26T14:00:45Z</time>
      </trkpt>
      <trkpt lat="48.66856" lon="-3.52038">
        <ele>67</ele>
        <time>2015-10-26T14:00:48Z</time>
      </trkpt>
      <trkpt lat="48.66839" lon="-3.52049">
        <ele>67</ele>
        <time>2015-10-26T14:00:51Z</time>
      </trkpt>
      <trkpt lat="48.66823" lon="-3.52067">
        <ele>67</ele>
        <time>2015-10-26T14:00:55Z</time>
      </trkpt>
      <trkpt lat="48.66809" lon="-3.52084">
        <ele>66</ele>
        <time>2015-10-26T14:00:59Z</time>
      </trkpt>
      <trkpt lat="48.66796" lon="-3.52099">
        <ele>66</ele>
        <time>2015-10-26T14:01:02Z</time>
      </trkpt>
      <trkpt lat="48.66782" lon="-3.52112">
        <ele>65</ele>
        <time>2015-10-26T14:01:05Z</time>
      </trkpt>
      <trkpt lat="48.66766" lon="-3.52128">
        <ele>65</ele>
        <time>2015-10-26T14:01:09Z</time>
      </trkpt>
      <trkpt lat="48.66757" lon="-3.52139">
        <ele>64</ele>
        <time>2015-10-26T14:01:12Z</time>
      </trkpt>
      <trkpt lat="48.6675" lon="-3.5215">
        <ele>64</ele>
        <time>2015-10-26T14:01:15Z</time>
      </trkpt>
      <trkpt lat="48.66743" lon="-3.5216">
        <ele>63</ele>
        <time>2015-10-26T14:01:18Z</time>
      </trkpt>
      <trkpt lat="48.66736" lon="-3.5217">
        <ele>63</ele>
        <time>2015-10-26T14:01:21Z</time>
      </trkpt>
      <trkpt lat="48.66727" lon="-3.52183">
        <ele>63</ele>
        <time>2015-10-26T14:01:25Z</time>
      </trkpt>
      <trkpt lat="48.6672" lon="-3.52191">
        <ele>62</ele>
        <time>2015-10-26T14:01:28Z</time>
      </trkpt>
      <trkpt lat="48.66713" lon="-3.52199">
        <ele>62</ele>
        <time>2015-10-26T14:01:31Z</time>
      </trkpt>
      <trkpt lat="48.66706" lon="-3.52207">
        <ele>62</ele>
        <time>2015-10-26T14:01:34Z</time>
      </trkpt>
      <trkpt lat="48.66699" lon="-3.52215">
        <ele>62</ele>
        <time>2015-10-26T14:01:37Z</time>
      </trkpt>
      <trkpt lat="48.66692" lon="-3.52224">
        <ele>62</ele>
        <time>2015-10-26T14:01:40Z</time>
      </trkpt>
      <trkpt lat="48.66683" lon="-3.52235">
        <ele>61</ele>
        <time>2015-10-26T14:01:44Z</time>
      </trkpt>
      <trkpt lat="48.66675" lon="-3.52244">
        <ele>61</ele>
        <time>2015-10-26T14:01:47Z</time>
      </trkpt>
      <trkpt lat="48.66664" lon="-3.52256">
        <ele>61</ele>
        <time>2015-10-26T14:01:51Z</time>
      </trkpt>
      <trkpt lat="48.66654" lon="-3.52263">
        <ele>61</ele>
        <time>2015-10-26T14:01:54Z</time>
      </trkpt>
      <trkpt lat="48.66643" lon="-3.52266">
        <ele>61</ele>
        <time>2015-10-26T14:01:57Z</time>
      </trkpt>
      <trkpt lat="48.66632" lon="-3.52264">
        <ele>61</ele>
        <time>2015-10-26T14:02:00Z</time>
      </trkpt>
      <trkpt lat="48.66622" lon="-3.52257">
        <ele>61</ele>
        <time>2015-10-26T14:02:03Z</time>
      </trkpt>
      <trkpt lat="48.66608" lon="-3.52243">
        <ele>61</ele>
        <time>2015-10-26T14:02:07Z</time>
      </trkpt>
      <trkpt lat="48.666" lon="-3.52238">
        <ele>61</ele>
        <time>2015-10-26T14:02:09Z</time>
      </trkpt>
      <trkpt lat="48.66591" lon="-3.52235">
        <ele>61</ele>
        <time>2015-10-26T14:02:11Z</time>
      </trkpt>
      <trkpt lat="48.66582" lon="-3.52236">
        <ele>61</ele>
        <time>2015-10-26T14:02:13Z</time>
      </trkpt>
      <trkpt lat="48.66574" lon="-3.5224">
        <ele>61</ele>
        <time>2015-10-26T14:02:15Z</time>
      </trkpt>
      <trkpt lat="48.66564" lon="-3.52248">
        <ele>60</ele>
        <time>2015-10-26T14:02:18Z</time>
      </trkpt>
      <trkpt lat="48.66554" lon="-3.52256">
        <ele>60</ele>
        <time>2015-10-26T14:02:21Z</time>
      </trkpt>
      <trkpt lat="48.66545" lon="-3.52265">
        <ele>60</ele>
        <time>2015-10-26T14:02:24Z</time>
      </trkpt>
      <trkpt lat="48.66537" lon="-3.52272">
        <ele>60</ele>
        <time>2015-10-26T14:02:27Z</time>
      </trkpt>
      <trkpt lat="48.66528" lon="-3.52279">
        <ele>60</ele>
        <time>2015-10-26T14:02:30Z</time>
      </trkpt>
      <trkpt lat="48.6652" lon="-3.52285">
        <ele>60</ele>
        <time>2015-10-26T14:02:33Z</time>
      </trkpt>
      <trkpt lat="48.66511" lon="-3.5229">
        <ele>60</ele>
        <time>2015-10-26T14:02:36Z</time>
      </trkpt>
      <trkpt lat="48.66502" lon="-3.52295">
        <ele>60</ele>
        <time>2015-10-26T14:02:39Z</time>
      </trkpt>
      <trkpt lat="48.66493" lon="-3.52299">
        <ele>60</ele>
        <time>2015-10-26T14:02:42Z</time>
      </trkpt>
      <trkpt lat="48.66484" lon="-3.52302">
        <ele>60</ele>
        <time>2015-10-26T14:02:45Z</time>
      </trkpt>
      <trkpt lat="48.66474" lon="-3.52304">
        <ele>60</ele>
        <time>2015-10-26T14:02:48Z</time>
      </trkpt>
      <trkpt lat="48.66459" lon="-3.52301">
        <ele>61</ele>
        <time>2015-10-26T14:02:52Z</time>
      </trkpt>
      <trkpt lat="48.66447" lon="-3.52296">
        <ele>60</ele>
        <time>2015-10-26T14:02:55Z</time>
      </trkpt>
      <trkpt lat="48.66427" lon="-3.5229">
        <ele>60</ele>
        <time>2015-10-26T14:02:59Z</time>
      </trkpt>
      <trkpt lat="48.66407" lon="-3.52293">
        <ele>60</ele>
        <time>2015-10-26T14:03:03Z</time>
      </trkpt>
      <trkpt lat="48.66398" lon="-3.52298">
        <ele>60</ele>
        <time>2015-10-26T14:03:05Z</time>
      </trkpt>
      <trkpt lat="48.6639" lon="-3.52302">
        <ele>60</ele>
        <time>2015-10-26T14:03:07Z</time>
      </trkpt>
      <trkpt lat="48.66382" lon="-3.52308">
        <ele>60</ele>
        <time>2015-10-26T14:03:09Z</time>
      </trkpt>
      <trkpt lat="48.66374" lon="-3.52314">
        <ele>60</ele>
        <time>2015-10-26T14:03:11Z</time>
      </trkpt>
      <trkpt lat="48.66366" lon="-3.52319">
        <ele>60</ele>
        <time>2015-10-26T14:03:13Z</time>
      </trkpt>
      <trkpt lat="48.66355" lon="-3.52326">
        <ele>60</ele>
        <time>2015-10-26T14:03:16Z</time>
      </trkpt>
      <trkpt lat="48.66337" lon="-3.52335">
        <ele>60</ele>
        <time>2015-10-26T14:03:21Z</time>
      </trkpt>
      <trkpt lat="48.66322" lon="-3.52341">
        <ele>60</ele>
        <time>2015-10-26T14:03:25Z</time>
      </trkpt>
      <trkpt lat="48.66307" lon="-3.5235">
        <ele>60</ele>
        <time>2015-10-26T14:03:29Z</time>
      </trkpt>
      <trkpt lat="48.663" lon="-3.52358">
        <ele>60</ele>
        <time>2015-10-26T14:03:31Z</time>
      </trkpt>
      <trkpt lat="48.66293" lon="-3.52365">
        <ele>60</ele>
        <time>2015-10-26T14:03:33Z</time>
      </trkpt>
      <trkpt lat="48.66286" lon="-3.52373">
        <ele>60</ele>
        <time>2015-10-26T14:03:35Z</time>
      </trkpt>
      <trkpt lat="48.66278" lon="-3.52379">
        <ele>60</ele>
        <time>2015-10-26T14:03:37Z</time>
      </trkpt>
      <trkpt lat="48.66262" lon="-3.52382">
        <ele>60</ele>
        <time>2015-10-26T14:03:41Z</time>
      </trkpt>
      <trkpt lat="48.66246" lon="-3.52372">
        <ele>60</ele>
        <time>2015-10-26T14:03:45Z</time>
      </trkpt>
      <trkpt lat="48.66231" lon="-3.52362">
        <ele>60</ele>
        <time>2015-10-26T14:03:49Z</time>
      </trkpt>
      <trkpt lat="48.66223" lon="-3.52357">
        <ele>60</ele>
        <time>2015-10-26T14:03:51Z</time>
      </trkpt>
      <trkpt lat="48.66206" lon="-3.52347">
        <ele>60</ele>
        <time>2015-10-26T14:03:55Z</time>
      </trkpt>
      <trkpt lat="48.66198" lon="-3.52343">
        <ele>60</ele>
        <time>2015-10-26T14:03:57Z</time>
      </trkpt>
      <trkpt lat="48.6619" lon="-3.52338">
        <ele>60</ele>
        <time>2015-10-26T14:03:59Z</time>
      </trkpt>
      <trkpt lat="48.66182" lon="-3.52333">
        <ele>60</ele>
        <time>2015-10-26T14:04:01Z</time>
      </trkpt>
      <trkpt lat="48.6617" lon="-3.52325">
        <ele>60</ele>
        <time>2015-10-26T14:04:04Z</time>
      </trkpt>
      <trkpt lat="48.66162" lon="-3.52319">
        <ele>60</ele>
        <time>2015-10-26T14:04:06Z</time>
      </trkpt>
      <trkpt lat="48.66154" lon="-3.52314">
        <ele>60</ele>
        <time>2015-10-26T14:04:08Z</time>
      </trkpt>
      <trkpt lat="48.66138" lon="-3.52302">
        <ele>60</ele>
        <time>2015-10-26T14:04:12Z</time>
      </trkpt>
      <trkpt lat="48.6613" lon="-3.52296">
        <ele>60</ele>
        <time>2015-10-26T14:04:14Z</time>
      </trkpt>
      <trkpt lat="48.66113" lon="-3.52284">
        <ele>60</ele>
        <time>2015-10-26T14:04:18Z</time>
      </trkpt>
      <trkpt lat="48.66097" lon="-3.52273">
        <ele>60</ele>
        <time>2015-10-26T14:04:22Z</time>
      </trkpt>
      <trkpt lat="48.66081" lon="-3.52259">
        <ele>60</ele>
        <time>2015-10-26T14:04:26Z</time>
      </trkpt>
      <trkpt lat="48.66074" lon="-3.52252">
        <ele>60</ele>
        <time>2015-10-26T14:04:28Z</time>
      </trkpt>
      <trkpt lat="48.66058" lon="-3.5224">
        <ele>60</ele>
        <time>2015-10-26T14:04:32Z</time>
      </trkpt>
      <trkpt lat="48.66049" lon="-3.52244">
        <ele>61</ele>
        <time>2015-10-26T14:04:34Z</time>
      </trkpt>
      <trkpt lat="48.66041" lon="-3.52252">
        <ele>61</ele>
        <time>2015-10-26T14:04:36Z</time>
      </trkpt>
      <trkpt lat="48.66035" lon="-3.52262">
        <ele>61</ele>
        <time>2015-10-26T14:04:38Z</time>
      </trkpt>
      <trkpt lat="48.66029" lon="-3.52273">
        <ele>61</ele>
        <time>2015-10-26T14:04:40Z</time>
      </trkpt>
      <trkpt lat="48.66024" lon="-3.52285">
        <ele>61</ele>
        <time>2015-10-26T14:04:42Z</time>
      </trkpt>
      <trkpt lat="48.66019" lon="-3.52296">
        <ele>61</ele>
        <time>2015-10-26T14:04:44Z</time>
      </trkpt>
      <trkpt lat="48.66014" lon="-3.52307">
        <ele>61</ele>
        <time>2015-10-26T14:04:46Z</time>
      </trkpt>
      <trkpt lat="48.66004" lon="-3.52329">
        <ele>61</ele>
        <time>2015-10-26T14:04:50Z</time>
      </trkpt>
      <trkpt lat="48.65998" lon="-3.5234">
        <ele>62</ele>
        <time>2015-10-26T14:04:52Z</time>
      </trkpt>
      <trkpt lat="48.65991" lon="-3.5235">
        <ele>62</ele>
        <time>2015-10-26T14:04:54Z</time>
      </trkpt>
      <trkpt lat="48.65983" lon="-3.52359">
        <ele>62</ele>
        <time>2015-10-26T14:04:56Z</time>
      </trkpt>
      <trkpt lat="48.65975" lon="-3.52368">
        <ele>62</ele>
        <time>2015-10-26T14:04:58Z</time>
      </trkpt>
      <trkpt lat="48.65967" lon="-3.52376">
        <ele>62</ele>
        <time>2015-10-26T14:05:00Z</time>
      </trkpt>
      <trkpt lat="48.65958" lon="-3.52383">
        <ele>62</ele>
        <time>2015-10-26T14:05:02Z</time>
      </trkpt>
      <trkpt lat="48.6595" lon="-3.5239">
        <ele>62</ele>
        <time>2015-10-26T14:05:04Z</time>
      </trkpt>
      <trkpt lat="48.65941" lon="-3.52396">
        <ele>62</ele>
        <time>2015-10-26T14:05:06Z</time>
      </trkpt>
      <trkpt lat="48.65932" lon="-3.52403">
        <ele>62</ele>
        <time>2015-10-26T14:05:08Z</time>
      </trkpt>
      <trkpt lat="48.65918" lon="-3.52414">
        <ele>62</ele>
        <time>2015-10-26T14:05:11Z</time>
      </trkpt>
      <trkpt lat="48.65908" lon="-3.5242">
        <ele>62</ele>
        <time>2015-10-26T14:05:13Z</time>
      </trkpt>
      <trkpt lat="48.65898" lon="-3.52426">
        <ele>62</ele>
        <time>2015-10-26T14:05:15Z</time>
      </trkpt>
      <trkpt lat="48.65888" lon="-3.52432">
        <ele>63</ele>
        <time>2015-10-26T14:05:17Z</time>
      </trkpt>
      <trkpt lat="48.65873" lon="-3.52439">
        <ele>63</ele>
        <time>2015-10-26T14:05:20Z</time>
      </trkpt>
      <trkpt lat="48.65858" lon="-3.52445">
        <ele>63</ele>
        <time>2015-10-26T14:05:23Z</time>
      </trkpt>
      <trkpt lat="48.65843" lon="-3.52452">
        <ele>62</ele>
        <time>2015-10-26T14:05:26Z</time>
      </trkpt>
      <trkpt lat="48.65825" lon="-3.5246">
        <ele>62</ele>
        <time>2015-10-26T14:05:30Z</time>
      </trkpt>
      <trkpt lat="48.65807" lon="-3.52469">
        <ele>62</ele>
        <time>2015-10-26T14:05:34Z</time>
      </trkpt>
      <trkpt lat="48.65783" lon="-3.52481">
        <ele>62</ele>
        <time>2015-10-26T14:05:39Z</time>
      </trkpt>
      <trkpt lat="48.65768" lon="-3.52487">
        <ele>63</ele>
        <time>2015-10-26T14:05:42Z</time>
      </trkpt>
      <trkpt lat="48.65752" lon="-3.52492">
        <ele>63</ele>
        <time>2015-10-26T14:05:45Z</time>
      </trkpt>
      <trkpt lat="48.65729" lon="-3.52496">
        <ele>63</ele>
        <time>2015-10-26T14:05:49Z</time>
      </trkpt>
      <trkpt lat="48.65713" lon="-3.52497">
        <ele>63</ele>
        <time>2015-10-26T14:05:52Z</time>
      </trkpt>
      <trkpt lat="48.65671" lon="-3.52498">
        <ele>63</ele>
        <time>2015-10-26T14:06:00Z</time>
      </trkpt>
      <trkpt lat="48.65628" lon="-3.52493">
        <ele>63</ele>
        <time>2015-10-26T14:06:08Z</time>
      </trkpt>
      <trkpt lat="48.65612" lon="-3.52482">
        <ele>64</ele>
        <time>2015-10-26T14:06:11Z</time>
      </trkpt>
      <trkpt lat="48.65599" lon="-3.52465">
        <ele>64</ele>
        <time>2015-10-26T14:06:14Z</time>
      </trkpt>
      <trkpt lat="48.65594" lon="-3.52444">
        <ele>64</ele>
        <time>2015-10-26T14:06:17Z</time>
      </trkpt>
      <trkpt lat="48.65594" lon="-3.52416">
        <ele>64</ele>
        <time>2015-10-26T14:06:22Z</time>
      </trkpt>
      <trkpt lat="48.65595" lon="-3.5239">
        <ele>63</ele>
        <time>2015-10-26T14:06:27Z</time>
      </trkpt>
      <trkpt lat="48.65595" lon="-3.52374">
        <ele>63</ele>
        <time>2015-10-26T14:06:30Z</time>
      </trkpt>
      <trkpt lat="48.65596" lon="-3.52359">
        <ele>63</ele>
        <time>2015-10-26T14:06:33Z</time>
      </trkpt>
      <trkpt lat="48.65597" lon="-3.52344">
        <ele>64</ele>
        <time>2015-10-26T14:06:36Z</time>
      </trkpt>
      <trkpt lat="48.65599" lon="-3.52331">
        <ele>64</ele>
        <time>2015-10-26T14:06:39Z</time>
      </trkpt>
      <trkpt lat="48.65601" lon="-3.52317">
        <ele>64</ele>
        <time>2015-10-26T14:06:42Z</time>
      </trkpt>
      <trkpt lat="48.65603" lon="-3.52305">
        <ele>64</ele>
        <time>2015-10-26T14:06:45Z</time>
      </trkpt>
      <trkpt lat="48.656" lon="-3.52286">
        <ele>64</ele>
        <time>2015-10-26T14:06:50Z</time>
      </trkpt>
      <trkpt lat="48.65592" lon="-3.52279">
        <ele>64</ele>
        <time>2015-10-26T14:06:54Z</time>
      </trkpt>
      <trkpt lat="48.65583" lon="-3.52273">
        <ele>64</ele>
        <time>2015-10-26T14:06:58Z</time>
      </trkpt>
      <trkpt lat="48.65567" lon="-3.52268">
        <ele>64</ele>
        <time>2015-10-26T14:07:05Z</time>
      </trkpt>
      <trkpt lat="48.6555" lon="-3.52265">
        <ele>64</ele>
        <time>2015-10-26T14:07:12Z</time>
      </trkpt>
      <trkpt lat="48.65533" lon="-3.52262">
        <ele>64</ele>
        <time>2015-10-26T14:07:18Z</time>
      </trkpt>
      <trkpt lat="48.65516" lon="-3.5226">
        <ele>64</ele>
        <time>2015-10-26T14:07:23Z</time>
      </trkpt>
      <trkpt lat="48.65501" lon="-3.52261">
        <ele>65</ele>
        <time>2015-10-26T14:07:27Z</time>
      </trkpt>
      <trkpt lat="48.65483" lon="-3.52265">
        <ele>65</ele>
        <time>2015-10-26T14:07:32Z</time>
      </trkpt>
      <trkpt lat="48.65465" lon="-3.52267">
        <ele>65</ele>
        <time>2015-10-26T14:07:37Z</time>
      </trkpt>
      <trkpt lat="48.65454" lon="-3.52267">
        <ele>65</ele>
        <time>2015-10-26T14:07:40Z</time>
      </trkpt>
      <trkpt lat="48.65438" lon="-3.52266">
        <ele>66</ele>
        <time>2015-10-26T14:07:44Z</time>
      </trkpt>
      <trkpt lat="48.65421" lon="-3.52265">
        <ele>66</ele>
        <time>2015-10-26T14:07:48Z</time>
      </trkpt>
      <trkpt lat="48.65412" lon="-3.52264">
        <ele>66</ele>
        <time>2015-10-26T14:07:50Z</time>
      </trkpt>
      <trkpt lat="48.65403" lon="-3.52264">
        <ele>67</ele>
        <time>2015-10-26T14:07:52Z</time>
      </trkpt>
      <trkpt lat="48.65394" lon="-3.52263">
        <ele>67</ele>
        <time>2015-10-26T14:07:54Z</time>
      </trkpt>
      <trkpt lat="48.65384" lon="-3.52261">
        <ele>67</ele>
        <time>2015-10-26T14:07:56Z</time>
      </trkpt>
      <trkpt lat="48.65364" lon="-3.52254">
        <ele>67</ele>
        <time>2015-10-26T14:08:00Z</time>
      </trkpt>
      <trkpt lat="48.65345" lon="-3.52242">
        <ele>68</ele>
        <time>2015-10-26T14:08:04Z</time>
      </trkpt>
      <trkpt lat="48.65332" lon="-3.52225">
        <ele>68</ele>
        <time>2015-10-26T14:08:08Z</time>
      </trkpt>
      <trkpt lat="48.65326" lon="-3.5221">
        <ele>68</ele>
        <time>2015-10-26T14:08:11Z</time>
      </trkpt>
      <trkpt lat="48.65316" lon="-3.52196">
        <ele>68</ele>
        <time>2015-10-26T14:08:15Z</time>
      </trkpt>
      <trkpt lat="48.65301" lon="-3.52199">
        <ele>68</ele>
        <time>2015-10-26T14:08:19Z</time>
      </trkpt>
      <trkpt lat="48.65281" lon="-3.52204">
        <ele>68</ele>
        <time>2015-10-26T14:08:23Z</time>
      </trkpt>
      <trkpt lat="48.65265" lon="-3.52208">
        <ele>68</ele>
        <time>2015-10-26T14:08:26Z</time>
      </trkpt>
      <trkpt lat="48.65249" lon="-3.52214">
        <ele>68</ele>
        <time>2015-10-26T14:08:29Z</time>
      </trkpt>
      <trkpt lat="48.65232" lon="-3.52219">
        <ele>68</ele>
        <time>2015-10-26T14:08:32Z</time>
      </trkpt>
      <trkpt lat="48.65215" lon="-3.52225">
        <ele>68</ele>
        <time>2015-10-26T14:08:35Z</time>
      </trkpt>
      <trkpt lat="48.65198" lon="-3.52233">
        <ele>68</ele>
        <time>2015-10-26T14:08:38Z</time>
      </trkpt>
      <trkpt lat="48.65187" lon="-3.5224">
        <ele>68</ele>
        <time>2015-10-26T14:08:40Z</time>
      </trkpt>
      <trkpt lat="48.65176" lon="-3.52247">
        <ele>68</ele>
        <time>2015-10-26T14:08:42Z</time>
      </trkpt>
      <trkpt lat="48.65161" lon="-3.5226">
        <ele>68</ele>
        <time>2015-10-26T14:08:45Z</time>
      </trkpt>
      <trkpt lat="48.65151" lon="-3.5227">
        <ele>68</ele>
        <time>2015-10-26T14:08:47Z</time>
      </trkpt>
      <trkpt lat="48.65137" lon="-3.52284">
        <ele>68</ele>
        <time>2015-10-26T14:08:50Z</time>
      </trkpt>
      <trkpt lat="48.65128" lon="-3.52294">
        <ele>68</ele>
        <time>2015-10-26T14:08:52Z</time>
      </trkpt>
      <trkpt lat="48.6512" lon="-3.52303">
        <ele>68</ele>
        <time>2015-10-26T14:08:54Z</time>
      </trkpt>
      <trkpt lat="48.65112" lon="-3.52312">
        <ele>68</ele>
        <time>2015-10-26T14:08:56Z</time>
      </trkpt>
      <trkpt lat="48.65096" lon="-3.5233">
        <ele>68</ele>
        <time>2015-10-26T14:09:00Z</time>
      </trkpt>
      <trkpt lat="48.65088" lon="-3.52339">
        <ele>68</ele>
        <time>2015-10-26T14:09:02Z</time>
      </trkpt>
      <trkpt lat="48.65076" lon="-3.52352">
        <ele>68</ele>
        <time>2015-10-26T14:09:05Z</time>
      </trkpt>
      <trkpt lat="48.65069" lon="-3.5236">
        <ele>68</ele>
        <time>2015-10-26T14:09:07Z</time>
      </trkpt>
      <trkpt lat="48.65054" lon="-3.52376">
        <ele>68</ele>
        <time>2015-10-26T14:09:11Z</time>
      </trkpt>
      <trkpt lat="48.65044" lon="-3.52388">
        <ele>68</ele>
        <time>2015-10-26T14:09:14Z</time>
      </trkpt>
      <trkpt lat="48.65036" lon="-3.52396">
        <ele>68</ele>
        <time>2015-10-26T14:09:16Z</time>
      </trkpt>
      <trkpt lat="48.65029" lon="-3.52403">
        <ele>69</ele>
        <time>2015-10-26T14:09:18Z</time>
      </trkpt>
      <trkpt lat="48.65021" lon="-3.5241">
        <ele>68</ele>
        <time>2015-10-26T14:09:20Z</time>
      </trkpt>
      <trkpt lat="48.65013" lon="-3.52417">
        <ele>69</ele>
        <time>2015-10-26T14:09:22Z</time>
      </trkpt>
      <trkpt lat="48.65005" lon="-3.52423">
        <ele>69</ele>
        <time>2015-10-26T14:09:24Z</time>
      </trkpt>
      <trkpt lat="48.64988" lon="-3.52435">
        <ele>69</ele>
        <time>2015-10-26T14:09:28Z</time>
      </trkpt>
      <trkpt lat="48.64978" lon="-3.52439">
        <ele>69</ele>
        <time>2015-10-26T14:09:30Z</time>
      </trkpt>
      <trkpt lat="48.64968" lon="-3.52444">
        <ele>69</ele>
        <time>2015-10-26T14:09:32Z</time>
      </trkpt>
      <trkpt lat="48.64952" lon="-3.52448">
        <ele>69</ele>
        <time>2015-10-26T14:09:35Z</time>
      </trkpt>
      <trkpt lat="48.64942" lon="-3.52449">
        <ele>69</ele>
        <time>2015-10-26T14:09:37Z</time>
      </trkpt>
      <trkpt lat="48.64931" lon="-3.5245">
        <ele>69</ele>
        <time>2015-10-26T14:09:39Z</time>
      </trkpt>
      <trkpt lat="48.64921" lon="-3.52449">
        <ele>69</ele>
        <time>2015-10-26T14:09:41Z</time>
      </trkpt>
      <trkpt lat="48.64901" lon="-3.52447">
        <ele>69</ele>
        <time>2015-10-26T14:09:45Z</time>
      </trkpt>
      <trkpt lat="48.64892" lon="-3.52445">
        <ele>69</ele>
        <time>2015-10-26T14:09:47Z</time>
      </trkpt>
      <trkpt lat="48.64874" lon="-3.5244">
        <ele>68</ele>
        <time>2015-10-26T14:09:52Z</time>
      </trkpt>
      <trkpt lat="48.64863" lon="-3.52435">
        <ele>68</ele>
        <time>2015-10-26T14:09:55Z</time>
      </trkpt>
      <trkpt lat="48.64848" lon="-3.52425">
        <ele>68</ele>
        <time>2015-10-26T14:09:59Z</time>
      </trkpt>
      <trkpt lat="48.6484" lon="-3.52419">
        <ele>68</ele>
        <time>2015-10-26T14:10:01Z</time>
      </trkpt>
      <trkpt lat="48.64832" lon="-3.52414">
        <ele>68</ele>
        <time>2015-10-26T14:10:03Z</time>
      </trkpt>
      <trkpt lat="48.6482" lon="-3.52407">
        <ele>68</ele>
        <time>2015-10-26T14:10:06Z</time>
      </trkpt>
      <trkpt lat="48.64804" lon="-3.524">
        <ele>68</ele>
        <time>2015-10-26T14:10:10Z</time>
      </trkpt>
      <trkpt lat="48.64787" lon="-3.52395">
        <ele>68</ele>
        <time>2015-10-26T14:10:14Z</time>
      </trkpt>
      <trkpt lat="48.64778" lon="-3.52393">
        <ele>68</ele>
        <time>2015-10-26T14:10:16Z</time>
      </trkpt>
      <trkpt lat="48.64769" lon="-3.52391">
        <ele>68</ele>
        <time>2015-10-26T14:10:18Z</time>
      </trkpt>
      <trkpt lat="48.64758" lon="-3.5239">
        <ele>68</ele>
        <time>2015-10-26T14:10:20Z</time>
      </trkpt>
      <trkpt lat="48.64747" lon="-3.52389">
        <ele>68</ele>
        <time>2015-10-26T14:10:22Z</time>
      </trkpt>
      <trkpt lat="48.64729" lon="-3.52388">
        <ele>68</ele>
        <time>2015-10-26T14:10:25Z</time>
      </trkpt>
      <trkpt lat="48.64717" lon="-3.52388">
        <ele>68</ele>
        <time>2015-10-26T14:10:27Z</time>
      </trkpt>
      <trkpt lat="48.64706" lon="-3.52388">
        <ele>68</ele>
        <time>2015-10-26T14:10:29Z</time>
      </trkpt>
      <trkpt lat="48.64695" lon="-3.52387">
        <ele>69</ele>
        <time>2015-10-26T14:10:31Z</time>
      </trkpt>
      <trkpt lat="48.64678" lon="-3.52386">
        <ele>69</ele>
        <time>2015-10-26T14:10:34Z</time>
      </trkpt>
      <trkpt lat="48.64667" lon="-3.52383">
        <ele>69</ele>
        <time>2015-10-26T14:10:36Z</time>
      </trkpt>
      <trkpt lat="48.64656" lon="-3.52379">
        <ele>69</ele>
        <time>2015-10-26T14:10:38Z</time>
      </trkpt>
      <trkpt lat="48.64646" lon="-3.52374">
        <ele>69</ele>
        <time>2015-10-26T14:10:40Z</time>
      </trkpt>
      <trkpt lat="48.64636" lon="-3.5237">
        <ele>69</ele>
        <time>2015-10-26T14:10:42Z</time>
      </trkpt>
      <trkpt lat="48.64627" lon="-3.52365">
        <ele>69</ele>
        <time>2015-10-26T14:10:44Z</time>
      </trkpt>
      <trkpt lat="48.64619" lon="-3.5236">
        <ele>69</ele>
        <time>2015-10-26T14:10:46Z</time>
      </trkpt>
      <trkpt lat="48.64603" lon="-3.52351">
        <ele>69</ele>
        <time>2015-10-26T14:10:50Z</time>
      </trkpt>
      <trkpt lat="48.64592" lon="-3.52344">
        <ele>69</ele>
        <time>2015-10-26T14:10:53Z</time>
      </trkpt>
      <trkpt lat="48.64581" lon="-3.52338">
        <ele>69</ele>
        <time>2015-10-26T14:10:56Z</time>
      </trkpt>
      <trkpt lat="48.6457" lon="-3.52331">
        <ele>70</ele>
        <time>2015-10-26T14:10:59Z</time>
      </trkpt>
      <trkpt lat="48.64557" lon="-3.52322">
        <ele>70</ele>
        <time>2015-10-26T14:11:03Z</time>
      </trkpt>
      <trkpt lat="48.64547" lon="-3.52316">
        <ele>70</ele>
        <time>2015-10-26T14:11:06Z</time>
      </trkpt>
      <trkpt lat="48.64536" lon="-3.52309">
        <ele>70</ele>
        <time>2015-10-26T14:11:10Z</time>
      </trkpt>
      <trkpt lat="48.64528" lon="-3.52304">
        <ele>70</ele>
        <time>2015-10-26T14:11:13Z</time>
      </trkpt>
      <trkpt lat="48.6452" lon="-3.52299">
        <ele>70</ele>
        <time>2015-10-26T14:11:16Z</time>
      </trkpt>
      <trkpt lat="48.64512" lon="-3.52294">
        <ele>71</ele>
        <time>2015-10-26T14:11:19Z</time>
      </trkpt>
      <trkpt lat="48.64501" lon="-3.52286">
        <ele>71</ele>
        <time>2015-10-26T14:11:23Z</time>
      </trkpt>
      <trkpt lat="48.64493" lon="-3.5228">
        <ele>71</ele>
        <time>2015-10-26T14:11:26Z</time>
      </trkpt>
      <trkpt lat="48.64485" lon="-3.52274">
        <ele>71</ele>
        <time>2015-10-26T14:11:29Z</time>
      </trkpt>
      <trkpt lat="48.64468" lon="-3.52262">
        <ele>71</ele>
        <time>2015-10-26T14:11:35Z</time>
      </trkpt>
      <trkpt lat="48.6446" lon="-3.52256">
        <ele>71</ele>
        <time>2015-10-26T14:11:38Z</time>
      </trkpt>
      <trkpt lat="48.64452" lon="-3.5225">
        <ele>72</ele>
        <time>2015-10-26T14:11:41Z</time>
      </trkpt>
      <trkpt lat="48.64441" lon="-3.52242">
        <ele>72</ele>
        <time>2015-10-26T14:11:45Z</time>
      </trkpt>
      <trkpt lat="48.64428" lon="-3.52233">
        <ele>72</ele>
        <time>2015-10-26T14:11:50Z</time>
      </trkpt>
      <trkpt lat="48.64418" lon="-3.52225">
        <ele>72</ele>
        <time>2015-10-26T14:11:54Z</time>
      </trkpt>
      <trkpt lat="48.6441" lon="-3.52219">
        <ele>73</ele>
        <time>2015-10-26T14:11:57Z</time>
      </trkpt>
      <trkpt lat="48.64401" lon="-3.52213">
        <ele>73</ele>
        <time>2015-10-26T14:12:00Z</time>
      </trkpt>
      <trkpt lat="48.64393" lon="-3.52208">
        <ele>73</ele>
        <time>2015-10-26T14:12:03Z</time>
      </trkpt>
      <trkpt lat="48.64382" lon="-3.522">
        <ele>73</ele>
        <time>2015-10-26T14:12:07Z</time>
      </trkpt>
      <trkpt lat="48.64373" lon="-3.52194">
        <ele>73</ele>
        <time>2015-10-26T14:12:10Z</time>
      </trkpt>
      <trkpt lat="48.64359" lon="-3.52184">
        <ele>74</ele>
        <time>2015-10-26T14:12:15Z</time>
      </trkpt>
      <trkpt lat="48.64351" lon="-3.52179">
        <ele>74</ele>
        <time>2015-10-26T14:12:18Z</time>
      </trkpt>
      <trkpt lat="48.64338" lon="-3.52168">
        <ele>74</ele>
        <time>2015-10-26T14:12:23Z</time>
      </trkpt>
      <trkpt lat="48.6433" lon="-3.52162">
        <ele>74</ele>
        <time>2015-10-26T14:12:26Z</time>
      </trkpt>
      <trkpt lat="48.64323" lon="-3.52155">
        <ele>74</ele>
        <time>2015-10-26T14:12:29Z</time>
      </trkpt>
      <trkpt lat="48.64314" lon="-3.52148">
        <ele>75</ele>
        <time>2015-10-26T14:12:33Z</time>
      </trkpt>
      <trkpt lat="48.64306" lon="-3.52142">
        <ele>75</ele>
        <time>2015-10-26T14:12:37Z</time>
      </trkpt>
      <trkpt lat="48.64298" lon="-3.52136">
        <ele>75</ele>
        <time>2015-10-26T14:12:41Z</time>
      </trkpt>
      <trkpt lat="48.6429" lon="-3.52129">
        <ele>76</ele>
        <time>2015-10-26T14:12:45Z</time>
      </trkpt>
      <trkpt lat="48.6428" lon="-3.52122">
        <ele>76</ele>
        <time>2015-10-26T14:12:50Z</time>
      </trkpt>
      <trkpt lat="48.64272" lon="-3.52116">
        <ele>76</ele>
        <time>2015-10-26T14:12:54Z</time>
      </trkpt>
      <trkpt lat="48.64263" lon="-3.5211">
        <ele>77</ele>
        <time>2015-10-26T14:12:58Z</time>
      </trkpt>
      <trkpt lat="48.64254" lon="-3.52106">
        <ele>77</ele>
        <time>2015-10-26T14:13:02Z</time>
      </trkpt>
      <trkpt lat="48.64244" lon="-3.52101">
        <ele>77</ele>
        <time>2015-10-26T14:13:06Z</time>
      </trkpt>
      <trkpt lat="48.64232" lon="-3.52095">
        <ele>78</ele>
        <time>2015-10-26T14:13:11Z</time>
      </trkpt>
      <trkpt lat="48.64224" lon="-3.52091">
        <ele>78</ele>
        <time>2015-10-26T14:13:14Z</time>
      </trkpt>
      <trkpt lat="48.64212" lon="-3.52087">
        <ele>78</ele>
        <time>2015-10-26T14:13:17Z</time>
      </trkpt>
      <trkpt lat="48.64201" lon="-3.52084">
        <ele>78</ele>
        <time>2015-10-26T14:13:19Z</time>
      </trkpt>
      <trkpt lat="48.64184" lon="-3.52082">
        <ele>78</ele>
        <time>2015-10-26T14:13:22Z</time>
      </trkpt>
      <trkpt lat="48.64172" lon="-3.52081">
        <ele>79</ele>
        <time>2015-10-26T14:13:24Z</time>
      </trkpt>
      <trkpt lat="48.64154" lon="-3.5208">
        <ele>79</ele>
        <time>2015-10-26T14:13:27Z</time>
      </trkpt>
      <trkpt lat="48.64136" lon="-3.52079">
        <ele>79</ele>
        <time>2015-10-26T14:13:30Z</time>
      </trkpt>
      <trkpt lat="48.64124" lon="-3.52078">
        <ele>79</ele>
        <time>2015-10-26T14:13:32Z</time>
      </trkpt>
      <trkpt lat="48.64106" lon="-3.52077">
        <ele>80</ele>
        <time>2015-10-26T14:13:35Z</time>
      </trkpt>
      <trkpt lat="48.64086" lon="-3.52075">
        <ele>80</ele>
        <time>2015-10-26T14:13:38Z</time>
      </trkpt>
      <trkpt lat="48.64063" lon="-3.52073">
        <ele>80</ele>
        <time>2015-10-26T14:13:41Z</time>
      </trkpt>
      <trkpt lat="48.64047" lon="-3.52073">
        <ele>80</ele>
        <time>2015-10-26T14:13:43Z</time>
      </trkpt>
      <trkpt lat="48.6403" lon="-3.52073">
        <ele>80</ele>
        <time>2015-10-26T14:13:45Z</time>
      </trkpt>
      <trkpt lat="48.64013" lon="-3.52072">
        <ele>80</ele>
        <time>2015-10-26T14:13:47Z</time>
      </trkpt>
      <trkpt lat="48.63997" lon="-3.5207">
        <ele>81</ele>
        <time>2015-10-26T14:13:49Z</time>
      </trkpt>
      <trkpt lat="48.63981" lon="-3.52067">
        <ele>81</ele>
        <time>2015-10-26T14:13:51Z</time>
      </trkpt>
      <trkpt lat="48.63965" lon="-3.52063">
        <ele>81</ele>
        <time>2015-10-26T14:13:53Z</time>
      </trkpt>
      <trkpt lat="48.63949" lon="-3.5206">
        <ele>81</ele>
        <time>2015-10-26T14:13:55Z</time>
      </trkpt>
      <trkpt lat="48.63934" lon="-3.52057">
        <ele>81</ele>
        <time>2015-10-26T14:13:57Z</time>
      </trkpt>
      <trkpt lat="48.63913" lon="-3.52053">
        <ele>81</ele>
        <time>2015-10-26T14:14:00Z</time>
      </trkpt>
      <trkpt lat="48.63893" lon="-3.5205">
        <ele>81</ele>
        <time>2015-10-26T14:14:03Z</time>
      </trkpt>
      <trkpt lat="48.63876" lon="-3.52046">
        <ele>81</ele>
        <time>2015-10-26T14:14:06Z</time>
      </trkpt>
      <trkpt lat="48.63861" lon="-3.52042">
        <ele>81</ele>
        <time>2015-10-26T14:14:09Z</time>
      </trkpt>
      <trkpt lat="48.63841" lon="-3.52038">
        <ele>82</ele>
        <time>2015-10-26T14:14:13Z</time>
      </trkpt>
      <trkpt lat="48.63825" lon="-3.52034">
        <ele>82</ele>
        <time>2015-10-26T14:14:16Z</time>
      </trkpt>
      <trkpt lat="48.63814" lon="-3.52032">
        <ele>82</ele>
        <time>2015-10-26T14:14:18Z</time>
      </trkpt>
      <trkpt lat="48.63797" lon="-3.52029">
        <ele>82</ele>
        <time>2015-10-26T14:14:21Z</time>
      </trkpt>
      <trkpt lat="48.63778" lon="-3.52028">
        <ele>82</ele>
        <time>2015-10-26T14:14:24Z</time>
      </trkpt>
      <trkpt lat="48.63764" lon="-3.52029">
        <ele>82</ele>
        <time>2015-10-26T14:14:26Z</time>
      </trkpt>
      <trkpt lat="48.63748" lon="-3.52031">
        <ele>82</ele>
        <time>2015-10-26T14:14:28Z</time>
      </trkpt>
      <trkpt lat="48.6374" lon="-3.52033">
        <ele>82</ele>
        <time>2015-10-26T14:14:29Z</time>
      </trkpt>
      <trkpt lat="48.63731" lon="-3.52036">
        <ele>82</ele>
        <time>2015-10-26T14:14:30Z</time>
      </trkpt>
      <trkpt lat="48.63715" lon="-3.52044">
        <ele>82</ele>
        <time>2015-10-26T14:14:32Z</time>
      </trkpt>
      <trkpt lat="48.637" lon="-3.52055">
        <ele>82</ele>
        <time>2015-10-26T14:14:34Z</time>
      </trkpt>
      <trkpt lat="48.63681" lon="-3.52072">
        <ele>82</ele>
        <time>2015-10-26T14:14:37Z</time>
      </trkpt>
      <trkpt lat="48.63666" lon="-3.52086">
        <ele>82</ele>
        <time>2015-10-26T14:14:40Z</time>
      </trkpt>
      <trkpt lat="48.6365" lon="-3.52099">
        <ele>81</ele>
        <time>2015-10-26T14:14:44Z</time>
      </trkpt>
      <trkpt lat="48.63633" lon="-3.52112">
        <ele>81</ele>
        <time>2015-10-26T14:14:49Z</time>
      </trkpt>
      <trkpt lat="48.63618" lon="-3.52126">
        <ele>81</ele>
        <time>2015-10-26T14:14:54Z</time>
      </trkpt>
      <trkpt lat="48.63604" lon="-3.52139">
        <ele>81</ele>
        <time>2015-10-26T14:14:59Z</time>
      </trkpt>
      <trkpt lat="48.63595" lon="-3.52147">
        <ele>81</ele>
        <time>2015-10-26T14:15:02Z</time>
      </trkpt>
      <trkpt lat="48.63587" lon="-3.52155">
        <ele>81</ele>
        <time>2015-10-26T14:15:05Z</time>
      </trkpt>
      <trkpt lat="48.63577" lon="-3.52165">
        <ele>80</ele>
        <time>2015-10-26T14:15:09Z</time>
      </trkpt>
      <trkpt lat="48.63568" lon="-3.52172">
        <ele>80</ele>
        <time>2015-10-26T14:15:12Z</time>
      </trkpt>
      <trkpt lat="48.63557" lon="-3.52181">
        <ele>80</ele>
        <time>2015-10-26T14:15:16Z</time>
      </trkpt>
      <trkpt lat="48.63548" lon="-3.52187">
        <ele>80</ele>
        <time>2015-10-26T14:15:19Z</time>
      </trkpt>
      <trkpt lat="48.63539" lon="-3.52192">
        <ele>79</ele>
        <time>2015-10-26T14:15:22Z</time>
      </trkpt>
      <trkpt lat="48.6353" lon="-3.52197">
        <ele>79</ele>
        <time>2015-10-26T14:15:25Z</time>
      </trkpt>
      <trkpt lat="48.6352" lon="-3.52202">
        <ele>79</ele>
        <time>2015-10-26T14:15:28Z</time>
      </trkpt>
      <trkpt lat="48.6351" lon="-3.52207">
        <ele>79</ele>
        <time>2015-10-26T14:15:31Z</time>
      </trkpt>
      <trkpt lat="48.635" lon="-3.52212">
        <ele>79</ele>
        <time>2015-10-26T14:15:34Z</time>
      </trkpt>
      <trkpt lat="48.63486" lon="-3.52218">
        <ele>79</ele>
        <time>2015-10-26T14:15:38Z</time>
      </trkpt>
      <trkpt lat="48.63475" lon="-3.52223">
        <ele>79</ele>
        <time>2015-10-26T14:15:41Z</time>
      </trkpt>
      <trkpt lat="48.63459" lon="-3.52232">
        <ele>79</ele>
        <time>2015-10-26T14:15:45Z</time>
      </trkpt>
      <trkpt lat="48.63442" lon="-3.52244">
        <ele>79</ele>
        <time>2015-10-26T14:15:49Z</time>
      </trkpt>
      <trkpt lat="48.63427" lon="-3.52263">
        <ele>79</ele>
        <time>2015-10-26T14:15:53Z</time>
      </trkpt>
      <trkpt lat="48.63415" lon="-3.52288">
        <ele>79</ele>
        <time>2015-10-26T14:15:57Z</time>
      </trkpt>
      <trkpt lat="48.63408" lon="-3.52316">
        <ele>79</ele>
        <time>2015-10-26T14:16:01Z</time>
      </trkpt>
      <trkpt lat="48.63403" lon="-3.52345">
        <ele>79</ele>
        <time>2015-10-26T14:16:05Z</time>
      </trkpt>
      <trkpt lat="48.63399" lon="-3.52368">
        <ele>79</ele>
        <time>2015-10-26T14:16:08Z</time>
      </trkpt>
      <trkpt lat="48.63394" lon="-3.52391">
        <ele>79</ele>
        <time>2015-10-26T14:16:11Z</time>
      </trkpt>
      <trkpt lat="48.6339" lon="-3.52414">
        <ele>80</ele>
        <time>2015-10-26T14:16:14Z</time>
      </trkpt>
      <trkpt lat="48.63385" lon="-3.52437">
        <ele>80</ele>
        <time>2015-10-26T14:16:17Z</time>
      </trkpt>
      <trkpt lat="48.63381" lon="-3.5246">
        <ele>80</ele>
        <time>2015-10-26T14:16:20Z</time>
      </trkpt>
      <trkpt lat="48.63376" lon="-3.52483">
        <ele>80</ele>
        <time>2015-10-26T14:16:23Z</time>
      </trkpt>
      <trkpt lat="48.63374" lon="-3.52499">
        <ele>80</ele>
        <time>2015-10-26T14:16:25Z</time>
      </trkpt>
      <trkpt lat="48.6337" lon="-3.52523">
        <ele>80</ele>
        <time>2015-10-26T14:16:28Z</time>
      </trkpt>
      <trkpt lat="48.63367" lon="-3.52547">
        <ele>80</ele>
        <time>2015-10-26T14:16:31Z</time>
      </trkpt>
      <trkpt lat="48.63364" lon="-3.52571">
        <ele>81</ele>
        <time>2015-10-26T14:16:34Z</time>
      </trkpt>
      <trkpt lat="48.63361" lon="-3.52596">
        <ele>81</ele>
        <time>2015-10-26T14:16:37Z</time>
      </trkpt>
      <trkpt lat="48.63354" lon="-3.52653">
        <ele>81</ele>
        <time>2015-10-26T14:16:43Z</time>
      </trkpt>
      <trkpt lat="48.63351" lon="-3.52677">
        <ele>81</ele>
        <time>2015-10-26T14:16:45Z</time>
      </trkpt>
      <trkpt lat="48.63348" lon="-3.52702">
        <ele>81</ele>
        <time>2015-10-26T14:16:47Z</time>
      </trkpt>
      <trkpt lat="48.63345" lon="-3.52726">
        <ele>81</ele>
        <time>2015-10-26T14:16:49Z</time>
      </trkpt>
      <trkpt lat="48.6334" lon="-3.5275">
        <ele>81</ele>
        <time>2015-10-26T14:16:51Z</time>
      </trkpt>
      <trkpt lat="48.63327" lon="-3.52795">
        <ele>81</ele>
        <time>2015-10-26T14:16:55Z</time>
      </trkpt>
      <trkpt lat="48.63319" lon="-3.52818">
        <ele>81</ele>
        <time>2015-10-26T14:16:57Z</time>
      </trkpt>
      <trkpt lat="48.63311" lon="-3.52839">
        <ele>81</ele>
        <time>2015-10-26T14:16:59Z</time>
      </trkpt>
      <trkpt lat="48.63303" lon="-3.52861">
        <ele>81</ele>
        <time>2015-10-26T14:17:01Z</time>
      </trkpt>
      <trkpt lat="48.63295" lon="-3.52882">
        <ele>81</ele>
        <time>2015-10-26T14:17:03Z</time>
      </trkpt>
      <trkpt lat="48.63287" lon="-3.52903">
        <ele>80</ele>
        <time>2015-10-26T14:17:05Z</time>
      </trkpt>
      <trkpt lat="48.63275" lon="-3.52931">
        <ele>80</ele>
        <time>2015-10-26T14:17:08Z</time>
      </trkpt>
      <trkpt lat="48.63267" lon="-3.52948">
        <ele>80</ele>
        <time>2015-10-26T14:17:10Z</time>
      </trkpt>
      <trkpt lat="48.63255" lon="-3.52965">
        <ele>80</ele>
        <time>2015-10-26T14:17:13Z</time>
      </trkpt>
      <trkpt lat="48.63242" lon="-3.52978">
        <ele>79</ele>
        <time>2015-10-26T14:17:16Z</time>
      </trkpt>
      <trkpt lat="48.63233" lon="-3.52985">
        <ele>79</ele>
        <time>2015-10-26T14:17:18Z</time>
      </trkpt>
      <trkpt lat="48.63222" lon="-3.52989">
        <ele>78</ele>
        <time>2015-10-26T14:17:20Z</time>
      </trkpt>
      <trkpt lat="48.63212" lon="-3.52989">
        <ele>77</ele>
        <time>2015-10-26T14:17:22Z</time>
      </trkpt>
      <trkpt lat="48.63201" lon="-3.52988">
        <ele>77</ele>
        <time>2015-10-26T14:17:24Z</time>
      </trkpt>
      <trkpt lat="48.63185" lon="-3.52982">
        <ele>76</ele>
        <time>2015-10-26T14:17:27Z</time>
      </trkpt>
      <trkpt lat="48.63175" lon="-3.52978">
        <ele>76</ele>
        <time>2015-10-26T14:17:29Z</time>
      </trkpt>
      <trkpt lat="48.63165" lon="-3.52974">
        <ele>75</ele>
        <time>2015-10-26T14:17:31Z</time>
      </trkpt>
      <trkpt lat="48.6315" lon="-3.52965">
        <ele>74</ele>
        <time>2015-10-26T14:17:34Z</time>
      </trkpt>
      <trkpt lat="48.63138" lon="-3.5296">
        <ele>73</ele>
        <time>2015-10-26T14:17:36Z</time>
      </trkpt>
      <trkpt lat="48.6312" lon="-3.52958">
        <ele>73</ele>
        <time>2015-10-26T14:17:39Z</time>
      </trkpt>
      <trkpt lat="48.631" lon="-3.52959">
        <ele>72</ele>
        <time>2015-10-26T14:17:42Z</time>
      </trkpt>
      <trkpt lat="48.63086" lon="-3.5296">
        <ele>71</ele>
        <time>2015-10-26T14:17:44Z</time>
      </trkpt>
      <trkpt lat="48.63065" lon="-3.5296">
        <ele>70</ele>
        <time>2015-10-26T14:17:47Z</time>
      </trkpt>
      <trkpt lat="48.63043" lon="-3.52959">
        <ele>70</ele>
        <time>2015-10-26T14:17:50Z</time>
      </trkpt>
      <trkpt lat="48.6302" lon="-3.52953">
        <ele>69</ele>
        <time>2015-10-26T14:17:53Z</time>
      </trkpt>
      <trkpt lat="48.63005" lon="-3.52947">
        <ele>69</ele>
        <time>2015-10-26T14:17:55Z</time>
      </trkpt>
      <trkpt lat="48.62989" lon="-3.52939">
        <ele>69</ele>
        <time>2015-10-26T14:17:57Z</time>
      </trkpt>
      <trkpt lat="48.62974" lon="-3.5293">
        <ele>68</ele>
        <time>2015-10-26T14:17:59Z</time>
      </trkpt>
      <trkpt lat="48.62958" lon="-3.52921">
        <ele>68</ele>
        <time>2015-10-26T14:18:01Z</time>
      </trkpt>
      <trkpt lat="48.62942" lon="-3.52915">
        <ele>67</ele>
        <time>2015-10-26T14:18:03Z</time>
      </trkpt>
      <trkpt lat="48.62926" lon="-3.52908">
        <ele>67</ele>
        <time>2015-10-26T14:18:05Z</time>
      </trkpt>
      <trkpt lat="48.62909" lon="-3.52905">
        <ele>66</ele>
        <time>2015-10-26T14:18:07Z</time>
      </trkpt>
      <trkpt lat="48.62892" lon="-3.52906">
        <ele>66</ele>
        <time>2015-10-26T14:18:09Z</time>
      </trkpt>
      <trkpt lat="48.62875" lon="-3.52914">
        <ele>66</ele>
        <time>2015-10-26T14:18:11Z</time>
      </trkpt>
      <trkpt lat="48.62862" lon="-3.52931">
        <ele>65</ele>
        <time>2015-10-26T14:18:13Z</time>
      </trkpt>
      <trkpt lat="48.62853" lon="-3.5295">
        <ele>65</ele>
        <time>2015-10-26T14:18:15Z</time>
      </trkpt>
      <trkpt lat="48.62842" lon="-3.52981">
        <ele>65</ele>
        <time>2015-10-26T14:18:18Z</time>
      </trkpt>
      <trkpt lat="48.62834" lon="-3.53011">
        <ele>64</ele>
        <time>2015-10-26T14:18:21Z</time>
      </trkpt>
      <trkpt lat="48.62829" lon="-3.53033">
        <ele>64</ele>
        <time>2015-10-26T14:18:24Z</time>
      </trkpt>
      <trkpt lat="48.62822" lon="-3.53058">
        <ele>63</ele>
        <time>2015-10-26T14:18:28Z</time>
      </trkpt>
      <trkpt lat="48.62816" lon="-3.53081">
        <ele>62</ele>
        <time>2015-10-26T14:18:33Z</time>
      </trkpt>
      <trkpt lat="48.6281" lon="-3.53101">
        <ele>61</ele>
        <time>2015-10-26T14:18:38Z</time>
      </trkpt>
      <trkpt lat="48.62803" lon="-3.53123">
        <ele>60</ele>
        <time>2015-10-26T14:18:44Z</time>
      </trkpt>
      <trkpt lat="48.62796" lon="-3.53142">
        <ele>59</ele>
        <time>2015-10-26T14:18:50Z</time>
      </trkpt>
      <trkpt lat="48.6279" lon="-3.53157">
        <ele>59</ele>
        <time>2015-10-26T14:18:55Z</time>
      </trkpt>
      <trkpt lat="48.62782" lon="-3.53171">
        <ele>58</ele>
        <time>2015-10-26T14:19:00Z</time>
      </trkpt>
      <trkpt lat="48.62776" lon="-3.53181">
        <ele>57</ele>
        <time>2015-10-26T14:19:04Z</time>
      </trkpt>
      <trkpt lat="48.6277" lon="-3.53192">
        <ele>57</ele>
        <time>2015-10-26T14:19:08Z</time>
      </trkpt>
      <trkpt lat="48.62764" lon="-3.53203">
        <ele>57</ele>
        <time>2015-10-26T14:19:12Z</time>
      </trkpt>
      <trkpt lat="48.62758" lon="-3.53213">
        <ele>57</ele>
        <time>2015-10-26T14:19:16Z</time>
      </trkpt>
      <trkpt lat="48.62751" lon="-3.53223">
        <ele>57</ele>
        <time>2015-10-26T14:19:20Z</time>
      </trkpt>
      <trkpt lat="48.62745" lon="-3.53233">
        <ele>57</ele>
        <time>2015-10-26T14:19:24Z</time>
      </trkpt>
      <trkpt lat="48.62738" lon="-3.53242">
        <ele>57</ele>
        <time>2015-10-26T14:19:28Z</time>
      </trkpt>
      <trkpt lat="48.62732" lon="-3.53252">
        <ele>57</ele>
        <time>2015-10-26T14:19:32Z</time>
      </trkpt>
      <trkpt lat="48.62725" lon="-3.53261">
        <ele>57</ele>
        <time>2015-10-26T14:19:36Z</time>
      </trkpt>
      <trkpt lat="48.62718" lon="-3.5327">
        <ele>57</ele>
        <time>2015-10-26T14:19:40Z</time>
      </trkpt>
      <trkpt lat="48.62711" lon="-3.53278">
        <ele>57</ele>
        <time>2015-10-26T14:19:44Z</time>
      </trkpt>
      <trkpt lat="48.62704" lon="-3.53285">
        <ele>57</ele>
        <time>2015-10-26T14:19:48Z</time>
      </trkpt>
      <trkpt lat="48.62696" lon="-3.53291">
        <ele>56</ele>
        <time>2015-10-26T14:19:52Z</time>
      </trkpt>
      <trkpt lat="48.62685" lon="-3.53298">
        <ele>56</ele>
        <time>2015-10-26T14:19:58Z</time>
      </trkpt>
      <trkpt lat="48.62677" lon="-3.53303">
        <ele>56</ele>
        <time>2015-10-26T14:20:03Z</time>
      </trkpt>
      <trkpt lat="48.62667" lon="-3.53306">
        <ele>56</ele>
        <time>2015-10-26T14:20:08Z</time>
      </trkpt>
      <trkpt lat="48.62659" lon="-3.53306">
        <ele>57</ele>
        <time>2015-10-26T14:20:12Z</time>
      </trkpt>
      <trkpt lat="48.62649" lon="-3.53305">
        <ele>57</ele>
        <time>2015-10-26T14:20:16Z</time>
      </trkpt>
      <trkpt lat="48.62641" lon="-3.53301">
        <ele>57</ele>
        <time>2015-10-26T14:20:19Z</time>
      </trkpt>
      <trkpt lat="48.62627" lon="-3.53289">
        <ele>57</ele>
        <time>2015-10-26T14:20:23Z</time>
      </trkpt>
      <trkpt lat="48.6262" lon="-3.53279">
        <ele>57</ele>
        <time>2015-10-26T14:20:25Z</time>
      </trkpt>
      <trkpt lat="48.62609" lon="-3.53263">
        <ele>57</ele>
        <time>2015-10-26T14:20:28Z</time>
      </trkpt>
      <trkpt lat="48.62597" lon="-3.53246">
        <ele>58</ele>
        <time>2015-10-26T14:20:31Z</time>
      </trkpt>
      <trkpt lat="48.62589" lon="-3.53235">
        <ele>58</ele>
        <time>2015-10-26T14:20:33Z</time>
      </trkpt>
      <trkpt lat="48.62581" lon="-3.53225">
        <ele>58</ele>
        <time>2015-10-26T14:20:35Z</time>
      </trkpt>
      <trkpt lat="48.62572" lon="-3.53216">
        <ele>58</ele>
        <time>2015-10-26T14:20:37Z</time>
      </trkpt>
      <trkpt lat="48.62563" lon="-3.53209">
        <ele>58</ele>
        <time>2015-10-26T14:20:39Z</time>
      </trkpt>
      <trkpt lat="48.62552" lon="-3.53205">
        <ele>58</ele>
        <time>2015-10-26T14:20:41Z</time>
      </trkpt>
      <trkpt lat="48.62542" lon="-3.53204">
        <ele>58</ele>
        <time>2015-10-26T14:20:43Z</time>
      </trkpt>
      <trkpt lat="48.62531" lon="-3.53203">
        <ele>58</ele>
        <time>2015-10-26T14:20:45Z</time>
      </trkpt>
      <trkpt lat="48.6252" lon="-3.53204">
        <ele>58</ele>
        <time>2015-10-26T14:20:47Z</time>
      </trkpt>
      <trkpt lat="48.62509" lon="-3.53207">
        <ele>59</ele>
        <time>2015-10-26T14:20:49Z</time>
      </trkpt>
      <trkpt lat="48.62499" lon="-3.53209">
        <ele>59</ele>
        <time>2015-10-26T14:20:51Z</time>
      </trkpt>
      <trkpt lat="48.62488" lon="-3.53211">
        <ele>59</ele>
        <time>2015-10-26T14:20:53Z</time>
      </trkpt>
      <trkpt lat="48.62478" lon="-3.53213">
        <ele>59</ele>
        <time>2015-10-26T14:20:55Z</time>
      </trkpt>
      <trkpt lat="48.6246" lon="-3.53217">
        <ele>59</ele>
        <time>2015-10-26T14:20:59Z</time>
      </trkpt>
      <trkpt lat="48.62439" lon="-3.5322">
        <ele>59</ele>
        <time>2015-10-26T14:21:05Z</time>
      </trkpt>
      <trkpt lat="48.6242" lon="-3.53219">
        <ele>59</ele>
        <time>2015-10-26T14:21:10Z</time>
      </trkpt>
      <trkpt lat="48.62403" lon="-3.5322">
        <ele>59</ele>
        <time>2015-10-26T14:21:14Z</time>
      </trkpt>
      <trkpt lat="48.62393" lon="-3.53221">
        <ele>59</ele>
        <time>2015-10-26T14:21:16Z</time>
      </trkpt>
      <trkpt lat="48.62374" lon="-3.53226">
        <ele>59</ele>
        <time>2015-10-26T14:21:20Z</time>
      </trkpt>
      <trkpt lat="48.62357" lon="-3.53234">
        <ele>60</ele>
        <time>2015-10-26T14:21:24Z</time>
      </trkpt>
      <trkpt lat="48.62342" lon="-3.53244">
        <ele>60</ele>
        <time>2015-10-26T14:21:28Z</time>
      </trkpt>
      <trkpt lat="48.6233" lon="-3.53252">
        <ele>60</ele>
        <time>2015-10-26T14:21:32Z</time>
      </trkpt>
      <trkpt lat="48.62322" lon="-3.53257">
        <ele>60</ele>
        <time>2015-10-26T14:21:35Z</time>
      </trkpt>
      <trkpt lat="48.62314" lon="-3.53261">
        <ele>60</ele>
        <time>2015-10-26T14:21:38Z</time>
      </trkpt>
      <trkpt lat="48.62304" lon="-3.53267">
        <ele>60</ele>
        <time>2015-10-26T14:21:42Z</time>
      </trkpt>
      <trkpt lat="48.62294" lon="-3.53271">
        <ele>60</ele>
        <time>2015-10-26T14:21:46Z</time>
      </trkpt>
      <trkpt lat="48.62281" lon="-3.53277">
        <ele>60</ele>
        <time>2015-10-26T14:21:52Z</time>
      </trkpt>
      <trkpt lat="48.62267" lon="-3.53288">
        <ele>60</ele>
        <time>2015-10-26T14:22:00Z</time>
      </trkpt>
      <trkpt lat="48.62259" lon="-3.533">
        <ele>60</ele>
        <time>2015-10-26T14:22:06Z</time>
      </trkpt>
      <trkpt lat="48.62253" lon="-3.53311">
        <ele>60</ele>
        <time>2015-10-26T14:22:11Z</time>
      </trkpt>
      <trkpt lat="48.62248" lon="-3.53321">
        <ele>60</ele>
        <time>2015-10-26T14:22:15Z</time>
      </trkpt>
      <trkpt lat="48.62242" lon="-3.53331">
        <ele>61</ele>
        <time>2015-10-26T14:22:19Z</time>
      </trkpt>
      <trkpt lat="48.62235" lon="-3.5334">
        <ele>61</ele>
        <time>2015-10-26T14:22:23Z</time>
      </trkpt>
      <trkpt lat="48.62229" lon="-3.53347">
        <ele>61</ele>
        <time>2015-10-26T14:22:27Z</time>
      </trkpt>
      <trkpt lat="48.6222" lon="-3.53355">
        <ele>62</ele>
        <time>2015-10-26T14:22:32Z</time>
      </trkpt>
      <trkpt lat="48.6221" lon="-3.5336">
        <ele>62</ele>
        <time>2015-10-26T14:22:37Z</time>
      </trkpt>
      <trkpt lat="48.62202" lon="-3.53365">
        <ele>62</ele>
        <time>2015-10-26T14:22:41Z</time>
      </trkpt>
      <trkpt lat="48.62191" lon="-3.53371">
        <ele>62</ele>
        <time>2015-10-26T14:22:47Z</time>
      </trkpt>
      <trkpt lat="48.62182" lon="-3.5338">
        <ele>63</ele>
        <time>2015-10-26T14:22:55Z</time>
      </trkpt>
      <trkpt lat="48.62169" lon="-3.53399">
        <ele>63</ele>
        <time>2015-10-26T14:23:04Z</time>
      </trkpt>
      <trkpt lat="48.62159" lon="-3.53419">
        <ele>63</ele>
        <time>2015-10-26T14:23:09Z</time>
      </trkpt>
      <trkpt lat="48.62153" lon="-3.5343">
        <ele>63</ele>
        <time>2015-10-26T14:23:12Z</time>
      </trkpt>
      <trkpt lat="48.62143" lon="-3.53452">
        <ele>64</ele>
        <time>2015-10-26T14:23:18Z</time>
      </trkpt>
      <trkpt lat="48.62134" lon="-3.53472">
        <ele>64</ele>
        <time>2015-10-26T14:23:24Z</time>
      </trkpt>
      <trkpt lat="48.62124" lon="-3.53491">
        <ele>64</ele>
        <time>2015-10-26T14:23:29Z</time>
      </trkpt>
      <trkpt lat="48.62116" lon="-3.535">
        <ele>65</ele>
        <time>2015-10-26T14:23:32Z</time>
      </trkpt>
      <trkpt lat="48.62106" lon="-3.53496">
        <ele>65</ele>
        <time>2015-10-26T14:23:36Z</time>
      </trkpt>
      <trkpt lat="48.62098" lon="-3.53488">
        <ele>66</ele>
        <time>2015-10-26T14:23:41Z</time>
      </trkpt>
      <trkpt lat="48.6209" lon="-3.53481">
        <ele>66</ele>
        <time>2015-10-26T14:23:45Z</time>
      </trkpt>
      <trkpt lat="48.62082" lon="-3.53474">
        <ele>67</ele>
        <time>2015-10-26T14:23:50Z</time>
      </trkpt>
      <trkpt lat="48.62079" lon="-3.5348">
        <ele>67</ele>
        <time>2015-10-26T14:24:33Z</time>
      </trkpt>
      <trkpt lat="48.62091" lon="-3.53496">
        <ele>68</ele>
        <time>2015-10-26T14:33:54Z</time>
      </trkpt>
      <trkpt lat="48.62102" lon="-3.53516">
        <ele>68</ele>
        <time>2015-10-26T14:34:03Z</time>
      </trkpt>
      <trkpt lat="48.62098" lon="-3.53545">
        <ele>67</ele>
        <time>2015-10-26T14:34:10Z</time>
      </trkpt>
      <trkpt lat="48.62089" lon="-3.53565">
        <ele>65</ele>
        <time>2015-10-26T14:34:15Z</time>
      </trkpt>
      <trkpt lat="48.62078" lon="-3.53584">
        <ele>64</ele>
        <time>2015-10-26T14:34:20Z</time>
      </trkpt>
      <trkpt lat="48.62067" lon="-3.536">
        <ele>62</ele>
        <time>2015-10-26T14:34:24Z</time>
      </trkpt>
      <trkpt lat="48.62053" lon="-3.53616">
        <ele>61</ele>
        <time>2015-10-26T14:34:28Z</time>
      </trkpt>
      <trkpt lat="48.62036" lon="-3.53629">
        <ele>61</ele>
        <time>2015-10-26T14:34:32Z</time>
      </trkpt>
      <trkpt lat="48.62021" lon="-3.53635">
        <ele>60</ele>
        <time>2015-10-26T14:34:36Z</time>
      </trkpt>
      <trkpt lat="48.62014" lon="-3.53614">
        <ele>60</ele>
        <time>2015-10-26T14:34:42Z</time>
      </trkpt>
      <trkpt lat="48.62019" lon="-3.5359">
        <ele>59</ele>
        <time>2015-10-26T14:34:47Z</time>
      </trkpt>
      <trkpt lat="48.62026" lon="-3.53565">
        <ele>58</ele>
        <time>2015-10-26T14:34:54Z</time>
      </trkpt>
      <trkpt lat="48.62032" lon="-3.5354">
        <ele>57</ele>
        <time>2015-10-26T14:35:00Z</time>
      </trkpt>
      <trkpt lat="48.62038" lon="-3.53517">
        <ele>56</ele>
        <time>2015-10-26T14:35:05Z</time>
      </trkpt>
      <trkpt lat="48.62043" lon="-3.53493">
        <ele>55</ele>
        <time>2015-10-26T14:35:10Z</time>
      </trkpt>
      <trkpt lat="48.62046" lon="-3.53465">
        <ele>54</ele>
        <time>2015-10-26T14:35:16Z</time>
      </trkpt>
      <trkpt lat="48.62047" lon="-3.53442">
        <ele>53</ele>
        <time>2015-10-26T14:35:21Z</time>
      </trkpt>
      <trkpt lat="48.62044" lon="-3.53416">
        <ele>53</ele>
        <time>2015-10-26T14:35:27Z</time>
      </trkpt>
      <trkpt lat="48.6204" lon="-3.53392">
        <ele>52</ele>
        <time>2015-10-26T14:35:33Z</time>
      </trkpt>
      <trkpt lat="48.62032" lon="-3.53368">
        <ele>52</ele>
        <time>2015-10-26T14:35:39Z</time>
      </trkpt>
      <trkpt lat="48.62024" lon="-3.53345">
        <ele>52</ele>
        <time>2015-10-26T14:35:45Z</time>
      </trkpt>
      <trkpt lat="48.62016" lon="-3.53322">
        <ele>52</ele>
        <time>2015-10-26T14:35:51Z</time>
      </trkpt>
      <trkpt lat="48.62012" lon="-3.53295">
        <ele>52</ele>
        <time>2015-10-26T14:35:57Z</time>
      </trkpt>
      <trkpt lat="48.62009" lon="-3.53271">
        <ele>52</ele>
        <time>2015-10-26T14:36:01Z</time>
      </trkpt>
      <trkpt lat="48.62" lon="-3.53236">
        <ele>52</ele>
        <time>2015-10-26T14:36:06Z</time>
      </trkpt>
      <trkpt lat="48.61986" lon="-3.53214">
        <ele>53</ele>
        <time>2015-10-26T14:36:10Z</time>
      </trkpt>
      <trkpt lat="48.61969" lon="-3.53201">
        <ele>53</ele>
        <time>2015-10-26T14:36:14Z</time>
      </trkpt>
      <trkpt lat="48.61953" lon="-3.53193">
        <ele>53</ele>
        <time>2015-10-26T14:36:18Z</time>
      </trkpt>
      <trkpt lat="48.61938" lon="-3.53187">
        <ele>54</ele>
        <time>2015-10-26T14:36:22Z</time>
      </trkpt>
      <trkpt lat="48.61921" lon="-3.53179">
        <ele>55</ele>
        <time>2015-10-26T14:36:27Z</time>
      </trkpt>
      <trkpt lat="48.61903" lon="-3.53171">
        <ele>55</ele>
        <time>2015-10-26T14:36:32Z</time>
      </trkpt>
      <trkpt lat="48.61892" lon="-3.53166">
        <ele>56</ele>
        <time>2015-10-26T14:36:35Z</time>
      </trkpt>
      <trkpt lat="48.61877" lon="-3.5316">
        <ele>56</ele>
        <time>2015-10-26T14:36:39Z</time>
      </trkpt>
      <trkpt lat="48.61859" lon="-3.53151">
        <ele>57</ele>
        <time>2015-10-26T14:36:44Z</time>
      </trkpt>
      <trkpt lat="48.61841" lon="-3.53143">
        <ele>57</ele>
        <time>2015-10-26T14:36:49Z</time>
      </trkpt>
      <trkpt lat="48.61824" lon="-3.53136">
        <ele>58</ele>
        <time>2015-10-26T14:36:54Z</time>
      </trkpt>
      <trkpt lat="48.61804" lon="-3.53129">
        <ele>58</ele>
        <time>2015-10-26T14:37:00Z</time>
      </trkpt>
      <trkpt lat="48.61788" lon="-3.5312">
        <ele>59</ele>
        <time>2015-10-26T14:37:06Z</time>
      </trkpt>
      <trkpt lat="48.61774" lon="-3.53113">
        <ele>60</ele>
        <time>2015-10-26T14:37:11Z</time>
      </trkpt>
      <trkpt lat="48.61764" lon="-3.5311">
        <ele>61</ele>
        <time>2015-10-26T14:37:14Z</time>
      </trkpt>
      <trkpt lat="48.61747" lon="-3.53104">
        <ele>62</ele>
        <time>2015-10-26T14:37:19Z</time>
      </trkpt>
      <trkpt lat="48.61736" lon="-3.531">
        <ele>63</ele>
        <time>2015-10-26T14:37:22Z</time>
      </trkpt>
      <trkpt lat="48.61725" lon="-3.53096">
        <ele>64</ele>
        <time>2015-10-26T14:37:25Z</time>
      </trkpt>
      <trkpt lat="48.6171" lon="-3.5309">
        <ele>65</ele>
        <time>2015-10-26T14:37:29Z</time>
      </trkpt>
      <trkpt lat="48.61695" lon="-3.53082">
        <ele>66</ele>
        <time>2015-10-26T14:37:33Z</time>
      </trkpt>
      <trkpt lat="48.6168" lon="-3.53073">
        <ele>67</ele>
        <time>2015-10-26T14:37:37Z</time>
      </trkpt>
      <trkpt lat="48.61671" lon="-3.53068">
        <ele>68</ele>
        <time>2015-10-26T14:37:39Z</time>
      </trkpt>
      <trkpt lat="48.61653" lon="-3.53055">
        <ele>68</ele>
        <time>2015-10-26T14:37:43Z</time>
      </trkpt>
      <trkpt lat="48.61644" lon="-3.53048">
        <ele>68</ele>
        <time>2015-10-26T14:37:45Z</time>
      </trkpt>
      <trkpt lat="48.61631" lon="-3.53035">
        <ele>69</ele>
        <time>2015-10-26T14:37:48Z</time>
      </trkpt>
      <trkpt lat="48.61623" lon="-3.53026">
        <ele>69</ele>
        <time>2015-10-26T14:37:50Z</time>
      </trkpt>
      <trkpt lat="48.61616" lon="-3.53016">
        <ele>69</ele>
        <time>2015-10-26T14:37:52Z</time>
      </trkpt>
      <trkpt lat="48.61599" lon="-3.52987">
        <ele>69</ele>
        <time>2015-10-26T14:37:58Z</time>
      </trkpt>
      <trkpt lat="48.61597" lon="-3.52963">
        <ele>68</ele>
        <time>2015-10-26T14:38:05Z</time>
      </trkpt>
      <trkpt lat="48.61597" lon="-3.52928">
        <ele>65</ele>
        <time>2015-10-26T14:38:16Z</time>
      </trkpt>
      <trkpt lat="48.61596" lon="-3.529">
        <ele>63</ele>
        <time>2015-10-26T14:38:31Z</time>
      </trkpt>
      <trkpt lat="48.61595" lon="-3.52876">
        <ele>63</ele>
        <time>2015-10-26T14:38:37Z</time>
      </trkpt>
      <trkpt lat="48.61594" lon="-3.52849">
        <ele>64</ele>
        <time>2015-10-26T14:38:43Z</time>
      </trkpt>
      <trkpt lat="48.61592" lon="-3.52822">
        <ele>64</ele>
        <time>2015-10-26T14:38:49Z</time>
      </trkpt>
      <trkpt lat="48.61592" lon="-3.52786">
        <ele>66</ele>
        <time>2015-10-26T14:38:58Z</time>
      </trkpt>
      <trkpt lat="48.6159" lon="-3.52762">
        <ele>67</ele>
        <time>2015-10-26T14:39:05Z</time>
      </trkpt>
      <trkpt lat="48.61586" lon="-3.52734">
        <ele>68</ele>
        <time>2015-10-26T14:39:14Z</time>
      </trkpt>
      <trkpt lat="48.61581" lon="-3.52709">
        <ele>69</ele>
        <time>2015-10-26T14:39:21Z</time>
      </trkpt>
      <trkpt lat="48.61577" lon="-3.52683">
        <ele>70</ele>
        <time>2015-10-26T14:39:28Z</time>
      </trkpt>
      <trkpt lat="48.61572" lon="-3.5266">
        <ele>71</ele>
        <time>2015-10-26T14:39:35Z</time>
      </trkpt>
      <trkpt lat="48.61567" lon="-3.52647">
        <ele>72</ele>
        <time>2015-10-26T14:39:39Z</time>
      </trkpt>
      <trkpt lat="48.61561" lon="-3.52632">
        <ele>73</ele>
        <time>2015-10-26T14:39:41Z</time>
      </trkpt>
      <trkpt lat="48.61552" lon="-3.52609">
        <ele>74</ele>
        <time>2015-10-26T14:39:47Z</time>
      </trkpt>
      <trkpt lat="48.61555" lon="-3.52596">
        <ele>75</ele>
        <time>2015-10-26T14:39:50Z</time>
      </trkpt>
      <trkpt lat="48.61566" lon="-3.52589">
        <ele>75</ele>
        <time>2015-10-26T14:39:54Z</time>
      </trkpt>
      <trkpt lat="48.61587" lon="-3.52584">
        <ele>76</ele>
        <time>2015-10-26T14:40:00Z</time>
      </trkpt>
      <trkpt lat="48.61603" lon="-3.52581">
        <ele>76</ele>
        <time>2015-10-26T14:40:04Z</time>
      </trkpt>
      <trkpt lat="48.61623" lon="-3.52578">
        <ele>76</ele>
        <time>2015-10-26T14:40:09Z</time>
      </trkpt>
      <trkpt lat="48.61639" lon="-3.52574">
        <ele>76</ele>
        <time>2015-10-26T14:40:13Z</time>
      </trkpt>
      <trkpt lat="48.61657" lon="-3.52569">
        <ele>76</ele>
        <time>2015-10-26T14:40:17Z</time>
      </trkpt>
      <trkpt lat="48.61677" lon="-3.52564">
        <ele>76</ele>
        <time>2015-10-26T14:40:21Z</time>
      </trkpt>
      <trkpt lat="48.61693" lon="-3.5256">
        <ele>77</ele>
        <time>2015-10-26T14:40:24Z</time>
      </trkpt>
      <trkpt lat="48.6171" lon="-3.52555">
        <ele>77</ele>
        <time>2015-10-26T14:40:27Z</time>
      </trkpt>
      <trkpt lat="48.61726" lon="-3.52549">
        <ele>77</ele>
        <time>2015-10-26T14:40:30Z</time>
      </trkpt>
      <trkpt lat="48.61743" lon="-3.52539">
        <ele>77</ele>
        <time>2015-10-26T14:40:33Z</time>
      </trkpt>
      <trkpt lat="48.6176" lon="-3.52527">
        <ele>77</ele>
        <time>2015-10-26T14:40:36Z</time>
      </trkpt>
      <trkpt lat="48.61777" lon="-3.52515">
        <ele>78</ele>
        <time>2015-10-26T14:40:39Z</time>
      </trkpt>
      <trkpt lat="48.61793" lon="-3.52501">
        <ele>78</ele>
        <time>2015-10-26T14:40:42Z</time>
      </trkpt>
      <trkpt lat="48.61809" lon="-3.52487">
        <ele>78</ele>
        <time>2015-10-26T14:40:45Z</time>
      </trkpt>
      <trkpt lat="48.61823" lon="-3.52473">
        <ele>79</ele>
        <time>2015-10-26T14:40:48Z</time>
      </trkpt>
      <trkpt lat="48.61836" lon="-3.52457">
        <ele>79</ele>
        <time>2015-10-26T14:40:51Z</time>
      </trkpt>
      <trkpt lat="48.61848" lon="-3.52437">
        <ele>79</ele>
        <time>2015-10-26T14:40:54Z</time>
      </trkpt>
      <trkpt lat="48.61855" lon="-3.52405">
        <ele>80</ele>
        <time>2015-10-26T14:40:58Z</time>
      </trkpt>
      <trkpt lat="48.61853" lon="-3.52379">
        <ele>80</ele>
        <time>2015-10-26T14:41:01Z</time>
      </trkpt>
      <trkpt lat="48.61848" lon="-3.5235">
        <ele>80</ele>
        <time>2015-10-26T14:41:04Z</time>
      </trkpt>
      <trkpt lat="48.61847" lon="-3.52316">
        <ele>80</ele>
        <time>2015-10-26T14:41:07Z</time>
      </trkpt>
      <trkpt lat="48.61849" lon="-3.52292">
        <ele>80</ele>
        <time>2015-10-26T14:41:09Z</time>
      </trkpt>
      <trkpt lat="48.61852" lon="-3.52269">
        <ele>80</ele>
        <time>2015-10-26T14:41:11Z</time>
      </trkpt>
      <trkpt lat="48.61855" lon="-3.52245">
        <ele>80</ele>
        <time>2015-10-26T14:41:13Z</time>
      </trkpt>
      <trkpt lat="48.61852" lon="-3.52212">
        <ele>80</ele>
        <time>2015-10-26T14:41:16Z</time>
      </trkpt>
      <trkpt lat="48.61845" lon="-3.52185">
        <ele>80</ele>
        <time>2015-10-26T14:41:19Z</time>
      </trkpt>
      <trkpt lat="48.6183" lon="-3.52169">
        <ele>80</ele>
        <time>2015-10-26T14:41:22Z</time>
      </trkpt>
      <trkpt lat="48.61813" lon="-3.52157">
        <ele>80</ele>
        <time>2015-10-26T14:41:25Z</time>
      </trkpt>
      <trkpt lat="48.61792" lon="-3.52147">
        <ele>79</ele>
        <time>2015-10-26T14:41:29Z</time>
      </trkpt>
      <trkpt lat="48.61779" lon="-3.52139">
        <ele>79</ele>
        <time>2015-10-26T14:41:32Z</time>
      </trkpt>
      <trkpt lat="48.61767" lon="-3.52123">
        <ele>78</ele>
        <time>2015-10-26T14:41:36Z</time>
      </trkpt>
      <trkpt lat="48.61765" lon="-3.52096">
        <ele>78</ele>
        <time>2015-10-26T14:41:40Z</time>
      </trkpt>
      <trkpt lat="48.61767" lon="-3.52066">
        <ele>77</ele>
        <time>2015-10-26T14:41:44Z</time>
      </trkpt>
      <trkpt lat="48.61772" lon="-3.52042">
        <ele>77</ele>
        <time>2015-10-26T14:41:47Z</time>
      </trkpt>
      <trkpt lat="48.61779" lon="-3.52017">
        <ele>76</ele>
        <time>2015-10-26T14:41:50Z</time>
      </trkpt>
      <trkpt lat="48.61788" lon="-3.51993">
        <ele>76</ele>
        <time>2015-10-26T14:41:53Z</time>
      </trkpt>
      <trkpt lat="48.61795" lon="-3.51969">
        <ele>75</ele>
        <time>2015-10-26T14:41:56Z</time>
      </trkpt>
      <trkpt lat="48.6179" lon="-3.51945">
        <ele>74</ele>
        <time>2015-10-26T14:41:59Z</time>
      </trkpt>
      <trkpt lat="48.61777" lon="-3.51924">
        <ele>73</ele>
        <time>2015-10-26T14:42:02Z</time>
      </trkpt>
      <trkpt lat="48.61767" lon="-3.51904">
        <ele>72</ele>
        <time>2015-10-26T14:42:05Z</time>
      </trkpt>
      <trkpt lat="48.61756" lon="-3.51883">
        <ele>71</ele>
        <time>2015-10-26T14:42:08Z</time>
      </trkpt>
      <trkpt lat="48.61746" lon="-3.51861">
        <ele>70</ele>
        <time>2015-10-26T14:42:11Z</time>
      </trkpt>
      <trkpt lat="48.61728" lon="-3.51794">
        <ele>118.8</ele>
        <time>2015-10-26T14:42:19Z</time>
      </trkpt>
      <trkpt lat="48.61736" lon="-3.5172">
        <ele>113.9</ele>
        <time>2015-10-26T14:42:25Z</time>
      </trkpt>
      <trkpt lat="48.6182" lon="-3.51379">
        <ele>61</ele>
        <time>2015-10-26T14:42:52Z</time>
      </trkpt>
      <trkpt lat="48.6186" lon="-3.51349">
        <ele>106.4</ele>
        <time>2015-10-26T14:43:22Z</time>
      </trkpt>
      <trkpt lat="48.61936" lon="-3.51315">
        <ele>53</ele>
        <time>2015-10-26T14:43:57Z</time>
      </trkpt>
      <trkpt lat="48.61995" lon="-3.51301">
        <ele>109</ele>
        <time>2015-10-26T14:44:14Z</time>
      </trkpt>
      <trkpt lat="48.62015" lon="-3.51279">
        <ele>50</ele>
        <time>2015-10-26T14:44:20Z</time>
      </trkpt>
      <trkpt lat="48.62045" lon="-3.5123">
        <ele>110.9</ele>
        <time>2015-10-26T14:44:31Z</time>
      </trkpt>
      <trkpt lat="48.62086" lon="-3.51205">
        <ele>111.5</ele>
        <time>2015-10-26T14:44:42Z</time>
      </trkpt>
      <trkpt lat="48.62128" lon="-3.51221">
        <ele>112</ele>
        <time>2015-10-26T14:44:56Z</time>
      </trkpt>
      <trkpt lat="48.62153" lon="-3.51222">
        <ele>48</ele>
        <time>2015-10-26T14:45:02Z</time>
      </trkpt>
      <trkpt lat="48.62177" lon="-3.51216">
        <ele>47</ele>
        <time>2015-10-26T14:45:08Z</time>
      </trkpt>
      <trkpt lat="48.62198" lon="-3.51191">
        <ele>47</ele>
        <time>2015-10-26T14:45:16Z</time>
      </trkpt>
      <trkpt lat="48.62211" lon="-3.51173">
        <ele>47</ele>
        <time>2015-10-26T14:45:20Z</time>
      </trkpt>
      <trkpt lat="48.62227" lon="-3.51155">
        <ele>46</ele>
        <time>2015-10-26T14:45:24Z</time>
      </trkpt>
      <trkpt lat="48.62239" lon="-3.51138">
        <ele>46</ele>
        <time>2015-10-26T14:45:27Z</time>
      </trkpt>
      <trkpt lat="48.62259" lon="-3.51092">
        <ele>46</ele>
        <time>2015-10-26T14:45:32Z</time>
      </trkpt>
      <trkpt lat="48.62268" lon="-3.51061">
        <ele>45</ele>
        <time>2015-10-26T14:45:35Z</time>
      </trkpt>
      <trkpt lat="48.62276" lon="-3.51034">
        <ele>45</ele>
        <time>2015-10-26T14:45:38Z</time>
      </trkpt>
      <trkpt lat="48.62306" lon="-3.50916">
        <ele>44</ele>
        <time>2015-10-26T14:45:51Z</time>
      </trkpt>
      <trkpt lat="48.62315" lon="-3.50882">
        <ele>43</ele>
        <time>2015-10-26T14:45:55Z</time>
      </trkpt>
      <trkpt lat="48.62315" lon="-3.50858">
        <ele>42</ele>
        <time>2015-10-26T14:45:58Z</time>
      </trkpt>
      <trkpt lat="48.62308" lon="-3.50836">
        <ele>41</ele>
        <time>2015-10-26T14:46:01Z</time>
      </trkpt>
      <trkpt lat="48.62298" lon="-3.50817">
        <ele>41</ele>
        <time>2015-10-26T14:46:06Z</time>
      </trkpt>
      <trkpt lat="48.62283" lon="-3.50791">
        <ele>40</ele>
        <time>2015-10-26T14:46:13Z</time>
      </trkpt>
      <trkpt lat="48.62274" lon="-3.5077">
        <ele>40</ele>
        <time>2015-10-26T14:46:19Z</time>
      </trkpt>
      <trkpt lat="48.62259" lon="-3.50706">
        <ele>113</ele>
        <time>2015-10-26T14:46:31Z</time>
      </trkpt>
      <trkpt lat="48.62239" lon="-3.50485">
        <ele>46</ele>
        <time>2015-10-26T14:47:03Z</time>
      </trkpt>
      <trkpt lat="48.62238" lon="-3.50458">
        <ele>47</ele>
        <time>2015-10-26T14:47:08Z</time>
      </trkpt>
      <trkpt lat="48.62238" lon="-3.5043">
        <ele>49</ele>
        <time>2015-10-26T14:47:13Z</time>
      </trkpt>
      <trkpt lat="48.62236" lon="-3.50403">
        <ele>51</ele>
        <time>2015-10-26T14:47:18Z</time>
      </trkpt>
      <trkpt lat="48.62235" lon="-3.50376">
        <ele>52</ele>
        <time>2015-10-26T14:47:23Z</time>
      </trkpt>
      <trkpt lat="48.62233" lon="-3.50349">
        <ele>54</ele>
        <time>2015-10-26T14:47:28Z</time>
      </trkpt>
      <trkpt lat="48.6223" lon="-3.50322">
        <ele>55</ele>
        <time>2015-10-26T14:47:33Z</time>
      </trkpt>
      <trkpt lat="48.62226" lon="-3.50296">
        <ele>57</ele>
        <time>2015-10-26T14:47:38Z</time>
      </trkpt>
      <trkpt lat="48.62228" lon="-3.50272">
        <ele>58</ele>
        <time>2015-10-26T14:47:43Z</time>
      </trkpt>
      <trkpt lat="48.62274" lon="-3.50267">
        <ele>119</ele>
        <time>2015-10-26T14:47:59Z</time>
      </trkpt>
      <trkpt lat="48.62311" lon="-3.50281">
        <ele>59</ele>
        <time>2015-10-26T14:48:05Z</time>
      </trkpt>
      <trkpt lat="48.62357" lon="-3.50306">
        <ele>118.2</ele>
        <time>2015-10-26T14:48:13Z</time>
      </trkpt>
      <trkpt lat="48.62473" lon="-3.50404">
        <ele>112</ele>
        <time>2015-10-26T14:48:29Z</time>
      </trkpt>
      <trkpt lat="48.62636" lon="-3.50557">
        <ele>107.9</ele>
        <time>2015-10-26T14:48:53Z</time>
      </trkpt>
      <trkpt lat="48.62681" lon="-3.50576">
        <ele>108.9</ele>
        <time>2015-10-26T14:49:02Z</time>
      </trkpt>
      <trkpt lat="48.6278" lon="-3.5063">
        <ele>57</ele>
        <time>2015-10-26T14:49:40Z</time>
      </trkpt>
      <trkpt lat="48.62804" lon="-3.50639">
        <ele>57</ele>
        <time>2015-10-26T14:49:53Z</time>
      </trkpt>
      <trkpt lat="48.62829" lon="-3.50647">
        <ele>57</ele>
        <time>2015-10-26T14:50:03Z</time>
      </trkpt>
      <trkpt lat="48.62848" lon="-3.50655">
        <ele>56</ele>
        <time>2015-10-26T14:50:13Z</time>
      </trkpt>
      <trkpt lat="48.62868" lon="-3.50663">
        <ele>56</ele>
        <time>2015-10-26T14:50:25Z</time>
      </trkpt>
      <trkpt lat="48.62888" lon="-3.50668">
        <ele>56</ele>
        <time>2015-10-26T14:50:34Z</time>
      </trkpt>
      <trkpt lat="48.62908" lon="-3.50675">
        <ele>57</ele>
        <time>2015-10-26T14:50:41Z</time>
      </trkpt>
      <trkpt lat="48.62936" lon="-3.50687">
        <ele>57</ele>
        <time>2015-10-26T14:50:50Z</time>
      </trkpt>
      <trkpt lat="48.62952" lon="-3.50691">
        <ele>58</ele>
        <time>2015-10-26T14:50:54Z</time>
      </trkpt>
      <trkpt lat="48.6297" lon="-3.50695">
        <ele>59</ele>
        <time>2015-10-26T14:50:58Z</time>
      </trkpt>
      <trkpt lat="48.63006" lon="-3.507">
        <ele>59</ele>
        <time>2015-10-26T14:51:05Z</time>
      </trkpt>
      <trkpt lat="48.63024" lon="-3.50707">
        <ele>59</ele>
        <time>2015-10-26T14:51:09Z</time>
      </trkpt>
      <trkpt lat="48.63055" lon="-3.50738">
        <ele>60</ele>
        <time>2015-10-26T14:51:17Z</time>
      </trkpt>
      <trkpt lat="48.63069" lon="-3.50761">
        <ele>60</ele>
        <time>2015-10-26T14:51:21Z</time>
      </trkpt>
      <trkpt lat="48.63079" lon="-3.50782">
        <ele>61</ele>
        <time>2015-10-26T14:51:24Z</time>
      </trkpt>
      <trkpt lat="48.63092" lon="-3.50799">
        <ele>61</ele>
        <time>2015-10-26T14:51:27Z</time>
      </trkpt>
      <trkpt lat="48.63108" lon="-3.5081">
        <ele>61</ele>
        <time>2015-10-26T14:51:30Z</time>
      </trkpt>
      <trkpt lat="48.63186" lon="-3.50848">
        <ele>62</ele>
        <time>2015-10-26T14:51:43Z</time>
      </trkpt>
      <trkpt lat="48.63206" lon="-3.50857">
        <ele>62</ele>
        <time>2015-10-26T14:51:46Z</time>
      </trkpt>
      <trkpt lat="48.63227" lon="-3.50868">
        <ele>62</ele>
        <time>2015-10-26T14:51:49Z</time>
      </trkpt>
      <trkpt lat="48.63248" lon="-3.50881">
        <ele>63</ele>
        <time>2015-10-26T14:51:52Z</time>
      </trkpt>
      <trkpt lat="48.63284" lon="-3.50908">
        <ele>63</ele>
        <time>2015-10-26T14:51:57Z</time>
      </trkpt>
      <trkpt lat="48.63316" lon="-3.50942">
        <ele>63</ele>
        <time>2015-10-26T14:52:02Z</time>
      </trkpt>
      <trkpt lat="48.63329" lon="-3.5096">
        <ele>63</ele>
        <time>2015-10-26T14:52:04Z</time>
      </trkpt>
      <trkpt lat="48.63342" lon="-3.50974">
        <ele>63</ele>
        <time>2015-10-26T14:52:06Z</time>
      </trkpt>
      <trkpt lat="48.63361" lon="-3.5099">
        <ele>63</ele>
        <time>2015-10-26T14:52:09Z</time>
      </trkpt>
      <trkpt lat="48.63381" lon="-3.51003">
        <ele>63</ele>
        <time>2015-10-26T14:52:12Z</time>
      </trkpt>
      <trkpt lat="48.634" lon="-3.51015">
        <ele>63</ele>
        <time>2015-10-26T14:52:15Z</time>
      </trkpt>
      <trkpt lat="48.6342" lon="-3.51026">
        <ele>63</ele>
        <time>2015-10-26T14:52:18Z</time>
      </trkpt>
      <trkpt lat="48.63439" lon="-3.51036">
        <ele>63</ele>
        <time>2015-10-26T14:52:21Z</time>
      </trkpt>
      <trkpt lat="48.63458" lon="-3.51048">
        <ele>63</ele>
        <time>2015-10-26T14:52:24Z</time>
      </trkpt>
      <trkpt lat="48.63478" lon="-3.51058">
        <ele>63</ele>
        <time>2015-10-26T14:52:27Z</time>
      </trkpt>
      <trkpt lat="48.63496" lon="-3.51064">
        <ele>63</ele>
        <time>2015-10-26T14:52:30Z</time>
      </trkpt>
      <trkpt lat="48.63514" lon="-3.51068">
        <ele>63</ele>
        <time>2015-10-26T14:52:33Z</time>
      </trkpt>
      <trkpt lat="48.63532" lon="-3.51072">
        <ele>63</ele>
        <time>2015-10-26T14:52:36Z</time>
      </trkpt>
      <trkpt lat="48.63549" lon="-3.51073">
        <ele>63</ele>
        <time>2015-10-26T14:52:39Z</time>
      </trkpt>
      <trkpt lat="48.63566" lon="-3.51074">
        <ele>63</ele>
        <time>2015-10-26T14:52:42Z</time>
      </trkpt>
      <trkpt lat="48.63592" lon="-3.51059">
        <ele>64</ele>
        <time>2015-10-26T14:52:47Z</time>
      </trkpt>
      <trkpt lat="48.63601" lon="-3.51039">
        <ele>64</ele>
        <time>2015-10-26T14:52:50Z</time>
      </trkpt>
      <trkpt lat="48.63611" lon="-3.51002">
        <ele>64</ele>
        <time>2015-10-26T14:52:55Z</time>
      </trkpt>
      <trkpt lat="48.63616" lon="-3.50976">
        <ele>64</ele>
        <time>2015-10-26T14:52:59Z</time>
      </trkpt>
      <trkpt lat="48.63621" lon="-3.50954">
        <ele>64</ele>
        <time>2015-10-26T14:53:03Z</time>
      </trkpt>
      <trkpt lat="48.63627" lon="-3.50937">
        <ele>64</ele>
        <time>2015-10-26T14:53:07Z</time>
      </trkpt>
      <trkpt lat="48.63638" lon="-3.50911">
        <ele>64</ele>
        <time>2015-10-26T14:53:15Z</time>
      </trkpt>
      <trkpt lat="48.63646" lon="-3.50898">
        <ele>65</ele>
        <time>2015-10-26T14:53:20Z</time>
      </trkpt>
      <trkpt lat="48.63653" lon="-3.50889">
        <ele>66</ele>
        <time>2015-10-26T14:53:24Z</time>
      </trkpt>
      <trkpt lat="48.63666" lon="-3.50874">
        <ele>67</ele>
        <time>2015-10-26T14:53:31Z</time>
      </trkpt>
      <trkpt lat="48.63675" lon="-3.50852">
        <ele>68</ele>
        <time>2015-10-26T14:53:38Z</time>
      </trkpt>
      <trkpt lat="48.63677" lon="-3.50837">
        <ele>69</ele>
        <time>2015-10-26T14:53:42Z</time>
      </trkpt>
      <trkpt lat="48.63679" lon="-3.50823">
        <ele>69</ele>
        <time>2015-10-26T14:53:45Z</time>
      </trkpt>
      <trkpt lat="48.63681" lon="-3.50797">
        <ele>70</ele>
        <time>2015-10-26T14:53:50Z</time>
      </trkpt>
      <trkpt lat="48.63682" lon="-3.50775">
        <ele>71</ele>
        <time>2015-10-26T14:53:54Z</time>
      </trkpt>
      <trkpt lat="48.63684" lon="-3.50753">
        <ele>72</ele>
        <time>2015-10-26T14:53:58Z</time>
      </trkpt>
      <trkpt lat="48.63686" lon="-3.50736">
        <ele>72</ele>
        <time>2015-10-26T14:54:01Z</time>
      </trkpt>
      <trkpt lat="48.63688" lon="-3.50709">
        <ele>71</ele>
        <time>2015-10-26T14:54:06Z</time>
      </trkpt>
      <trkpt lat="48.63691" lon="-3.50693">
        <ele>71</ele>
        <time>2015-10-26T14:54:09Z</time>
      </trkpt>
      <trkpt lat="48.63697" lon="-3.50666">
        <ele>70</ele>
        <time>2015-10-26T14:54:14Z</time>
      </trkpt>
      <trkpt lat="48.63708" lon="-3.50644">
        <ele>69</ele>
        <time>2015-10-26T14:54:19Z</time>
      </trkpt>
      <trkpt lat="48.63717" lon="-3.50625">
        <ele>69</ele>
        <time>2015-10-26T14:54:24Z</time>
      </trkpt>
      <trkpt lat="48.63725" lon="-3.50617">
        <ele>69</ele>
        <time>2015-10-26T14:54:27Z</time>
      </trkpt>
      <trkpt lat="48.63742" lon="-3.50583">
        <ele>69</ele>
        <time>2015-10-26T14:54:35Z</time>
      </trkpt>
      <trkpt lat="48.63748" lon="-3.50556">
        <ele>69</ele>
        <time>2015-10-26T14:54:40Z</time>
      </trkpt>
      <trkpt lat="48.63751" lon="-3.50527">
        <ele>69</ele>
        <time>2015-10-26T14:54:45Z</time>
      </trkpt>
      <trkpt lat="48.63753" lon="-3.50504">
        <ele>69</ele>
        <time>2015-10-26T14:54:49Z</time>
      </trkpt>
      <trkpt lat="48.63759" lon="-3.5047">
        <ele>69</ele>
        <time>2015-10-26T14:54:54Z</time>
      </trkpt>
      <trkpt lat="48.63767" lon="-3.50443">
        <ele>69</ele>
        <time>2015-10-26T14:54:58Z</time>
      </trkpt>
      <trkpt lat="48.63778" lon="-3.50418">
        <ele>69</ele>
        <time>2015-10-26T14:55:02Z</time>
      </trkpt>
      <trkpt lat="48.63789" lon="-3.50394">
        <ele>70</ele>
        <time>2015-10-26T14:55:06Z</time>
      </trkpt>
      <trkpt lat="48.63802" lon="-3.50372">
        <ele>70</ele>
        <time>2015-10-26T14:55:10Z</time>
      </trkpt>
      <trkpt lat="48.63815" lon="-3.50351">
        <ele>70</ele>
        <time>2015-10-26T14:55:14Z</time>
      </trkpt>
      <trkpt lat="48.63828" lon="-3.50329">
        <ele>71</ele>
        <time>2015-10-26T14:55:18Z</time>
      </trkpt>
      <trkpt lat="48.63839" lon="-3.50308">
        <ele>71</ele>
        <time>2015-10-26T14:55:22Z</time>
      </trkpt>
      <trkpt lat="48.63848" lon="-3.50285">
        <ele>72</ele>
        <time>2015-10-26T14:55:26Z</time>
      </trkpt>
      <trkpt lat="48.63852" lon="-3.50274">
        <ele>72</ele>
        <time>2015-10-26T14:55:28Z</time>
      </trkpt>
      <trkpt lat="48.63857" lon="-3.50263">
        <ele>73</ele>
        <time>2015-10-26T14:55:30Z</time>
      </trkpt>
      <trkpt lat="48.63868" lon="-3.50244">
        <ele>73</ele>
        <time>2015-10-26T14:55:34Z</time>
      </trkpt>
      <trkpt lat="48.63883" lon="-3.50228">
        <ele>74</ele>
        <time>2015-10-26T14:55:39Z</time>
      </trkpt>
      <trkpt lat="48.639" lon="-3.50223">
        <ele>74</ele>
        <time>2015-10-26T14:55:44Z</time>
      </trkpt>
      <trkpt lat="48.63918" lon="-3.50224">
        <ele>75</ele>
        <time>2015-10-26T14:55:49Z</time>
      </trkpt>
      <trkpt lat="48.63944" lon="-3.50227">
        <ele>75</ele>
        <time>2015-10-26T14:55:55Z</time>
      </trkpt>
      <trkpt lat="48.63963" lon="-3.50228">
        <ele>75</ele>
        <time>2015-10-26T14:55:59Z</time>
      </trkpt>
      <trkpt lat="48.63983" lon="-3.50221">
        <ele>76</ele>
        <time>2015-10-26T14:56:03Z</time>
      </trkpt>
      <trkpt lat="48.63996" lon="-3.50208">
        <ele>76</ele>
        <time>2015-10-26T14:56:06Z</time>
      </trkpt>
      <trkpt lat="48.64007" lon="-3.50189">
        <ele>76</ele>
        <time>2015-10-26T14:56:10Z</time>
      </trkpt>
      <trkpt lat="48.64009" lon="-3.5016">
        <ele>77</ele>
        <time>2015-10-26T14:56:15Z</time>
      </trkpt>
      <trkpt lat="48.64008" lon="-3.50126">
        <ele>77</ele>
        <time>2015-10-26T14:56:21Z</time>
      </trkpt>
      <trkpt lat="48.64006" lon="-3.50098">
        <ele>78</ele>
        <time>2015-10-26T14:56:26Z</time>
      </trkpt>
      <trkpt lat="48.64004" lon="-3.50069">
        <ele>78</ele>
        <time>2015-10-26T14:56:31Z</time>
      </trkpt>
      <trkpt lat="48.64003" lon="-3.50045">
        <ele>78</ele>
        <time>2015-10-26T14:56:35Z</time>
      </trkpt>
      <trkpt lat="48.64003" lon="-3.50021">
        <ele>79</ele>
        <time>2015-10-26T14:56:39Z</time>
      </trkpt>
      <trkpt lat="48.64007" lon="-3.49995">
        <ele>80</ele>
        <time>2015-10-26T14:56:43Z</time>
      </trkpt>
      <trkpt lat="48.64013" lon="-3.49967">
        <ele>80</ele>
        <time>2015-10-26T14:56:47Z</time>
      </trkpt>
      <trkpt lat="48.6402" lon="-3.49938">
        <ele>81</ele>
        <time>2015-10-26T14:56:51Z</time>
      </trkpt>
      <trkpt lat="48.64024" lon="-3.49925">
        <ele>82</ele>
        <time>2015-10-26T14:56:53Z</time>
      </trkpt>
      <trkpt lat="48.64033" lon="-3.49899">
        <ele>82</ele>
        <time>2015-10-26T14:56:57Z</time>
      </trkpt>
      <trkpt lat="48.64038" lon="-3.49887">
        <ele>83</ele>
        <time>2015-10-26T14:56:59Z</time>
      </trkpt>
      <trkpt lat="48.64043" lon="-3.49876">
        <ele>83</ele>
        <time>2015-10-26T14:57:01Z</time>
      </trkpt>
      <trkpt lat="48.64048" lon="-3.49865">
        <ele>84</ele>
        <time>2015-10-26T14:57:03Z</time>
      </trkpt>
      <trkpt lat="48.64058" lon="-3.49842">
        <ele>84</ele>
        <time>2015-10-26T14:57:07Z</time>
      </trkpt>
      <trkpt lat="48.64065" lon="-3.49817">
        <ele>85</ele>
        <time>2015-10-26T14:57:11Z</time>
      </trkpt>
      <trkpt lat="48.64069" lon="-3.49805">
        <ele>85</ele>
        <time>2015-10-26T14:57:13Z</time>
      </trkpt>
      <trkpt lat="48.64072" lon="-3.49792">
        <ele>85</ele>
        <time>2015-10-26T14:57:15Z</time>
      </trkpt>
      <trkpt lat="48.64075" lon="-3.49779">
        <ele>85</ele>
        <time>2015-10-26T14:57:17Z</time>
      </trkpt>
      <trkpt lat="48.64078" lon="-3.49767">
        <ele>86</ele>
        <time>2015-10-26T14:57:19Z</time>
      </trkpt>
      <trkpt lat="48.64083" lon="-3.4975">
        <ele>86</ele>
        <time>2015-10-26T14:57:22Z</time>
      </trkpt>
      <trkpt lat="48.64094" lon="-3.49737">
        <ele>86</ele>
        <time>2015-10-26T14:57:26Z</time>
      </trkpt>
      <trkpt lat="48.64116" lon="-3.49748">
        <ele>87</ele>
        <time>2015-10-26T14:57:31Z</time>
      </trkpt>
      <trkpt lat="48.64131" lon="-3.49763">
        <ele>87</ele>
        <time>2015-10-26T14:57:34Z</time>
      </trkpt>
      <trkpt lat="48.64153" lon="-3.49787">
        <ele>87</ele>
        <time>2015-10-26T14:57:38Z</time>
      </trkpt>
      <trkpt lat="48.64169" lon="-3.49805">
        <ele>87</ele>
        <time>2015-10-26T14:57:41Z</time>
      </trkpt>
      <trkpt lat="48.64186" lon="-3.49823">
        <ele>87</ele>
        <time>2015-10-26T14:57:44Z</time>
      </trkpt>
      <trkpt lat="48.64207" lon="-3.49846">
        <ele>87</ele>
        <time>2015-10-26T14:57:48Z</time>
      </trkpt>
      <trkpt lat="48.64224" lon="-3.49864">
        <ele>87</ele>
        <time>2015-10-26T14:57:51Z</time>
      </trkpt>
      <trkpt lat="48.64241" lon="-3.49881">
        <ele>87</ele>
        <time>2015-10-26T14:57:54Z</time>
      </trkpt>
      <trkpt lat="48.64258" lon="-3.49902">
        <ele>87</ele>
        <time>2015-10-26T14:57:57Z</time>
      </trkpt>
      <trkpt lat="48.64274" lon="-3.49926">
        <ele>87</ele>
        <time>2015-10-26T14:58:00Z</time>
      </trkpt>
      <trkpt lat="48.64286" lon="-3.49954">
        <ele>87</ele>
        <time>2015-10-26T14:58:03Z</time>
      </trkpt>
      <trkpt lat="48.64299" lon="-3.4998">
        <ele>86</ele>
        <time>2015-10-26T14:58:06Z</time>
      </trkpt>
      <trkpt lat="48.64312" lon="-3.50019">
        <ele>86</ele>
        <time>2015-10-26T14:58:10Z</time>
      </trkpt>
      <trkpt lat="48.64321" lon="-3.50046">
        <ele>86</ele>
        <time>2015-10-26T14:58:13Z</time>
      </trkpt>
      <trkpt lat="48.64329" lon="-3.50074">
        <ele>86</ele>
        <time>2015-10-26T14:58:16Z</time>
      </trkpt>
      <trkpt lat="48.64352" lon="-3.50123">
        <ele>87</ele>
        <time>2015-10-26T14:58:22Z</time>
      </trkpt>
      <trkpt lat="48.64365" lon="-3.50138">
        <ele>87</ele>
        <time>2015-10-26T14:58:24Z</time>
      </trkpt>
      <trkpt lat="48.64396" lon="-3.50176">
        <ele>87</ele>
        <time>2015-10-26T14:58:29Z</time>
      </trkpt>
      <trkpt lat="48.64414" lon="-3.50203">
        <ele>87</ele>
        <time>2015-10-26T14:58:32Z</time>
      </trkpt>
      <trkpt lat="48.64425" lon="-3.50223">
        <ele>87</ele>
        <time>2015-10-26T14:58:34Z</time>
      </trkpt>
      <trkpt lat="48.64436" lon="-3.50243">
        <ele>87</ele>
        <time>2015-10-26T14:58:36Z</time>
      </trkpt>
      <trkpt lat="48.64446" lon="-3.50262">
        <ele>86</ele>
        <time>2015-10-26T14:58:38Z</time>
      </trkpt>
      <trkpt lat="48.64461" lon="-3.5029">
        <ele>86</ele>
        <time>2015-10-26T14:58:41Z</time>
      </trkpt>
      <trkpt lat="48.64475" lon="-3.50317">
        <ele>86</ele>
        <time>2015-10-26T14:58:44Z</time>
      </trkpt>
      <trkpt lat="48.64488" lon="-3.50345">
        <ele>86</ele>
        <time>2015-10-26T14:58:47Z</time>
      </trkpt>
      <trkpt lat="48.64496" lon="-3.50365">
        <ele>86</ele>
        <time>2015-10-26T14:58:49Z</time>
      </trkpt>
      <trkpt lat="48.64508" lon="-3.50429">
        <ele>130</ele>
        <time>2015-10-26T14:58:55Z</time>
      </trkpt>
      <trkpt lat="48.64502" lon="-3.50558">
        <ele>85</ele>
        <time>2015-10-26T14:59:07Z</time>
      </trkpt>
      <trkpt lat="48.64505" lon="-3.50646">
        <ele>85</ele>
        <time>2015-10-26T14:59:15Z</time>
      </trkpt>
      <trkpt lat="48.64508" lon="-3.50669">
        <ele>85</ele>
        <time>2015-10-26T14:59:17Z</time>
      </trkpt>
      <trkpt lat="48.64523" lon="-3.50737">
        <ele>85</ele>
        <time>2015-10-26T14:59:23Z</time>
      </trkpt>
      <trkpt lat="48.64534" lon="-3.50767">
        <ele>84</ele>
        <time>2015-10-26T14:59:26Z</time>
      </trkpt>
      <trkpt lat="48.64549" lon="-3.50789">
        <ele>84</ele>
        <time>2015-10-26T14:59:29Z</time>
      </trkpt>
      <trkpt lat="48.6457" lon="-3.50804">
        <ele>84</ele>
        <time>2015-10-26T14:59:32Z</time>
      </trkpt>
      <trkpt lat="48.64589" lon="-3.50819">
        <ele>83</ele>
        <time>2015-10-26T14:59:35Z</time>
      </trkpt>
      <trkpt lat="48.64609" lon="-3.50825">
        <ele>83</ele>
        <time>2015-10-26T14:59:38Z</time>
      </trkpt>
      <trkpt lat="48.6463" lon="-3.5082">
        <ele>82</ele>
        <time>2015-10-26T14:59:41Z</time>
      </trkpt>
      <trkpt lat="48.64699" lon="-3.50809">
        <ele>124.9</ele>
        <time>2015-10-26T14:59:51Z</time>
      </trkpt>
      <trkpt lat="48.64747" lon="-3.50814">
        <ele>124.7</ele>
        <time>2015-10-26T14:59:58Z</time>
      </trkpt>
      <trkpt lat="48.64851" lon="-3.50834">
        <ele>80</ele>
        <time>2015-10-26T15:00:12Z</time>
      </trkpt>
      <trkpt lat="48.64895" lon="-3.50814">
        <ele>123.9</ele>
        <time>2015-10-26T15:00:19Z</time>
      </trkpt>
      <trkpt lat="48.64932" lon="-3.50782">
        <ele>123.4</ele>
        <time>2015-10-26T15:00:26Z</time>
      </trkpt>
      <trkpt lat="48.6498" lon="-3.50781">
        <ele>122</ele>
        <time>2015-10-26T15:00:34Z</time>
      </trkpt>
      <trkpt lat="48.65023" lon="-3.50789">
        <ele>120.8</ele>
        <time>2015-10-26T15:00:40Z</time>
      </trkpt>
      <trkpt lat="48.65063" lon="-3.5081">
        <ele>119.6</ele>
        <time>2015-10-26T15:00:45Z</time>
      </trkpt>
      <trkpt lat="48.65101" lon="-3.50849">
        <ele>118</ele>
        <time>2015-10-26T15:00:50Z</time>
      </trkpt>
      <trkpt lat="48.65186" lon="-3.50943">
        <ele>79</ele>
        <time>2015-10-26T15:01:01Z</time>
      </trkpt>
      <trkpt lat="48.65204" lon="-3.50936">
        <ele>78</ele>
        <time>2015-10-26T15:01:03Z</time>
      </trkpt>
      <trkpt lat="48.6522" lon="-3.50931">
        <ele>77</ele>
        <time>2015-10-26T15:01:05Z</time>
      </trkpt>
      <trkpt lat="48.65237" lon="-3.50923">
        <ele>76</ele>
        <time>2015-10-26T15:01:07Z</time>
      </trkpt>
      <trkpt lat="48.65252" lon="-3.50913">
        <ele>76</ele>
        <time>2015-10-26T15:01:09Z</time>
      </trkpt>
      <trkpt lat="48.6527" lon="-3.5089">
        <ele>75</ele>
        <time>2015-10-26T15:01:12Z</time>
      </trkpt>
      <trkpt lat="48.65283" lon="-3.50864">
        <ele>74</ele>
        <time>2015-10-26T15:01:15Z</time>
      </trkpt>
      <trkpt lat="48.65295" lon="-3.50837">
        <ele>73</ele>
        <time>2015-10-26T15:01:18Z</time>
      </trkpt>
      <trkpt lat="48.6531" lon="-3.50814">
        <ele>72</ele>
        <time>2015-10-26T15:01:21Z</time>
      </trkpt>
      <trkpt lat="48.65339" lon="-3.50791">
        <ele>70</ele>
        <time>2015-10-26T15:01:26Z</time>
      </trkpt>
      <trkpt lat="48.65358" lon="-3.5078">
        <ele>69</ele>
        <time>2015-10-26T15:01:29Z</time>
      </trkpt>
      <trkpt lat="48.65379" lon="-3.50778">
        <ele>68</ele>
        <time>2015-10-26T15:01:32Z</time>
      </trkpt>
      <trkpt lat="48.65401" lon="-3.50777">
        <ele>67</ele>
        <time>2015-10-26T15:01:35Z</time>
      </trkpt>
      <trkpt lat="48.65423" lon="-3.50777">
        <ele>66</ele>
        <time>2015-10-26T15:01:38Z</time>
      </trkpt>
      <trkpt lat="48.65466" lon="-3.50792">
        <ele>111</ele>
        <time>2015-10-26T15:01:44Z</time>
      </trkpt>
      <trkpt lat="48.65683" lon="-3.50918">
        <ele>58</ele>
        <time>2015-10-26T15:02:15Z</time>
      </trkpt>
      <trkpt lat="48.65701" lon="-3.50931">
        <ele>57</ele>
        <time>2015-10-26T15:02:18Z</time>
      </trkpt>
      <trkpt lat="48.65719" lon="-3.50943">
        <ele>57</ele>
        <time>2015-10-26T15:02:21Z</time>
      </trkpt>
      <trkpt lat="48.65739" lon="-3.50955">
        <ele>56</ele>
        <time>2015-10-26T15:02:24Z</time>
      </trkpt>
      <trkpt lat="48.65755" lon="-3.50952">
        <ele>56</ele>
        <time>2015-10-26T15:02:26Z</time>
      </trkpt>
      <trkpt lat="48.65772" lon="-3.5095">
        <ele>56</ele>
        <time>2015-10-26T15:02:28Z</time>
      </trkpt>
      <trkpt lat="48.65789" lon="-3.5095">
        <ele>55</ele>
        <time>2015-10-26T15:02:30Z</time>
      </trkpt>
      <trkpt lat="48.65806" lon="-3.50952">
        <ele>55</ele>
        <time>2015-10-26T15:02:32Z</time>
      </trkpt>
      <trkpt lat="48.65822" lon="-3.50956">
        <ele>55</ele>
        <time>2015-10-26T15:02:34Z</time>
      </trkpt>
      <trkpt lat="48.65837" lon="-3.50963">
        <ele>55</ele>
        <time>2015-10-26T15:02:36Z</time>
      </trkpt>
      <trkpt lat="48.6585" lon="-3.50975">
        <ele>55</ele>
        <time>2015-10-26T15:02:38Z</time>
      </trkpt>
      <trkpt lat="48.6592" lon="-3.5105">
        <ele>55</ele>
        <time>2015-10-26T15:02:51Z</time>
      </trkpt>
      <trkpt lat="48.65939" lon="-3.51051">
        <ele>55</ele>
        <time>2015-10-26T15:02:54Z</time>
      </trkpt>
      <trkpt lat="48.65956" lon="-3.51047">
        <ele>55</ele>
        <time>2015-10-26T15:02:57Z</time>
      </trkpt>
      <trkpt lat="48.65972" lon="-3.51041">
        <ele>55</ele>
        <time>2015-10-26T15:03:00Z</time>
      </trkpt>
      <trkpt lat="48.65987" lon="-3.51034">
        <ele>55</ele>
        <time>2015-10-26T15:03:03Z</time>
      </trkpt>
      <trkpt lat="48.66003" lon="-3.51027">
        <ele>55</ele>
        <time>2015-10-26T15:03:06Z</time>
      </trkpt>
      <trkpt lat="48.66019" lon="-3.51019">
        <ele>56</ele>
        <time>2015-10-26T15:03:09Z</time>
      </trkpt>
      <trkpt lat="48.66029" lon="-3.51014">
        <ele>56</ele>
        <time>2015-10-26T15:03:11Z</time>
      </trkpt>
      <trkpt lat="48.66039" lon="-3.51009">
        <ele>56</ele>
        <time>2015-10-26T15:03:13Z</time>
      </trkpt>
      <trkpt lat="48.66055" lon="-3.51002">
        <ele>56</ele>
        <time>2015-10-26T15:03:16Z</time>
      </trkpt>
      <trkpt lat="48.66065" lon="-3.50998">
        <ele>56</ele>
        <time>2015-10-26T15:03:18Z</time>
      </trkpt>
      <trkpt lat="48.66081" lon="-3.5099">
        <ele>57</ele>
        <time>2015-10-26T15:03:21Z</time>
      </trkpt>
      <trkpt lat="48.66092" lon="-3.50984">
        <ele>57</ele>
        <time>2015-10-26T15:03:23Z</time>
      </trkpt>
      <trkpt lat="48.66108" lon="-3.50977">
        <ele>57</ele>
        <time>2015-10-26T15:03:26Z</time>
      </trkpt>
      <trkpt lat="48.66124" lon="-3.50971">
        <ele>57</ele>
        <time>2015-10-26T15:03:29Z</time>
      </trkpt>
      <trkpt lat="48.66141" lon="-3.50968">
        <ele>57</ele>
        <time>2015-10-26T15:03:32Z</time>
      </trkpt>
      <trkpt lat="48.66188" lon="-3.50985">
        <ele>108</ele>
        <time>2015-10-26T15:03:40Z</time>
      </trkpt>
      <trkpt lat="48.66225" lon="-3.51016">
        <ele>106.9</ele>
        <time>2015-10-26T15:03:45Z</time>
      </trkpt>
      <trkpt lat="48.66422" lon="-3.51139">
        <ele>56</ele>
        <time>2015-10-26T15:04:13Z</time>
      </trkpt>
      <trkpt lat="48.66458" lon="-3.5114">
        <ele>55</ele>
        <time>2015-10-26T15:04:18Z</time>
      </trkpt>
      <trkpt lat="48.6648" lon="-3.51139">
        <ele>55</ele>
        <time>2015-10-26T15:04:21Z</time>
      </trkpt>
      <trkpt lat="48.66502" lon="-3.51141">
        <ele>54</ele>
        <time>2015-10-26T15:04:24Z</time>
      </trkpt>
      <trkpt lat="48.66524" lon="-3.51147">
        <ele>53</ele>
        <time>2015-10-26T15:04:27Z</time>
      </trkpt>
      <trkpt lat="48.66545" lon="-3.51152">
        <ele>53</ele>
        <time>2015-10-26T15:04:30Z</time>
      </trkpt>
      <trkpt lat="48.66567" lon="-3.51155">
        <ele>52</ele>
        <time>2015-10-26T15:04:33Z</time>
      </trkpt>
      <trkpt lat="48.66588" lon="-3.51158">
        <ele>52</ele>
        <time>2015-10-26T15:04:36Z</time>
      </trkpt>
      <trkpt lat="48.66611" lon="-3.51158">
        <ele>51</ele>
        <time>2015-10-26T15:04:39Z</time>
      </trkpt>
      <trkpt lat="48.66627" lon="-3.51157">
        <ele>51</ele>
        <time>2015-10-26T15:04:41Z</time>
      </trkpt>
      <trkpt lat="48.66649" lon="-3.51147">
        <ele>51</ele>
        <time>2015-10-26T15:04:44Z</time>
      </trkpt>
      <trkpt lat="48.66671" lon="-3.51139">
        <ele>50</ele>
        <time>2015-10-26T15:04:47Z</time>
      </trkpt>
      <trkpt lat="48.6669" lon="-3.51125">
        <ele>50</ele>
        <time>2015-10-26T15:04:50Z</time>
      </trkpt>
      <trkpt lat="48.66707" lon="-3.51108">
        <ele>50</ele>
        <time>2015-10-26T15:04:53Z</time>
      </trkpt>
      <trkpt lat="48.66722" lon="-3.51091">
        <ele>49</ele>
        <time>2015-10-26T15:04:56Z</time>
      </trkpt>
      <trkpt lat="48.66732" lon="-3.51074">
        <ele>49</ele>
        <time>2015-10-26T15:04:59Z</time>
      </trkpt>
      <trkpt lat="48.66745" lon="-3.5105">
        <ele>49</ele>
        <time>2015-10-26T15:05:03Z</time>
      </trkpt>
      <trkpt lat="48.66753" lon="-3.51032">
        <ele>49</ele>
        <time>2015-10-26T15:05:06Z</time>
      </trkpt>
      <trkpt lat="48.66758" lon="-3.5102">
        <ele>49</ele>
        <time>2015-10-26T15:05:08Z</time>
      </trkpt>
      <trkpt lat="48.6677" lon="-3.50996">
        <ele>49</ele>
        <time>2015-10-26T15:05:12Z</time>
      </trkpt>
      <trkpt lat="48.66776" lon="-3.50984">
        <ele>49</ele>
        <time>2015-10-26T15:05:14Z</time>
      </trkpt>
      <trkpt lat="48.66783" lon="-3.50972">
        <ele>49</ele>
        <time>2015-10-26T15:05:16Z</time>
      </trkpt>
      <trkpt lat="48.66791" lon="-3.50961">
        <ele>49</ele>
        <time>2015-10-26T15:05:18Z</time>
      </trkpt>
      <trkpt lat="48.66798" lon="-3.50951">
        <ele>49</ele>
        <time>2015-10-26T15:05:20Z</time>
      </trkpt>
      <trkpt lat="48.66807" lon="-3.50942">
        <ele>50</ele>
        <time>2015-10-26T15:05:22Z</time>
      </trkpt>
      <trkpt lat="48.66815" lon="-3.50934">
        <ele>50</ele>
        <time>2015-10-26T15:05:24Z</time>
      </trkpt>
      <trkpt lat="48.66824" lon="-3.50925">
        <ele>50</ele>
        <time>2015-10-26T15:05:26Z</time>
      </trkpt>
      <trkpt lat="48.66832" lon="-3.50917">
        <ele>50</ele>
        <time>2015-10-26T15:05:28Z</time>
      </trkpt>
      <trkpt lat="48.6684" lon="-3.50908">
        <ele>50</ele>
        <time>2015-10-26T15:05:30Z</time>
      </trkpt>
      <trkpt lat="48.66849" lon="-3.50899">
        <ele>51</ele>
        <time>2015-10-26T15:05:32Z</time>
      </trkpt>
      <trkpt lat="48.66865" lon="-3.50883">
        <ele>51</ele>
        <time>2015-10-26T15:05:36Z</time>
      </trkpt>
      <trkpt lat="48.66882" lon="-3.50868">
        <ele>52</ele>
        <time>2015-10-26T15:05:40Z</time>
      </trkpt>
      <trkpt lat="48.6689" lon="-3.5086">
        <ele>52</ele>
        <time>2015-10-26T15:05:42Z</time>
      </trkpt>
      <trkpt lat="48.66899" lon="-3.50853">
        <ele>53</ele>
        <time>2015-10-26T15:05:44Z</time>
      </trkpt>
      <trkpt lat="48.66908" lon="-3.50845">
        <ele>53</ele>
        <time>2015-10-26T15:05:46Z</time>
      </trkpt>
      <trkpt lat="48.66926" lon="-3.5083">
        <ele>54</ele>
        <time>2015-10-26T15:05:50Z</time>
      </trkpt>
      <trkpt lat="48.66939" lon="-3.50819">
        <ele>54</ele>
        <time>2015-10-26T15:05:53Z</time>
      </trkpt>
      <trkpt lat="48.66947" lon="-3.50812">
        <ele>55</ele>
        <time>2015-10-26T15:05:55Z</time>
      </trkpt>
      <trkpt lat="48.66965" lon="-3.50798">
        <ele>55</ele>
        <time>2015-10-26T15:05:59Z</time>
      </trkpt>
      <trkpt lat="48.66974" lon="-3.50792">
        <ele>55</ele>
        <time>2015-10-26T15:06:01Z</time>
      </trkpt>
      <trkpt lat="48.66983" lon="-3.50786">
        <ele>56</ele>
        <time>2015-10-26T15:06:03Z</time>
      </trkpt>
      <trkpt lat="48.66997" lon="-3.50777">
        <ele>56</ele>
        <time>2015-10-26T15:06:06Z</time>
      </trkpt>
      <trkpt lat="48.67006" lon="-3.50771">
        <ele>56</ele>
        <time>2015-10-26T15:06:08Z</time>
      </trkpt>
      <trkpt lat="48.67024" lon="-3.50761">
        <ele>56</ele>
        <time>2015-10-26T15:06:12Z</time>
      </trkpt>
      <trkpt lat="48.67062" lon="-3.50745">
        <ele>56</ele>
        <time>2015-10-26T15:06:20Z</time>
      </trkpt>
      <trkpt lat="48.67078" lon="-3.50739">
        <ele>55</ele>
        <time>2015-10-26T15:06:23Z</time>
      </trkpt>
      <trkpt lat="48.67094" lon="-3.50734">
        <ele>54</ele>
        <time>2015-10-26T15:06:26Z</time>
      </trkpt>
      <trkpt lat="48.6711" lon="-3.50729">
        <ele>54</ele>
        <time>2015-10-26T15:06:29Z</time>
      </trkpt>
      <trkpt lat="48.67199" lon="-3.50719">
        <ele>52</ele>
        <time>2015-10-26T15:06:45Z</time>
      </trkpt>
      <trkpt lat="48.67215" lon="-3.50717">
        <ele>52</ele>
        <time>2015-10-26T15:06:48Z</time>
      </trkpt>
      <trkpt lat="48.67232" lon="-3.50716">
        <ele>51</ele>
        <time>2015-10-26T15:06:51Z</time>
      </trkpt>
      <trkpt lat="48.67255" lon="-3.50716">
        <ele>51</ele>
        <time>2015-10-26T15:06:55Z</time>
      </trkpt>
      <trkpt lat="48.67288" lon="-3.50716">
        <ele>50</ele>
        <time>2015-10-26T15:07:01Z</time>
      </trkpt>
      <trkpt lat="48.67306" lon="-3.50716">
        <ele>50</ele>
        <time>2015-10-26T15:07:04Z</time>
      </trkpt>
      <trkpt lat="48.67323" lon="-3.50717">
        <ele>49</ele>
        <time>2015-10-26T15:07:07Z</time>
      </trkpt>
      <trkpt lat="48.6734" lon="-3.50718">
        <ele>49</ele>
        <time>2015-10-26T15:07:10Z</time>
      </trkpt>
      <trkpt lat="48.67357" lon="-3.50721">
        <ele>49</ele>
        <time>2015-10-26T15:07:13Z</time>
      </trkpt>
      <trkpt lat="48.67376" lon="-3.50723">
        <ele>49</ele>
        <time>2015-10-26T15:07:16Z</time>
      </trkpt>
      <trkpt lat="48.67394" lon="-3.50724">
        <ele>48</ele>
        <time>2015-10-26T15:07:19Z</time>
      </trkpt>
      <trkpt lat="48.67412" lon="-3.50724">
        <ele>48</ele>
        <time>2015-10-26T15:07:22Z</time>
      </trkpt>
      <trkpt lat="48.67428" lon="-3.50724">
        <ele>48</ele>
        <time>2015-10-26T15:07:25Z</time>
      </trkpt>
      <trkpt lat="48.67455" lon="-3.50724">
        <ele>48</ele>
        <time>2015-10-26T15:07:30Z</time>
      </trkpt>
      <trkpt lat="48.6747" lon="-3.50722">
        <ele>48</ele>
        <time>2015-10-26T15:07:33Z</time>
      </trkpt>
      <trkpt lat="48.67485" lon="-3.50715">
        <ele>48</ele>
        <time>2015-10-26T15:07:36Z</time>
      </trkpt>
      <trkpt lat="48.67499" lon="-3.507">
        <ele>48</ele>
        <time>2015-10-26T15:07:39Z</time>
      </trkpt>
      <trkpt lat="48.67519" lon="-3.507">
        <ele>48</ele>
        <time>2015-10-26T15:07:43Z</time>
      </trkpt>
      <trkpt lat="48.67536" lon="-3.50706">
        <ele>49</ele>
        <time>2015-10-26T15:07:46Z</time>
      </trkpt>
      <trkpt lat="48.67555" lon="-3.5071">
        <ele>49</ele>
        <time>2015-10-26T15:07:49Z</time>
      </trkpt>
      <trkpt lat="48.67575" lon="-3.50712">
        <ele>49</ele>
        <time>2015-10-26T15:07:52Z</time>
      </trkpt>
      <trkpt lat="48.67595" lon="-3.50711">
        <ele>50</ele>
        <time>2015-10-26T15:07:55Z</time>
      </trkpt>
      <trkpt lat="48.67615" lon="-3.5071">
        <ele>50</ele>
        <time>2015-10-26T15:07:58Z</time>
      </trkpt>
      <trkpt lat="48.67634" lon="-3.5071">
        <ele>50</ele>
        <time>2015-10-26T15:08:01Z</time>
      </trkpt>
      <trkpt lat="48.67653" lon="-3.50708">
        <ele>50</ele>
        <time>2015-10-26T15:08:04Z</time>
      </trkpt>
      <trkpt lat="48.67673" lon="-3.50705">
        <ele>50</ele>
        <time>2015-10-26T15:08:07Z</time>
      </trkpt>
      <trkpt lat="48.67783" lon="-3.5067">
        <ele>50</ele>
        <time>2015-10-26T15:08:22Z</time>
      </trkpt>
      <trkpt lat="48.67799" lon="-3.50663">
        <ele>50</ele>
        <time>2015-10-26T15:08:24Z</time>
      </trkpt>
      <trkpt lat="48.67815" lon="-3.50656">
        <ele>50</ele>
        <time>2015-10-26T15:08:26Z</time>
      </trkpt>
      <trkpt lat="48.67831" lon="-3.50649">
        <ele>50</ele>
        <time>2015-10-26T15:08:28Z</time>
      </trkpt>
      <trkpt lat="48.67852" lon="-3.50639">
        <ele>51</ele>
        <time>2015-10-26T15:08:31Z</time>
      </trkpt>
      <trkpt lat="48.67874" lon="-3.50629">
        <ele>51</ele>
        <time>2015-10-26T15:08:34Z</time>
      </trkpt>
      <trkpt lat="48.67895" lon="-3.50619">
        <ele>51</ele>
        <time>2015-10-26T15:08:37Z</time>
      </trkpt>
      <trkpt lat="48.67922" lon="-3.50602">
        <ele>51</ele>
        <time>2015-10-26T15:08:41Z</time>
      </trkpt>
      <trkpt lat="48.67942" lon="-3.50589">
        <ele>51</ele>
        <time>2015-10-26T15:08:44Z</time>
      </trkpt>
      <trkpt lat="48.67955" lon="-3.5058">
        <ele>52</ele>
        <time>2015-10-26T15:08:46Z</time>
      </trkpt>
      <trkpt lat="48.67968" lon="-3.50571">
        <ele>52</ele>
        <time>2015-10-26T15:08:48Z</time>
      </trkpt>
      <trkpt lat="48.6798" lon="-3.50561">
        <ele>52</ele>
        <time>2015-10-26T15:08:50Z</time>
      </trkpt>
      <trkpt lat="48.67991" lon="-3.50551">
        <ele>52</ele>
        <time>2015-10-26T15:08:52Z</time>
      </trkpt>
      <trkpt lat="48.68008" lon="-3.50535">
        <ele>52</ele>
        <time>2015-10-26T15:08:55Z</time>
      </trkpt>
      <trkpt lat="48.68025" lon="-3.50519">
        <ele>53</ele>
        <time>2015-10-26T15:08:58Z</time>
      </trkpt>
      <trkpt lat="48.68037" lon="-3.50508">
        <ele>53</ele>
        <time>2015-10-26T15:09:00Z</time>
      </trkpt>
      <trkpt lat="48.68049" lon="-3.50497">
        <ele>53</ele>
        <time>2015-10-26T15:09:02Z</time>
      </trkpt>
      <trkpt lat="48.68065" lon="-3.5048">
        <ele>53</ele>
        <time>2015-10-26T15:09:05Z</time>
      </trkpt>
      <trkpt lat="48.68081" lon="-3.50461">
        <ele>53</ele>
        <time>2015-10-26T15:09:08Z</time>
      </trkpt>
      <trkpt lat="48.68096" lon="-3.50442">
        <ele>54</ele>
        <time>2015-10-26T15:09:11Z</time>
      </trkpt>
      <trkpt lat="48.68106" lon="-3.5043">
        <ele>54</ele>
        <time>2015-10-26T15:09:13Z</time>
      </trkpt>
      <trkpt lat="48.68121" lon="-3.50411">
        <ele>54</ele>
        <time>2015-10-26T15:09:16Z</time>
      </trkpt>
      <trkpt lat="48.68136" lon="-3.50391">
        <ele>54</ele>
        <time>2015-10-26T15:09:19Z</time>
      </trkpt>
      <trkpt lat="48.68152" lon="-3.50372">
        <ele>54</ele>
        <time>2015-10-26T15:09:22Z</time>
      </trkpt>
      <trkpt lat="48.68169" lon="-3.50354">
        <ele>54</ele>
        <time>2015-10-26T15:09:25Z</time>
      </trkpt>
      <trkpt lat="48.68186" lon="-3.50339">
        <ele>54</ele>
        <time>2015-10-26T15:09:28Z</time>
      </trkpt>
      <trkpt lat="48.68209" lon="-3.5032">
        <ele>54</ele>
        <time>2015-10-26T15:09:32Z</time>
      </trkpt>
      <trkpt lat="48.68227" lon="-3.50307">
        <ele>54</ele>
        <time>2015-10-26T15:09:35Z</time>
      </trkpt>
      <trkpt lat="48.68244" lon="-3.50294">
        <ele>53</ele>
        <time>2015-10-26T15:09:38Z</time>
      </trkpt>
      <trkpt lat="48.68276" lon="-3.5026">
        <ele>53</ele>
        <time>2015-10-26T15:09:44Z</time>
      </trkpt>
      <trkpt lat="48.68292" lon="-3.50243">
        <ele>52</ele>
        <time>2015-10-26T15:09:47Z</time>
      </trkpt>
      <trkpt lat="48.6831" lon="-3.50228">
        <ele>52</ele>
        <time>2015-10-26T15:09:50Z</time>
      </trkpt>
      <trkpt lat="48.6833" lon="-3.50219">
        <ele>52</ele>
        <time>2015-10-26T15:09:53Z</time>
      </trkpt>
      <trkpt lat="48.68356" lon="-3.5021">
        <ele>52</ele>
        <time>2015-10-26T15:09:57Z</time>
      </trkpt>
      <trkpt lat="48.68374" lon="-3.50204">
        <ele>52</ele>
        <time>2015-10-26T15:10:00Z</time>
      </trkpt>
      <trkpt lat="48.68392" lon="-3.50199">
        <ele>51</ele>
        <time>2015-10-26T15:10:03Z</time>
      </trkpt>
      <trkpt lat="48.68409" lon="-3.50195">
        <ele>51</ele>
        <time>2015-10-26T15:10:06Z</time>
      </trkpt>
      <trkpt lat="48.68426" lon="-3.50191">
        <ele>51</ele>
        <time>2015-10-26T15:10:09Z</time>
      </trkpt>
      <trkpt lat="48.68444" lon="-3.50186">
        <ele>51</ele>
        <time>2015-10-26T15:10:12Z</time>
      </trkpt>
      <trkpt lat="48.68461" lon="-3.5018">
        <ele>50</ele>
        <time>2015-10-26T15:10:15Z</time>
      </trkpt>
      <trkpt lat="48.68478" lon="-3.50173">
        <ele>50</ele>
        <time>2015-10-26T15:10:18Z</time>
      </trkpt>
      <trkpt lat="48.68495" lon="-3.50166">
        <ele>50</ele>
        <time>2015-10-26T15:10:21Z</time>
      </trkpt>
      <trkpt lat="48.68512" lon="-3.50159">
        <ele>49</ele>
        <time>2015-10-26T15:10:24Z</time>
      </trkpt>
      <trkpt lat="48.68528" lon="-3.50152">
        <ele>49</ele>
        <time>2015-10-26T15:10:27Z</time>
      </trkpt>
      <trkpt lat="48.68544" lon="-3.50145">
        <ele>49</ele>
        <time>2015-10-26T15:10:30Z</time>
      </trkpt>
      <trkpt lat="48.6856" lon="-3.50137">
        <ele>49</ele>
        <time>2015-10-26T15:10:33Z</time>
      </trkpt>
      <trkpt lat="48.68576" lon="-3.50129">
        <ele>48</ele>
        <time>2015-10-26T15:10:36Z</time>
      </trkpt>
      <trkpt lat="48.68591" lon="-3.50121">
        <ele>48</ele>
        <time>2015-10-26T15:10:39Z</time>
      </trkpt>
      <trkpt lat="48.68606" lon="-3.50113">
        <ele>48</ele>
        <time>2015-10-26T15:10:42Z</time>
      </trkpt>
      <trkpt lat="48.68626" lon="-3.50102">
        <ele>48</ele>
        <time>2015-10-26T15:10:46Z</time>
      </trkpt>
      <trkpt lat="48.68641" lon="-3.50094">
        <ele>48</ele>
        <time>2015-10-26T15:10:49Z</time>
      </trkpt>
      <trkpt lat="48.68658" lon="-3.50087">
        <ele>48</ele>
        <time>2015-10-26T15:10:52Z</time>
      </trkpt>
      <trkpt lat="48.68674" lon="-3.5008">
        <ele>48</ele>
        <time>2015-10-26T15:10:55Z</time>
      </trkpt>
      <trkpt lat="48.68685" lon="-3.50074">
        <ele>48</ele>
        <time>2015-10-26T15:10:57Z</time>
      </trkpt>
      <trkpt lat="48.68696" lon="-3.50069">
        <ele>48</ele>
        <time>2015-10-26T15:10:59Z</time>
      </trkpt>
      <trkpt lat="48.68712" lon="-3.5006">
        <ele>49</ele>
        <time>2015-10-26T15:11:02Z</time>
      </trkpt>
      <trkpt lat="48.68722" lon="-3.50054">
        <ele>49</ele>
        <time>2015-10-26T15:11:04Z</time>
      </trkpt>
      <trkpt lat="48.68732" lon="-3.50049">
        <ele>49</ele>
        <time>2015-10-26T15:11:06Z</time>
      </trkpt>
      <trkpt lat="48.68746" lon="-3.5004">
        <ele>50</ele>
        <time>2015-10-26T15:11:09Z</time>
      </trkpt>
      <trkpt lat="48.68761" lon="-3.50032">
        <ele>50</ele>
        <time>2015-10-26T15:11:12Z</time>
      </trkpt>
      <trkpt lat="48.68782" lon="-3.50019">
        <ele>50</ele>
        <time>2015-10-26T15:11:16Z</time>
      </trkpt>
      <trkpt lat="48.68797" lon="-3.5001">
        <ele>50</ele>
        <time>2015-10-26T15:11:19Z</time>
      </trkpt>
      <trkpt lat="48.68813" lon="-3.50001">
        <ele>50</ele>
        <time>2015-10-26T15:11:22Z</time>
      </trkpt>
      <trkpt lat="48.68839" lon="-3.49985">
        <ele>49</ele>
        <time>2015-10-26T15:11:27Z</time>
      </trkpt>
      <trkpt lat="48.68856" lon="-3.49974">
        <ele>49</ele>
        <time>2015-10-26T15:11:30Z</time>
      </trkpt>
      <trkpt lat="48.68873" lon="-3.49964">
        <ele>49</ele>
        <time>2015-10-26T15:11:33Z</time>
      </trkpt>
      <trkpt lat="48.6891" lon="-3.49948">
        <ele>49</ele>
        <time>2015-10-26T15:11:39Z</time>
      </trkpt>
      <trkpt lat="48.68929" lon="-3.49939">
        <ele>49</ele>
        <time>2015-10-26T15:11:42Z</time>
      </trkpt>
      <trkpt lat="48.68949" lon="-3.49933">
        <ele>49</ele>
        <time>2015-10-26T15:11:45Z</time>
      </trkpt>
      <trkpt lat="48.68977" lon="-3.49924">
        <ele>49</ele>
        <time>2015-10-26T15:11:49Z</time>
      </trkpt>
      <trkpt lat="48.68997" lon="-3.4992">
        <ele>49</ele>
        <time>2015-10-26T15:11:52Z</time>
      </trkpt>
      <trkpt lat="48.69018" lon="-3.49915">
        <ele>49</ele>
        <time>2015-10-26T15:11:55Z</time>
      </trkpt>
      <trkpt lat="48.69039" lon="-3.49909">
        <ele>49</ele>
        <time>2015-10-26T15:11:58Z</time>
      </trkpt>
      <trkpt lat="48.6906" lon="-3.49902">
        <ele>49</ele>
        <time>2015-10-26T15:12:01Z</time>
      </trkpt>
      <trkpt lat="48.69088" lon="-3.49893">
        <ele>49</ele>
        <time>2015-10-26T15:12:05Z</time>
      </trkpt>
      <trkpt lat="48.69118" lon="-3.49884">
        <ele>50</ele>
        <time>2015-10-26T15:12:09Z</time>
      </trkpt>
      <trkpt lat="48.69224" lon="-3.49861">
        <ele>50</ele>
        <time>2015-10-26T15:12:23Z</time>
      </trkpt>
      <trkpt lat="48.69246" lon="-3.49859">
        <ele>49</ele>
        <time>2015-10-26T15:12:26Z</time>
      </trkpt>
      <trkpt lat="48.69269" lon="-3.49858">
        <ele>49</ele>
        <time>2015-10-26T15:12:29Z</time>
      </trkpt>
      <trkpt lat="48.69291" lon="-3.49856">
        <ele>48</ele>
        <time>2015-10-26T15:12:32Z</time>
      </trkpt>
      <trkpt lat="48.69312" lon="-3.49854">
        <ele>48</ele>
        <time>2015-10-26T15:12:35Z</time>
      </trkpt>
      <trkpt lat="48.69347" lon="-3.49849">
        <ele>48</ele>
        <time>2015-10-26T15:12:40Z</time>
      </trkpt>
      <trkpt lat="48.69368" lon="-3.49847">
        <ele>47</ele>
        <time>2015-10-26T15:12:43Z</time>
      </trkpt>
      <trkpt lat="48.69384" lon="-3.49846">
        <ele>46</ele>
        <time>2015-10-26T15:12:45Z</time>
      </trkpt>
      <trkpt lat="48.69399" lon="-3.49846">
        <ele>46</ele>
        <time>2015-10-26T15:12:47Z</time>
      </trkpt>
      <trkpt lat="48.69415" lon="-3.49846">
        <ele>46</ele>
        <time>2015-10-26T15:12:49Z</time>
      </trkpt>
      <trkpt lat="48.69431" lon="-3.49846">
        <ele>45</ele>
        <time>2015-10-26T15:12:51Z</time>
      </trkpt>
      <trkpt lat="48.69447" lon="-3.49847">
        <ele>44</ele>
        <time>2015-10-26T15:12:53Z</time>
      </trkpt>
      <trkpt lat="48.69463" lon="-3.49847">
        <ele>44</ele>
        <time>2015-10-26T15:12:55Z</time>
      </trkpt>
      <trkpt lat="48.69479" lon="-3.49848">
        <ele>44</ele>
        <time>2015-10-26T15:12:57Z</time>
      </trkpt>
      <trkpt lat="48.69495" lon="-3.49848">
        <ele>44</ele>
        <time>2015-10-26T15:12:59Z</time>
      </trkpt>
      <trkpt lat="48.6951" lon="-3.49847">
        <ele>44</ele>
        <time>2015-10-26T15:13:01Z</time>
      </trkpt>
      <trkpt lat="48.69533" lon="-3.49846">
        <ele>43</ele>
        <time>2015-10-26T15:13:04Z</time>
      </trkpt>
      <trkpt lat="48.69548" lon="-3.49844">
        <ele>43</ele>
        <time>2015-10-26T15:13:06Z</time>
      </trkpt>
      <trkpt lat="48.69562" lon="-3.49841">
        <ele>43</ele>
        <time>2015-10-26T15:13:08Z</time>
      </trkpt>
      <trkpt lat="48.69584" lon="-3.49838">
        <ele>43</ele>
        <time>2015-10-26T15:13:11Z</time>
      </trkpt>
      <trkpt lat="48.69598" lon="-3.49835">
        <ele>43</ele>
        <time>2015-10-26T15:13:13Z</time>
      </trkpt>
      <trkpt lat="48.6962" lon="-3.49831">
        <ele>43</ele>
        <time>2015-10-26T15:13:16Z</time>
      </trkpt>
      <trkpt lat="48.69634" lon="-3.49827">
        <ele>42</ele>
        <time>2015-10-26T15:13:18Z</time>
      </trkpt>
      <trkpt lat="48.69648" lon="-3.49824">
        <ele>42</ele>
        <time>2015-10-26T15:13:20Z</time>
      </trkpt>
      <trkpt lat="48.69669" lon="-3.4982">
        <ele>42</ele>
        <time>2015-10-26T15:13:23Z</time>
      </trkpt>
      <trkpt lat="48.69689" lon="-3.49818">
        <ele>42</ele>
        <time>2015-10-26T15:13:26Z</time>
      </trkpt>
      <trkpt lat="48.69703" lon="-3.49818">
        <ele>42</ele>
        <time>2015-10-26T15:13:28Z</time>
      </trkpt>
      <trkpt lat="48.69717" lon="-3.49818">
        <ele>42</ele>
        <time>2015-10-26T15:13:30Z</time>
      </trkpt>
      <trkpt lat="48.69739" lon="-3.4982">
        <ele>41</ele>
        <time>2015-10-26T15:13:33Z</time>
      </trkpt>
      <trkpt lat="48.6976" lon="-3.49821">
        <ele>41</ele>
        <time>2015-10-26T15:13:36Z</time>
      </trkpt>
      <trkpt lat="48.69774" lon="-3.49823">
        <ele>41</ele>
        <time>2015-10-26T15:13:38Z</time>
      </trkpt>
      <trkpt lat="48.69795" lon="-3.49824">
        <ele>41</ele>
        <time>2015-10-26T15:13:41Z</time>
      </trkpt>
      <trkpt lat="48.69809" lon="-3.49825">
        <ele>41</ele>
        <time>2015-10-26T15:13:43Z</time>
      </trkpt>
      <trkpt lat="48.6983" lon="-3.49828">
        <ele>40</ele>
        <time>2015-10-26T15:13:46Z</time>
      </trkpt>
      <trkpt lat="48.69852" lon="-3.49831">
        <ele>40</ele>
        <time>2015-10-26T15:13:49Z</time>
      </trkpt>
      <trkpt lat="48.69873" lon="-3.49834">
        <ele>40</ele>
        <time>2015-10-26T15:13:52Z</time>
      </trkpt>
      <trkpt lat="48.69888" lon="-3.49837">
        <ele>40</ele>
        <time>2015-10-26T15:13:54Z</time>
      </trkpt>
      <trkpt lat="48.69902" lon="-3.49839">
        <ele>40</ele>
        <time>2015-10-26T15:13:56Z</time>
      </trkpt>
      <trkpt lat="48.69917" lon="-3.49841">
        <ele>40</ele>
        <time>2015-10-26T15:13:58Z</time>
      </trkpt>
      <trkpt lat="48.69932" lon="-3.49843">
        <ele>40</ele>
        <time>2015-10-26T15:14:00Z</time>
      </trkpt>
      <trkpt lat="48.69948" lon="-3.49846">
        <ele>40</ele>
        <time>2015-10-26T15:14:02Z</time>
      </trkpt>
      <trkpt lat="48.6997" lon="-3.49849">
        <ele>40</ele>
        <time>2015-10-26T15:14:05Z</time>
      </trkpt>
      <trkpt lat="48.69991" lon="-3.49853">
        <ele>40</ele>
        <time>2015-10-26T15:14:08Z</time>
      </trkpt>
      <trkpt lat="48.70006" lon="-3.49856">
        <ele>40</ele>
        <time>2015-10-26T15:14:10Z</time>
      </trkpt>
      <trkpt lat="48.70027" lon="-3.4986">
        <ele>40</ele>
        <time>2015-10-26T15:14:13Z</time>
      </trkpt>
      <trkpt lat="48.70041" lon="-3.49862">
        <ele>40</ele>
        <time>2015-10-26T15:14:15Z</time>
      </trkpt>
      <trkpt lat="48.70061" lon="-3.49867">
        <ele>40</ele>
        <time>2015-10-26T15:14:18Z</time>
      </trkpt>
      <trkpt lat="48.70075" lon="-3.49869">
        <ele>40</ele>
        <time>2015-10-26T15:14:20Z</time>
      </trkpt>
      <trkpt lat="48.70095" lon="-3.49873">
        <ele>40</ele>
        <time>2015-10-26T15:14:23Z</time>
      </trkpt>
      <trkpt lat="48.70115" lon="-3.49877">
        <ele>40</ele>
        <time>2015-10-26T15:14:26Z</time>
      </trkpt>
      <trkpt lat="48.70142" lon="-3.49879">
        <ele>40</ele>
        <time>2015-10-26T15:14:30Z</time>
      </trkpt>
      <trkpt lat="48.70163" lon="-3.4988">
        <ele>39</ele>
        <time>2015-10-26T15:14:33Z</time>
      </trkpt>
      <trkpt lat="48.70184" lon="-3.49882">
        <ele>39</ele>
        <time>2015-10-26T15:14:36Z</time>
      </trkpt>
      <trkpt lat="48.70206" lon="-3.49883">
        <ele>39</ele>
        <time>2015-10-26T15:14:39Z</time>
      </trkpt>
      <trkpt lat="48.70319" lon="-3.49903">
        <ele>37</ele>
        <time>2015-10-26T15:14:54Z</time>
      </trkpt>
      <trkpt lat="48.70336" lon="-3.49907">
        <ele>37</ele>
        <time>2015-10-26T15:14:56Z</time>
      </trkpt>
      <trkpt lat="48.7038" lon="-3.49919">
        <ele>37</ele>
        <time>2015-10-26T15:15:01Z</time>
      </trkpt>
      <trkpt lat="48.70397" lon="-3.49924">
        <ele>36</ele>
        <time>2015-10-26T15:15:03Z</time>
      </trkpt>
      <trkpt lat="48.70413" lon="-3.49927">
        <ele>36</ele>
        <time>2015-10-26T15:15:05Z</time>
      </trkpt>
      <trkpt lat="48.70429" lon="-3.49931">
        <ele>36</ele>
        <time>2015-10-26T15:15:07Z</time>
      </trkpt>
      <trkpt lat="48.70446" lon="-3.49933">
        <ele>36</ele>
        <time>2015-10-26T15:15:11Z</time>
      </trkpt>
      <trkpt lat="48.70462" lon="-3.49933">
        <ele>35</ele>
        <time>2015-10-26T15:15:21Z</time>
      </trkpt>
      <trkpt lat="48.70481" lon="-3.49932">
        <ele>33</ele>
        <time>2015-10-26T15:15:31Z</time>
      </trkpt>
      <trkpt lat="48.70502" lon="-3.49934">
        <ele>32</ele>
        <time>2015-10-26T15:15:39Z</time>
      </trkpt>
      <trkpt lat="48.70523" lon="-3.49936">
        <ele>31</ele>
        <time>2015-10-26T15:15:45Z</time>
      </trkpt>
      <trkpt lat="48.70541" lon="-3.49939">
        <ele>30</ele>
        <time>2015-10-26T15:15:50Z</time>
      </trkpt>
      <trkpt lat="48.70561" lon="-3.49941">
        <ele>29</ele>
        <time>2015-10-26T15:15:56Z</time>
      </trkpt>
      <trkpt lat="48.70581" lon="-3.49943">
        <ele>29</ele>
        <time>2015-10-26T15:16:02Z</time>
      </trkpt>
      <trkpt lat="48.70599" lon="-3.49945">
        <ele>29</ele>
        <time>2015-10-26T15:16:07Z</time>
      </trkpt>
      <trkpt lat="48.70619" lon="-3.49948">
        <ele>29</ele>
        <time>2015-10-26T15:16:12Z</time>
      </trkpt>
      <trkpt lat="48.70637" lon="-3.49949">
        <ele>30</ele>
        <time>2015-10-26T15:16:17Z</time>
      </trkpt>
      <trkpt lat="48.70653" lon="-3.49951">
        <ele>30</ele>
        <time>2015-10-26T15:16:21Z</time>
      </trkpt>
      <trkpt lat="48.70662" lon="-3.49953">
        <ele>30</ele>
        <time>2015-10-26T15:16:23Z</time>
      </trkpt>
      <trkpt lat="48.70679" lon="-3.49955">
        <ele>30</ele>
        <time>2015-10-26T15:16:27Z</time>
      </trkpt>
      <trkpt lat="48.70688" lon="-3.49956">
        <ele>30</ele>
        <time>2015-10-26T15:16:29Z</time>
      </trkpt>
      <trkpt lat="48.70696" lon="-3.49958">
        <ele>30</ele>
        <time>2015-10-26T15:16:31Z</time>
      </trkpt>
      <trkpt lat="48.70713" lon="-3.4996">
        <ele>30</ele>
        <time>2015-10-26T15:16:35Z</time>
      </trkpt>
      <trkpt lat="48.7073" lon="-3.49961">
        <ele>31</ele>
        <time>2015-10-26T15:16:39Z</time>
      </trkpt>
      <trkpt lat="48.70751" lon="-3.49922">
        <ele>31</ele>
        <time>2015-10-26T15:16:50Z</time>
      </trkpt>
      <trkpt lat="48.70794" lon="-3.49807">
        <ele>88.6</ele>
        <time>2015-10-26T15:17:10Z</time>
      </trkpt>
      <trkpt lat="48.70842" lon="-3.49508">
        <ele>28</ele>
        <time>2015-10-26T15:17:41Z</time>
      </trkpt>
      <trkpt lat="48.70839" lon="-3.49485">
        <ele>27</ele>
        <time>2015-10-26T15:17:44Z</time>
      </trkpt>
      <trkpt lat="48.70829" lon="-3.49463">
        <ele>27</ele>
        <time>2015-10-26T15:17:47Z</time>
      </trkpt>
      <trkpt lat="48.70814" lon="-3.49443">
        <ele>26</ele>
        <time>2015-10-26T15:17:50Z</time>
      </trkpt>
      <trkpt lat="48.70798" lon="-3.49425">
        <ele>25</ele>
        <time>2015-10-26T15:17:53Z</time>
      </trkpt>
      <trkpt lat="48.70781" lon="-3.49405">
        <ele>24</ele>
        <time>2015-10-26T15:17:56Z</time>
      </trkpt>
      <trkpt lat="48.70771" lon="-3.49388">
        <ele>24</ele>
        <time>2015-10-26T15:17:58Z</time>
      </trkpt>
      <trkpt lat="48.70766" lon="-3.49355">
        <ele>23</ele>
        <time>2015-10-26T15:18:01Z</time>
      </trkpt>
      <trkpt lat="48.70766" lon="-3.49322">
        <ele>22</ele>
        <time>2015-10-26T15:18:04Z</time>
      </trkpt>
      <trkpt lat="48.70771" lon="-3.49289">
        <ele>22</ele>
        <time>2015-10-26T15:18:07Z</time>
      </trkpt>
      <trkpt lat="48.70786" lon="-3.49263">
        <ele>21</ele>
        <time>2015-10-26T15:18:11Z</time>
      </trkpt>
      <trkpt lat="48.70804" lon="-3.49262">
        <ele>21</ele>
        <time>2015-10-26T15:18:14Z</time>
      </trkpt>
      <trkpt lat="48.70825" lon="-3.49262">
        <ele>21</ele>
        <time>2015-10-26T15:18:17Z</time>
      </trkpt>
      <trkpt lat="48.7085" lon="-3.49256">
        <ele>20</ele>
        <time>2015-10-26T15:18:21Z</time>
      </trkpt>
      <trkpt lat="48.70876" lon="-3.49249">
        <ele>20</ele>
        <time>2015-10-26T15:18:25Z</time>
      </trkpt>
      <trkpt lat="48.70894" lon="-3.49242">
        <ele>20</ele>
        <time>2015-10-26T15:18:28Z</time>
      </trkpt>
      <trkpt lat="48.7091" lon="-3.49237">
        <ele>19</ele>
        <time>2015-10-26T15:18:31Z</time>
      </trkpt>
      <trkpt lat="48.70928" lon="-3.49232">
        <ele>19</ele>
        <time>2015-10-26T15:18:34Z</time>
      </trkpt>
      <trkpt lat="48.70942" lon="-3.49226">
        <ele>19</ele>
        <time>2015-10-26T15:18:36Z</time>
      </trkpt>
      <trkpt lat="48.70957" lon="-3.49219">
        <ele>18</ele>
        <time>2015-10-26T15:18:38Z</time>
      </trkpt>
      <trkpt lat="48.70977" lon="-3.49206">
        <ele>18</ele>
        <time>2015-10-26T15:18:41Z</time>
      </trkpt>
      <trkpt lat="48.70996" lon="-3.49194">
        <ele>18</ele>
        <time>2015-10-26T15:18:44Z</time>
      </trkpt>
      <trkpt lat="48.71013" lon="-3.49183">
        <ele>18</ele>
        <time>2015-10-26T15:18:48Z</time>
      </trkpt>
      <trkpt lat="48.71028" lon="-3.4917">
        <ele>18</ele>
        <time>2015-10-26T15:18:52Z</time>
      </trkpt>
      <trkpt lat="48.71042" lon="-3.49158">
        <ele>18</ele>
        <time>2015-10-26T15:18:56Z</time>
      </trkpt>
      <trkpt lat="48.71056" lon="-3.49145">
        <ele>19</ele>
        <time>2015-10-26T15:19:00Z</time>
      </trkpt>
      <trkpt lat="48.71073" lon="-3.4913">
        <ele>19</ele>
        <time>2015-10-26T15:19:04Z</time>
      </trkpt>
      <trkpt lat="48.71086" lon="-3.49117">
        <ele>19</ele>
        <time>2015-10-26T15:19:07Z</time>
      </trkpt>
      <trkpt lat="48.711" lon="-3.49102">
        <ele>19</ele>
        <time>2015-10-26T15:19:10Z</time>
      </trkpt>
      <trkpt lat="48.71113" lon="-3.49087">
        <ele>20</ele>
        <time>2015-10-26T15:19:13Z</time>
      </trkpt>
      <trkpt lat="48.71126" lon="-3.49071">
        <ele>20</ele>
        <time>2015-10-26T15:19:16Z</time>
      </trkpt>
      <trkpt lat="48.71139" lon="-3.49056">
        <ele>21</ele>
        <time>2015-10-26T15:19:19Z</time>
      </trkpt>
      <trkpt lat="48.71153" lon="-3.49036">
        <ele>21</ele>
        <time>2015-10-26T15:19:23Z</time>
      </trkpt>
      <trkpt lat="48.71167" lon="-3.49015">
        <ele>21</ele>
        <time>2015-10-26T15:19:27Z</time>
      </trkpt>
      <trkpt lat="48.7118" lon="-3.48992">
        <ele>21</ele>
        <time>2015-10-26T15:19:31Z</time>
      </trkpt>
      <trkpt lat="48.71192" lon="-3.4897">
        <ele>21</ele>
        <time>2015-10-26T15:19:35Z</time>
      </trkpt>
      <trkpt lat="48.71211" lon="-3.48936">
        <ele>21</ele>
        <time>2015-10-26T15:19:41Z</time>
      </trkpt>
      <trkpt lat="48.71223" lon="-3.48918">
        <ele>21</ele>
        <time>2015-10-26T15:19:44Z</time>
      </trkpt>
      <trkpt lat="48.71237" lon="-3.48897">
        <ele>21</ele>
        <time>2015-10-26T15:19:47Z</time>
      </trkpt>
      <trkpt lat="48.71253" lon="-3.48876">
        <ele>22</ele>
        <time>2015-10-26T15:19:50Z</time>
      </trkpt>
      <trkpt lat="48.71269" lon="-3.48857">
        <ele>22</ele>
        <time>2015-10-26T15:19:53Z</time>
      </trkpt>
      <trkpt lat="48.71286" lon="-3.48841">
        <ele>22</ele>
        <time>2015-10-26T15:19:56Z</time>
      </trkpt>
      <trkpt lat="48.71303" lon="-3.48827">
        <ele>23</ele>
        <time>2015-10-26T15:19:59Z</time>
      </trkpt>
      <trkpt lat="48.71319" lon="-3.48813">
        <ele>23</ele>
        <time>2015-10-26T15:20:03Z</time>
      </trkpt>
      <trkpt lat="48.71332" lon="-3.48795">
        <ele>23</ele>
        <time>2015-10-26T15:20:08Z</time>
      </trkpt>
      <trkpt lat="48.71344" lon="-3.48773">
        <ele>23</ele>
        <time>2015-10-26T15:20:14Z</time>
      </trkpt>
      <trkpt lat="48.71351" lon="-3.4876">
        <ele>23</ele>
        <time>2015-10-26T15:20:18Z</time>
      </trkpt>
      <trkpt lat="48.71356" lon="-3.48751">
        <ele>23</ele>
        <time>2015-10-26T15:20:21Z</time>
      </trkpt>
      <trkpt lat="48.71368" lon="-3.48734">
        <ele>24</ele>
        <time>2015-10-26T15:20:27Z</time>
      </trkpt>
      <trkpt lat="48.71374" lon="-3.48724">
        <ele>24</ele>
        <time>2015-10-26T15:20:30Z</time>
      </trkpt>
      <trkpt lat="48.71383" lon="-3.48712">
        <ele>24</ele>
        <time>2015-10-26T15:20:34Z</time>
      </trkpt>
      <trkpt lat="48.71389" lon="-3.48703">
        <ele>25</ele>
        <time>2015-10-26T15:20:37Z</time>
      </trkpt>
      <trkpt lat="48.714" lon="-3.48685">
        <ele>26</ele>
        <time>2015-10-26T15:20:43Z</time>
      </trkpt>
      <trkpt lat="48.71407" lon="-3.48673">
        <ele>27</ele>
        <time>2015-10-26T15:20:47Z</time>
      </trkpt>
      <trkpt lat="48.71415" lon="-3.48661">
        <ele>27</ele>
        <time>2015-10-26T15:20:51Z</time>
      </trkpt>
      <trkpt lat="48.7142" lon="-3.48652">
        <ele>28</ele>
        <time>2015-10-26T15:20:54Z</time>
      </trkpt>
      <trkpt lat="48.71435" lon="-3.4863">
        <ele>28</ele>
        <time>2015-10-26T15:21:01Z</time>
      </trkpt>
      <trkpt lat="48.71456" lon="-3.48601">
        <ele>29</ele>
        <time>2015-10-26T15:21:19Z</time>
      </trkpt>
      <trkpt lat="48.71471" lon="-3.48589">
        <ele>29</ele>
        <time>2015-10-26T15:21:21Z</time>
      </trkpt>
      <trkpt lat="48.71487" lon="-3.48579">
        <ele>29</ele>
        <time>2015-10-26T15:21:25Z</time>
      </trkpt>
      <trkpt lat="48.71503" lon="-3.48569">
        <ele>29</ele>
        <time>2015-10-26T15:21:29Z</time>
      </trkpt>
      <trkpt lat="48.71519" lon="-3.4856">
        <ele>30</ele>
        <time>2015-10-26T15:21:33Z</time>
      </trkpt>
      <trkpt lat="48.7154" lon="-3.48546">
        <ele>31</ele>
        <time>2015-10-26T15:21:38Z</time>
      </trkpt>
      <trkpt lat="48.71556" lon="-3.48534">
        <ele>32</ele>
        <time>2015-10-26T15:21:42Z</time>
      </trkpt>
      <trkpt lat="48.71572" lon="-3.48524">
        <ele>33</ele>
        <time>2015-10-26T15:21:46Z</time>
      </trkpt>
      <trkpt lat="48.71588" lon="-3.48513">
        <ele>34</ele>
        <time>2015-10-26T15:21:50Z</time>
      </trkpt>
      <trkpt lat="48.71605" lon="-3.48498">
        <ele>35</ele>
        <time>2015-10-26T15:21:54Z</time>
      </trkpt>
      <trkpt lat="48.7162" lon="-3.48485">
        <ele>36</ele>
        <time>2015-10-26T15:21:57Z</time>
      </trkpt>
      <trkpt lat="48.71629" lon="-3.48478">
        <ele>37</ele>
        <time>2015-10-26T15:21:59Z</time>
      </trkpt>
      <trkpt lat="48.71639" lon="-3.4847">
        <ele>38</ele>
        <time>2015-10-26T15:22:01Z</time>
      </trkpt>
      <trkpt lat="48.71652" lon="-3.48458">
        <ele>38</ele>
        <time>2015-10-26T15:22:04Z</time>
      </trkpt>
      <trkpt lat="48.7166" lon="-3.48448">
        <ele>38</ele>
        <time>2015-10-26T15:22:06Z</time>
      </trkpt>
      <trkpt lat="48.71668" lon="-3.48439">
        <ele>39</ele>
        <time>2015-10-26T15:22:08Z</time>
      </trkpt>
      <trkpt lat="48.71676" lon="-3.48429">
        <ele>39</ele>
        <time>2015-10-26T15:22:10Z</time>
      </trkpt>
      <trkpt lat="48.71689" lon="-3.48408">
        <ele>40</ele>
        <time>2015-10-26T15:22:14Z</time>
      </trkpt>
      <trkpt lat="48.71695" lon="-3.48396">
        <ele>40</ele>
        <time>2015-10-26T15:22:16Z</time>
      </trkpt>
      <trkpt lat="48.71701" lon="-3.48384">
        <ele>40</ele>
        <time>2015-10-26T15:22:18Z</time>
      </trkpt>
      <trkpt lat="48.71707" lon="-3.48372">
        <ele>40</ele>
        <time>2015-10-26T15:22:20Z</time>
      </trkpt>
      <trkpt lat="48.71716" lon="-3.48352">
        <ele>40</ele>
        <time>2015-10-26T15:22:23Z</time>
      </trkpt>
      <trkpt lat="48.71725" lon="-3.48332">
        <ele>40</ele>
        <time>2015-10-26T15:22:26Z</time>
      </trkpt>
      <trkpt lat="48.71734" lon="-3.48312">
        <ele>40</ele>
        <time>2015-10-26T15:22:29Z</time>
      </trkpt>
      <trkpt lat="48.71743" lon="-3.48292">
        <ele>40</ele>
        <time>2015-10-26T15:22:32Z</time>
      </trkpt>
      <trkpt lat="48.71748" lon="-3.48279">
        <ele>40</ele>
        <time>2015-10-26T15:22:34Z</time>
      </trkpt>
      <trkpt lat="48.71761" lon="-3.48255">
        <ele>40</ele>
        <time>2015-10-26T15:22:38Z</time>
      </trkpt>
      <trkpt lat="48.71778" lon="-3.48239">
        <ele>40</ele>
        <time>2015-10-26T15:22:42Z</time>
      </trkpt>
      <trkpt lat="48.71794" lon="-3.48227">
        <ele>40</ele>
        <time>2015-10-26T15:22:46Z</time>
      </trkpt>
      <trkpt lat="48.71812" lon="-3.48224">
        <ele>40</ele>
        <time>2015-10-26T15:22:50Z</time>
      </trkpt>
      <trkpt lat="48.71828" lon="-3.48219">
        <ele>40</ele>
        <time>2015-10-26T15:22:54Z</time>
      </trkpt>
      <trkpt lat="48.71844" lon="-3.48212">
        <ele>40</ele>
        <time>2015-10-26T15:22:58Z</time>
      </trkpt>
      <trkpt lat="48.7186" lon="-3.48207">
        <ele>40</ele>
        <time>2015-10-26T15:23:02Z</time>
      </trkpt>
      <trkpt lat="48.71878" lon="-3.48204">
        <ele>39</ele>
        <time>2015-10-26T15:23:06Z</time>
      </trkpt>
      <trkpt lat="48.71906" lon="-3.48198">
        <ele>39</ele>
        <time>2015-10-26T15:23:13Z</time>
      </trkpt>
      <trkpt lat="48.71922" lon="-3.48198">
        <ele>39</ele>
        <time>2015-10-26T15:23:17Z</time>
      </trkpt>
      <trkpt lat="48.71939" lon="-3.48198">
        <ele>39</ele>
        <time>2015-10-26T15:23:21Z</time>
      </trkpt>
      <trkpt lat="48.71962" lon="-3.48197">
        <ele>40</ele>
        <time>2015-10-26T15:23:26Z</time>
      </trkpt>
      <trkpt lat="48.71981" lon="-3.48196">
        <ele>40</ele>
        <time>2015-10-26T15:23:30Z</time>
      </trkpt>
      <trkpt lat="48.72006" lon="-3.48194">
        <ele>40</ele>
        <time>2015-10-26T15:23:35Z</time>
      </trkpt>
      <trkpt lat="48.72022" lon="-3.48195">
        <ele>41</ele>
        <time>2015-10-26T15:23:38Z</time>
      </trkpt>
      <trkpt lat="48.72038" lon="-3.48196">
        <ele>42</ele>
        <time>2015-10-26T15:23:41Z</time>
      </trkpt>
      <trkpt lat="48.72054" lon="-3.48199">
        <ele>42</ele>
        <time>2015-10-26T15:23:44Z</time>
      </trkpt>
      <trkpt lat="48.72077" lon="-3.48202">
        <ele>43</ele>
        <time>2015-10-26T15:23:48Z</time>
      </trkpt>
      <trkpt lat="48.721" lon="-3.48191">
        <ele>44</ele>
        <time>2015-10-26T15:23:52Z</time>
      </trkpt>
      <trkpt lat="48.72116" lon="-3.48177">
        <ele>44</ele>
        <time>2015-10-26T15:23:55Z</time>
      </trkpt>
      <trkpt lat="48.7213" lon="-3.48159">
        <ele>45</ele>
        <time>2015-10-26T15:23:58Z</time>
      </trkpt>
      <trkpt lat="48.72144" lon="-3.48142">
        <ele>45</ele>
        <time>2015-10-26T15:24:01Z</time>
      </trkpt>
      <trkpt lat="48.72164" lon="-3.48107">
        <ele>46</ele>
        <time>2015-10-26T15:24:06Z</time>
      </trkpt>
      <trkpt lat="48.72175" lon="-3.48083">
        <ele>46</ele>
        <time>2015-10-26T15:24:09Z</time>
      </trkpt>
      <trkpt lat="48.72193" lon="-3.48067">
        <ele>46</ele>
        <time>2015-10-26T15:24:12Z</time>
      </trkpt>
      <trkpt lat="48.72214" lon="-3.48065">
        <ele>46</ele>
        <time>2015-10-26T15:24:15Z</time>
      </trkpt>
      <trkpt lat="48.72235" lon="-3.48062">
        <ele>46</ele>
        <time>2015-10-26T15:24:18Z</time>
      </trkpt>
      <trkpt lat="48.72254" lon="-3.4805">
        <ele>47</ele>
        <time>2015-10-26T15:24:21Z</time>
      </trkpt>
      <trkpt lat="48.72272" lon="-3.48034">
        <ele>47</ele>
        <time>2015-10-26T15:24:24Z</time>
      </trkpt>
      <trkpt lat="48.72295" lon="-3.48011">
        <ele>48</ele>
        <time>2015-10-26T15:24:28Z</time>
      </trkpt>
      <trkpt lat="48.72311" lon="-3.47994">
        <ele>48</ele>
        <time>2015-10-26T15:24:31Z</time>
      </trkpt>
      <trkpt lat="48.72349" lon="-3.47951">
        <ele>48</ele>
        <time>2015-10-26T15:24:39Z</time>
      </trkpt>
      <trkpt lat="48.72365" lon="-3.47932">
        <ele>47</ele>
        <time>2015-10-26T15:24:42Z</time>
      </trkpt>
      <trkpt lat="48.72382" lon="-3.47913">
        <ele>47</ele>
        <time>2015-10-26T15:24:45Z</time>
      </trkpt>
      <trkpt lat="48.72399" lon="-3.47894">
        <ele>47</ele>
        <time>2015-10-26T15:24:48Z</time>
      </trkpt>
      <trkpt lat="48.72416" lon="-3.47876">
        <ele>46</ele>
        <time>2015-10-26T15:24:51Z</time>
      </trkpt>
      <trkpt lat="48.72433" lon="-3.47856">
        <ele>46</ele>
        <time>2015-10-26T15:24:54Z</time>
      </trkpt>
      <trkpt lat="48.7245" lon="-3.47837">
        <ele>46</ele>
        <time>2015-10-26T15:24:57Z</time>
      </trkpt>
      <trkpt lat="48.72462" lon="-3.47824">
        <ele>46</ele>
        <time>2015-10-26T15:24:59Z</time>
      </trkpt>
      <trkpt lat="48.72473" lon="-3.47812">
        <ele>46</ele>
        <time>2015-10-26T15:25:01Z</time>
      </trkpt>
      <trkpt lat="48.72491" lon="-3.47794">
        <ele>46</ele>
        <time>2015-10-26T15:25:04Z</time>
      </trkpt>
      <trkpt lat="48.72508" lon="-3.47775">
        <ele>46</ele>
        <time>2015-10-26T15:25:07Z</time>
      </trkpt>
      <trkpt lat="48.72528" lon="-3.47756">
        <ele>46</ele>
        <time>2015-10-26T15:25:10Z</time>
      </trkpt>
      <trkpt lat="48.72542" lon="-3.47743">
        <ele>46</ele>
        <time>2015-10-26T15:25:12Z</time>
      </trkpt>
      <trkpt lat="48.72559" lon="-3.47731">
        <ele>46</ele>
        <time>2015-10-26T15:25:14Z</time>
      </trkpt>
      <trkpt lat="48.72577" lon="-3.47721">
        <ele>46</ele>
        <time>2015-10-26T15:25:16Z</time>
      </trkpt>
      <trkpt lat="48.72587" lon="-3.47717">
        <ele>45</ele>
        <time>2015-10-26T15:25:17Z</time>
      </trkpt>
      <trkpt lat="48.72597" lon="-3.47714">
        <ele>45</ele>
        <time>2015-10-26T15:25:18Z</time>
      </trkpt>
      <trkpt lat="48.72608" lon="-3.47713">
        <ele>45</ele>
        <time>2015-10-26T15:25:19Z</time>
      </trkpt>
      <trkpt lat="48.72619" lon="-3.47711">
        <ele>45</ele>
        <time>2015-10-26T15:25:20Z</time>
      </trkpt>
      <trkpt lat="48.7263" lon="-3.47711">
        <ele>45</ele>
        <time>2015-10-26T15:25:21Z</time>
      </trkpt>
      <trkpt lat="48.72679" lon="-3.47713">
        <ele>45</ele>
        <time>2015-10-26T15:25:25Z</time>
      </trkpt>
      <trkpt lat="48.72693" lon="-3.47714">
        <ele>45</ele>
        <time>2015-10-26T15:25:26Z</time>
      </trkpt>
      <trkpt lat="48.72706" lon="-3.47714">
        <ele>45</ele>
        <time>2015-10-26T15:25:27Z</time>
      </trkpt>
      <trkpt lat="48.7272" lon="-3.47714">
        <ele>44</ele>
        <time>2015-10-26T15:25:28Z</time>
      </trkpt>
      <trkpt lat="48.72735" lon="-3.47712">
        <ele>44</ele>
        <time>2015-10-26T15:25:29Z</time>
      </trkpt>
      <trkpt lat="48.7275" lon="-3.47709">
        <ele>44</ele>
        <time>2015-10-26T15:25:30Z</time>
      </trkpt>
      <trkpt lat="48.72908" lon="-3.47627">
        <ele>65.9</ele>
        <time>2015-10-26T15:25:40Z</time>
      </trkpt>
      <trkpt lat="48.72931" lon="-3.47582">
        <ele>42</ele>
        <time>2015-10-26T15:25:42Z</time>
      </trkpt>
      <trkpt lat="48.72975" lon="-3.47502">
        <ele>56.4</ele>
        <time>2015-10-26T15:25:46Z</time>
      </trkpt>
      <trkpt lat="48.73021" lon="-3.47314">
        <ele>40.9</ele>
        <time>2015-10-26T15:25:54Z</time>
      </trkpt>
      <trkpt lat="48.7306" lon="-3.4702">
        <ele>20.5</ele>
        <time>2015-10-26T15:26:06Z</time>
      </trkpt>
      <trkpt lat="48.73039" lon="-3.46607">
        <ele>29</ele>
        <time>2015-10-26T15:26:26Z</time>
      </trkpt>
      <trkpt lat="48.73053" lon="-3.46567">
        <ele>3.3</ele>
        <time>2015-10-26T15:26:29Z</time>
      </trkpt>
      <trkpt lat="48.73092" lon="-3.46526">
        <ele>23</ele>
        <time>2015-10-26T15:26:35Z</time>
      </trkpt>
      <trkpt lat="48.73128" lon="-3.46498">
        <ele>20</ele>
        <time>2015-10-26T15:26:42Z</time>
      </trkpt>
      <trkpt lat="48.73179" lon="-3.46476">
        <ele>-3</ele>
        <time>2015-10-26T15:26:59Z</time>
      </trkpt>
      <trkpt lat="48.73195" lon="-3.4646">
        <ele>-5</ele>
        <time>2015-10-26T15:27:03Z</time>
      </trkpt>
      <trkpt lat="48.732" lon="-3.46448">
        <ele>-8</ele>
        <time>2015-10-26T15:27:05Z</time>
      </trkpt>
      <trkpt lat="48.73207" lon="-3.46419">
        <ele>-12</ele>
        <time>2015-10-26T15:27:09Z</time>
      </trkpt>
      <trkpt lat="48.73217" lon="-3.46391">
        <ele>-15</ele>
        <time>2015-10-26T15:27:13Z</time>
      </trkpt>
      <trkpt lat="48.73245" lon="-3.46355">
        <ele>-20</ele>
        <time>2015-10-26T15:27:21Z</time>
      </trkpt>
      <trkpt lat="48.7325" lon="-3.46341">
        <ele>-22</ele>
        <time>2015-10-26T15:27:23Z</time>
      </trkpt>
      <trkpt lat="48.73257" lon="-3.46319">
        <ele>-23</ele>
        <time>2015-10-26T15:27:26Z</time>
      </trkpt>
      <trkpt lat="48.73263" lon="-3.46281">
        <ele>-24</ele>
        <time>2015-10-26T15:27:31Z</time>
      </trkpt>
      <trkpt lat="48.73258" lon="-3.46235">
        <ele>-25</ele>
        <time>2015-10-26T15:27:37Z</time>
      </trkpt>
      <trkpt lat="48.73246" lon="-3.46215">
        <ele>-28</ele>
        <time>2015-10-26T15:27:40Z</time>
      </trkpt>
      <trkpt lat="48.73254" lon="-3.46208">
        <ele>-31</ele>
        <time>2015-10-26T15:27:50Z</time>
      </trkpt>
      <trkpt lat="48.73265" lon="-3.46233">
        <ele>-33</ele>
        <time>2015-10-26T15:27:54Z</time>
      </trkpt>
      <trkpt lat="48.73301" lon="-3.46304">
        <ele>10.1</ele>
        <time>2015-10-26T15:28:06Z</time>
      </trkpt>
      <trkpt lat="48.73301" lon="-3.46397">
        <ele>-35</ele>
        <time>2015-10-26T15:28:33Z</time>
      </trkpt>
      <trkpt lat="48.73314" lon="-3.46423">
        <ele>-39</ele>
        <time>2015-10-26T15:28:44Z</time>
      </trkpt>
      <trkpt lat="48.73325" lon="-3.46442">
        <ele>-42</ele>
        <time>2015-10-26T15:29:01Z</time>
      </trkpt>
      <trkpt lat="48.73341" lon="-3.46456">
        <ele>-44</ele>
        <time>2015-10-26T15:29:11Z</time>
      </trkpt>
      <trkpt lat="48.73359" lon="-3.46471">
        <ele>-45</ele>
        <time>2015-10-26T15:29:23Z</time>
      </trkpt>
      <trkpt lat="48.73377" lon="-3.46481">
        <ele>-46</ele>
        <time>2015-10-26T15:29:36Z</time>
      </trkpt>
      <trkpt lat="48.73403" lon="-3.46487">
        <ele>-45</ele>
        <time>2015-10-26T15:29:58Z</time>
      </trkpt>
      <trkpt lat="48.73431" lon="-3.4649">
        <ele>-45</ele>
        <time>2015-10-26T15:30:31Z</time>
      </trkpt>
      <trkpt lat="48.73455" lon="-3.46489">
        <ele>-45</ele>
        <time>2015-10-26T15:30:41Z</time>
      </trkpt>
      <trkpt lat="48.73482" lon="-3.4649">
        <ele>-44</ele>
        <time>2015-10-26T15:30:56Z</time>
      </trkpt>
      <trkpt lat="48.73505" lon="-3.46475">
        <ele>-42</ele>
        <time>2015-10-26T15:31:17Z</time>
      </trkpt>
      <trkpt lat="48.73525" lon="-3.46474">
        <ele>-41</ele>
        <time>2015-10-26T15:31:33Z</time>
      </trkpt>
      <trkpt lat="48.73541" lon="-3.46471">
        <ele>-40</ele>
        <time>2015-10-26T15:31:39Z</time>
      </trkpt>
      <trkpt lat="48.73557" lon="-3.46465">
        <ele>-39</ele>
        <time>2015-10-26T15:31:45Z</time>
      </trkpt>
      <trkpt lat="48.73577" lon="-3.46456">
        <ele>-37</ele>
        <time>2015-10-26T15:31:54Z</time>
      </trkpt>
      <trkpt lat="48.73601" lon="-3.46449">
        <ele>-37</ele>
        <time>2015-10-26T15:32:09Z</time>
      </trkpt>
      <trkpt lat="48.7362" lon="-3.46425">
        <ele>-36</ele>
        <time>2015-10-26T15:32:22Z</time>
      </trkpt>
      <trkpt lat="48.73617" lon="-3.46401">
        <ele>-35</ele>
        <time>2015-10-26T15:32:31Z</time>
      </trkpt>
      <trkpt lat="48.73608" lon="-3.46367">
        <ele>-33</ele>
        <time>2015-10-26T15:32:45Z</time>
      </trkpt>
      <trkpt lat="48.73623" lon="-3.46338">
        <ele>-31</ele>
        <time>2015-10-26T15:32:58Z</time>
      </trkpt>
      <trkpt lat="48.73638" lon="-3.4632">
        <ele>-30</ele>
        <time>2015-10-26T15:33:08Z</time>
      </trkpt>
      <trkpt lat="48.73646" lon="-3.46301">
        <ele>-14</ele>
        <time>2015-10-26T15:34:46Z</time>
      </trkpt>
      <trkpt lat="48.73654" lon="-3.46305">
        <ele>-12</ele>
        <time>2015-10-26T15:35:32Z</time>
      </trkpt>
      <trkpt lat="48.73665" lon="-3.46321">
        <ele>-12</ele>
        <time>2015-10-26T15:36:33Z</time>
      </trkpt>
      <trkpt lat="48.73673" lon="-3.46327">
        <ele>-11</ele>
        <time>2015-10-26T15:36:38Z</time>
      </trkpt>
    </trkseg>
  </trk>
</gpx>